[[{"header":{"parameterUnit":"m.s-1","parameterCategory":1,"la1":30.6,"la2":28.766,"lo1":-90.7593,"lo2":-88.6598,"dx":0.0162,"dy":0.0183,"nx":116,"ny":114,"refTime":"2022-12-22T06:00:00:Z","depth":0,"parameterNumber":2,"parameterNumberName":"U-component_of_WINDS"},"data":[0.0,0.0,0.0,0.0,0.0,0.0,0.0,0.0,0.0,0.0,0.0,0.0,0.0,0.0,0.0,0.0,0.0,0.0,0.0,0.0,0.0,0.0,0.0,0.0,0.0,0.0,0.0,0.0,0.0,0.0,0.0,0.0,0.0,0.0,0.0,0.0,0.0,0.0,0.0,0.0,0.0,0.0,0.0,0.0,0.0,0.0,0.0,0.0,0.0,0.0,0.0,0.0,0.0,0.0,0.0,0.0,0.0,0.0,0.0,0.0,0.0,0.0,0.0,0.0,0.0,0.0,0.0,0.0,0.0,0.0,0.0,0.0,0.0,0.0,0.0,0.0,0.0,0.0,0.0,0.0,0.0,0.0,0.0,0.0,0.0,0.0,0.0,0.0,0.0,0.0,0.0,0.0,0.0,0.0,0.0,0.0,0.0,0.0,0.0,0.0,0.0,0.0,0.0,0.0,0.0,0.0,0.0,0.0,0.0,0.0,0.0,0.0,0.0,0.0,0.0,0.0,0.0,0.0,0.0,0.0,0.0,0.0,0.0,0.0,0.0,0.0,0.0,0.0,0.0,0.0,0.0,0.0,0.0,0.0,0.0,0.0,0.0,0.0,0.0,0.0,0.0,0.0,0.0,0.0,0.0,0.0,0.0,0.0,0.0,0.0,0.0,0.0,0.0,0.0,0.0,0.0,0.0,0.0,0.0,0.0,0.0,0.0,0.0,0.0,0.0,0.0,0.0,0.0,0.0,0.0,0.0,0.0,0.0,0.0,0.0,0.0,0.0,0.0,0.0,0.0,0.0,0.0,0.0,0.0,0.0,0.0,0.0,0.0,0.0,0.0,0.0,0.0,0.0,0.0,0.0,0.0,0.0,0.0,0.0,0.0,0.0,0.0,0.0,0.0,0.0,0.0,0.0,0.0,0.0,0.0,0.0,0.0,0.0,0.0,0.0,0.0,0.0,0.0,0.0,0.0,0.0,0.0,0.0,0.0,0.0,0.0,0.0,0.0,0.0,0.0,0.0,0.0,0.0,0.0,0.0,0.0,0.0,0.0,0.0,0.0,0.0,0.0,0.0,0.0,0.0,0.0,0.0,0.0,0.0,0.0,0.0,0.0,0.0,0.0,0.0,0.0,0.0,0.0,0.0,0.0,0.0,0.0,0.0,0.0,0.0,0.0,0.0,0.0,0.0,0.0,0.0,0.0,0.0,0.0,0.0,0.0,0.0,0.0,0.0,0.0,0.0,0.0,0.0,0.0,0.0,0.0,0.0,0.0,0.0,0.0,0.0,0.0,0.0,0.0,0.0,0.0,0.0,0.0,0.0,0.0,0.0,0.0,0.0,0.0,0.0,0.0,0.0,0.0,0.0,0.0,0.0,0.0,0.0,0.0,0.0,0.0,0.0,0.0,0.0,0.0,0.0,0.0,0.0,0.0,0.0,0.0,0.0,0.0,0.0,0.0,0.0,0.0,0.0,0.0,0.0,0.0,0.0,0.0,0.0,0.0,0.0,0.0,0.0,0.0,0.0,0.0,0.0,0.0,0.0,0.0,0.0,0.0,0.0,0.0,0.0,0.0,0.0,0.0,0.0,0.0,0.0,0.0,0.0,0.0,0.0,0.0,0.0,0.0,0.0,0.0,0.0,0.0,0.0,0.0,0.0,0.0,0.0,0.0,0.0,0.0,0.0,0.0,0.0,0.0,0.0,0.0,0.0,0.0,0.0,0.0,0.0,0.0,0.0,0.0,0.0,0.0,0.0,0.0,0.0,0.0,0.0,0.0,0.0,0.0,0.0,0.0,0.0,0.0,0.0,0.0,0.0,0.0,0.0,0.0,0.0,0.0,0.0,0.0,0.0,0.0,0.0,0.0,0.0,0.0,0.0,0.0,0.0,0.0,0.0,0.0,0.0,0.0,0.0,0.0,0.0,0.0,0.0,0.0,0.0,0.0,0.0,0.0,0.0,0.0,0.0,0.0,0.0,0.0,0.0,0.0,0.0,0.0,0.0,0.0,0.0,0.0,0.0,0.0,0.0,0.0,0.0,0.0,0.0,0.0,0.0,0.0,0.0,0.0,0.0,0.0,0.0,0.0,0.0,0.0,0.0,0.0,0.0,0.0,0.0,0.0,0.0,0.0,0.0,0.0,0.0,0.0,0.0,0.0,0.0,0.0,0.0,0.0,0.0,0.0,0.0,0.0,0.0,0.0,0.0,0.0,0.0,0.0,0.0,0.0,0.0,0.0,0.0,0.0,0.0,0.0,0.0,0.0,0.0,0.0,0.0,0.0,0.0,0.0,0.0,0.0,0.0,0.0,0.0,0.0,0.0,0.0,0.0,0.0,0.0,0.0,0.0,0.0,0.0,0.0,0.0,0.0,0.0,0.0,0.0,0.0,0.0,0.0,0.0,0.0,0.0,0.0,0.0,0.0,0.0,0.0,0.0,0.0,0.0,0.0,0.0,0.0,0.0,0.0,0.0,0.0,0.0,0.0,0.0,0.0,0.0,0.0,0.0,0.0,0.0,0.0,0.0,0.0,0.0,0.0,0.0,0.0,0.0,0.0,0.0,0.0,0.0,0.0,0.0,0.0,0.0,0.0,0.0,0.0,0.0,0.0,0.0,0.0,0.0,0.0,0.0,0.0,0.0,0.0,0.0,0.0,0.0,0.0,0.0,0.0,0.0,0.0,0.0,0.0,0.0,0.0,0.0,0.0,0.0,0.0,0.0,0.0,0.0,0.0,0.0,0.0,0.0,0.0,0.0,0.0,0.0,0.0,0.0,0.0,0.0,0.0,0.0,0.0,0.0,0.0,0.0,0.0,0.0,0.0,0.0,0.0,0.0,0.0,0.0,0.0,0.0,0.0,0.0,0.0,0.0,0.0,0.0,0.0,0.0,0.0,0.0,0.0,0.0,0.0,0.0,0.0,0.0,0.0,0.0,0.0,0.0,0.0,0.0,0.0,0.0,0.0,0.0,0.0,0.0,0.0,0.0,0.0,0.0,0.0,0.0,0.0,0.0,0.0,0.0,0.0,0.0,0.0,0.0,0.0,0.0,0.0,0.0,0.0,0.0,0.0,0.0,0.0,0.0,0.0,0.0,0.0,0.0,0.0,0.0,0.0,0.0,0.0,0.0,0.0,0.0,0.0,0.0,0.0,0.0,0.0,0.0,0.0,0.0,0.0,0.0,0.0,0.0,0.0,0.0,0.0,0.0,0.0,0.0,0.0,0.0,0.0,0.0,0.0,0.0,0.0,0.0,0.0,0.0,0.0,0.0,0.0,0.0,0.0,0.0,0.0,0.0,0.0,0.0,0.0,0.0,0.0,0.0,0.0,0.0,0.0,0.0,0.0,0.0,0.0,0.0,0.0,0.0,0.0,0.0,0.0,0.0,0.0,0.0,0.0,0.0,0.0,0.0,0.0,0.0,0.0,0.0,0.0,0.0,0.0,0.0,0.0,0.0,0.0,0.0,0.0,0.0,0.0,0.0,0.0,0.0,0.0,0.0,0.0,0.0,0.0,0.0,0.0,0.0,0.0,0.0,0.0,0.0,0.0,0.0,0.0,0.0,0.0,0.0,0.0,0.0,0.0,0.0,0.0,0.0,0.0,0.0,0.0,0.0,0.0,0.0,0.0,0.0,0.0,0.0,0.0,0.0,0.0,0.0,0.0,0.0,0.0,0.0,0.0,0.0,0.0,0.0,0.0,0.0,0.0,0.0,0.0,0.0,0.0,0.0,0.0,0.0,0.0,0.0,0.0,0.0,0.0,0.0,0.0,0.0,0.0,0.0,0.0,0.0,0.0,0.0,0.0,0.0,0.0,0.0,0.0,0.0,0.0,0.0,0.0,0.0,0.0,0.0,0.0,0.0,0.0,0.0,0.0,0.0,0.0,0.0,0.0,0.0,0.0,0.0,0.0,0.0,0.0,0.0,0.0,0.0,0.0,0.0,0.0,0.0,0.0,0.0,0.0,0.0,0.0,0.0,0.0,0.0,0.0,0.0,0.0,0.0,0.0,0.0,0.0,0.0,0.0,0.0,0.0,0.0,0.0,0.0,0.0,0.0,0.0,0.0,0.0,0.0,0.0,0.0,0.0,0.0,0.0,0.0,0.0,0.0,0.0,0.0,0.0,0.0,0.0,0.0,0.0,0.0,0.0,0.0,0.0,0.0,0.0,0.0,0.0,0.0,0.0,0.0,0.0,0.0,0.0,0.0,0.0,0.0,0.0,0.0,0.0,0.0,0.0,0.0,0.0,0.0,0.0,0.0,0.0,0.0,0.0,0.0,0.0,0.0,0.0,0.0,0.0,0.0,0.0,0.0,0.0,0.0,0.0,0.0,0.0,0.0,0.0,0.0,0.0,0.0,0.0,0.0,0.0,0.0,0.0,0.0,0.0,0.0,0.0,0.0,0.0,0.0,0.0,0.0,0.0,0.0,0.0,0.0,0.0,0.0,0.0,0.0,0.0,0.0,0.0,0.0,0.0,0.0,0.0,0.0,0.0,0.0,0.0,0.0,0.0,0.0,0.0,0.0,0.0,0.0,0.0,0.0,0.0,0.0,0.0,0.0,0.0,0.0,0.0,0.0,0.0,0.0,0.0,0.0,0.0,0.0,0.0,0.0,0.0,0.0,0.0,0.0,0.0,0.0,0.0,0.0,0.0,0.0,0.0,0.0,0.0,0.0,0.0,0.0,0.0,0.0,0.0,0.0,0.0,0.0,0.0,0.0,0.0,0.0,0.0,0.0,0.0,0.0,0.0,0.0,0.0,0.0,0.0,0.0,0.0,0.0,0.0,0.0,0.0,0.0,0.0,0.0,0.0,0.0,0.0,0.0,0.0,0.0,0.0,0.0,0.0,0.0,0.0,0.0,0.0,0.0,0.0,0.0,0.0,0.0,0.0,0.0,0.0,0.0,0.0,0.0,0.0,0.0,0.0,0.0,0.0,0.0,0.0,0.0,0.0,0.0,0.0,0.0,0.0,0.0,0.0,0.0,0.0,0.0,0.0,0.0,0.0,0.0,0.0,0.0,0.0,0.0,0.0,0.0,0.0,0.0,0.0,0.0,0.0,0.0,0.0,0.0,0.0,0.0,0.0,0.0,0.0,0.0,0.0,0.0,0.0,0.0,0.0,0.0,0.0,0.0,0.0,0.0,0.0,0.0,0.0,0.0,0.0,0.0,0.0,0.0,0.0,0.0,0.0,0.0,0.0,0.0,0.0,0.0,0.0,0.0,0.0,0.0,0.0,0.0,0.0,0.0,0.0,0.0,0.0,0.0,0.0,0.0,0.0,0.0,0.0,0.0,0.0,0.0,0.0,0.0,0.0,0.0,0.0,0.0,0.0,0.0,0.0,0.0,0.0,0.0,0.0,0.0,0.0,0.0,0.0,0.0,0.0,0.0,0.0,0.0,0.0,0.0,0.0,0.0,0.0,0.0,0.0,0.0,0.0,0.0,0.0,0.0,0.0,0.0,0.0,0.0,0.0,0.0,0.0,0.0,0.0,0.0,0.0,0.0,0.0,0.0,0.0,0.0,0.0,0.0,0.0,0.0,0.0,0.0,0.0,0.0,0.0,0.0,0.0,0.0,0.0,0.0,0.0,0.0,0.0,0.0,0.0,0.0,0.0,0.0,0.0,0.0,0.0,0.0,0.0,0.0,0.0,0.0,0.0,0.0,0.0,0.0,0.0,0.0,0.0,0.0,0.0,0.0,0.0,0.0,0.0,0.0,0.0,0.0,0.0,0.0,0.0,0.0,0.0,0.0,0.0,0.0,0.0,0.0,0.0,0.0,0.0,0.0,0.0,0.0,0.0,0.0,0.0,0.0,0.0,0.0,0.0,0.0,0.0,0.0,0.0,0.0,0.0,0.0,0.0,0.0,0.0,0.0,0.0,0.0,0.0,0.0,0.0,0.0,0.0,0.0,0.0,0.0,0.0,0.0,0.0,0.0,0.0,0.0,0.0,0.0,0.0,0.0,0.0,0.0,0.0,0.0,0.0,0.0,0.0,0.0,0.0,0.0,0.0,0.0,0.0,0.0,0.0,0.0,0.0,0.0,0.0,0.0,0.0,0.0,0.0,0.0,0.0,0.0,0.0,0.0,0.0,0.0,0.0,6.532,0.0,0.0,0.0,0.0,0.0,0.0,0.0,0.0,0.0,0.0,0.0,0.0,0.0,0.0,0.0,0.0,0.0,0.0,0.0,0.0,0.0,0.0,0.0,0.0,4.7198,4.7276,4.8096,4.8174,0.0,0.0,0.0,0.0,0.0,0.0,0.0,0.0,0.0,4.8213,4.9423,4.9423,5.0516,5.2585,5.1726,5.0867,5.0048,0.0,0.0,0.0,0.0,0.0,0.0,0.0,0.0,0.0,0.0,0.0,0.0,0.0,0.0,0.0,0.0,0.0,0.0,0.0,0.0,0.0,0.0,0.0,0.0,0.0,0.0,0.0,0.0,0.0,0.0,0.0,0.0,0.0,0.0,0.0,0.0,0.0,0.0,0.0,0.0,0.0,0.0,0.0,0.0,0.0,0.0,0.0,0.0,0.0,0.0,0.0,0.0,0.0,0.0,0.0,0.0,0.0,0.0,0.0,0.0,0.0,0.0,0.0,0.0,0.0,0.0,0.0,0.0,0.0,0.0,0.0,6.6399,0.0,0.0,0.0,0.0,0.0,0.0,0.0,0.0,0.0,0.0,0.0,0.0,0.0,0.0,0.0,0.0,0.0,0.0,0.0,0.0,0.0,4.6729,4.79,4.8057,4.8447,4.9384,4.9462,4.9423,4.9267,4.9267,0.0,0.0,0.0,0.0,4.9267,4.8603,4.915,5.1023,5.1297,5.2975,5.5942,5.5942,5.481,5.2702,5.1687,0.0,0.0,0.0,0.0,0.0,0.0,0.0,0.0,0.0,0.0,0.0,0.0,0.0,0.0,0.0,0.0,0.0,0.0,0.0,0.0,0.0,0.0,0.0,0.0,0.0,0.0,0.0,0.0,0.0,0.0,0.0,0.0,0.0,0.0,0.0,0.0,0.0,0.0,0.0,0.0,0.0,0.0,0.0,0.0,0.0,0.0,0.0,0.0,0.0,0.0,0.0,0.0,0.0,0.0,0.0,0.0,0.0,0.0,0.0,0.0,0.0,0.0,0.0,0.0,0.0,6.9321,6.9898,7.1002,7.2315,6.9684,6.9244,7.0268,0.0,0.0,0.0,0.0,0.0,0.0,0.0,0.0,0.0,0.0,0.0,0.0,0.0,0.0,0.0,0.0,0.0,0.0,0.0,0.0,4.7198,4.954,4.9774,5.0438,5.2038,5.2195,5.1843,5.1102,5.1063,0.0,0.0,0.0,5.0282,5.1023,5.0945,5.2117,5.4615,5.6059,5.7426,5.8597,5.8597,5.8402,5.8011,5.645,5.5396,5.4771,0.0,0.0,0.0,0.0,0.0,0.0,0.0,0.0,0.0,0.0,0.0,0.0,0.0,0.0,0.0,0.0,0.0,0.0,0.0,0.0,0.0,0.0,0.0,0.0,0.0,0.0,0.0,0.0,0.0,0.0,0.0,0.0,0.0,0.0,0.0,0.0,0.0,0.0,0.0,0.0,0.0,6.1281,6.0858,0.0,0.0,0.0,0.0,0.0,0.0,0.0,0.0,0.0,0.0,0.0,0.0,0.0,0.0,6.936,6.9937,7.0629,7.136,7.1475,7.1975,7.2822,7.2168,7.2456,7.3512,7.322,0.0,7.2164,7.2129,0.0,0.0,0.0,0.0,0.0,0.0,0.0,0.0,0.0,0.0,0.0,0.0,0.0,0.0,0.0,0.0,0.0,0.0,0.0,0.0,0.0,5.157,5.2468,5.4693,5.442,5.399,5.36,5.36,0.0,0.0,5.2273,5.2234,5.2117,5.2624,5.4108,5.6723,5.8402,5.9729,6.0549,6.0549,6.0549,6.0549,5.9807,5.8714,5.7387,5.6411,0.0,0.0,0.0,0.0,0.0,0.0,0.0,0.0,0.0,0.0,0.0,0.0,0.0,0.0,0.0,0.0,0.0,0.0,0.0,0.0,0.0,0.0,0.0,0.0,0.0,0.0,0.0,0.0,0.0,0.0,0.0,0.0,0.0,0.0,0.0,0.0,0.0,0.0,0.0,6.2204,6.3551,6.3628,6.3897,6.4205,0.0,0.0,0.0,0.0,0.0,0.0,0.0,0.0,0.0,6.9937,6.9975,7.0552,7.1822,7.2206,7.2552,7.2937,7.2937,7.336,7.4168,7.387,7.4292,7.5182,7.5439,7.5322,7.4833,7.3586,7.2546,7.168,0.0,0.0,0.0,0.0,0.0,6.922,0.0,0.0,0.0,0.0,0.0,0.0,0.0,0.0,0.0,0.0,0.0,0.0,5.278,5.321,5.4303,5.6684,5.6294,5.5942,5.5942,5.5747,5.524,5.4381,5.4108,5.3912,5.3717,5.4966,5.6684,5.8792,6.0315,6.1525,6.2384,6.2384,6.2384,6.2384,6.2384,6.1252,5.9339,5.8089,5.6957,5.5786,0.0,0.0,0.0,0.0,0.0,0.0,0.0,0.0,0.0,0.0,0.0,0.0,0.0,0.0,0.0,0.0,0.0,0.0,0.0,0.0,0.0,0.0,0.0,0.0,0.0,0.0,0.0,0.0,0.0,0.0,0.0,0.0,0.0,0.0,0.0,0.0,0.0,6.3897,6.5474,6.6128,6.582,6.582,0.0,0.0,0.0,0.0,0.0,0.0,7.0629,7.0667,7.1245,7.2476,7.2514,7.2937,7.3822,7.3867,7.401,7.4202,7.4282,7.4617,7.5221,7.5337,7.5795,7.6438,7.6675,7.6816,7.6741,7.4967,7.407,7.3661,7.2998,7.2568,0.0,7.3325,7.2841,7.1883,0.0,0.0,0.0,0.0,0.0,0.0,0.0,0.0,0.0,0.0,0.0,5.196,5.3756,5.4654,5.5864,5.7582,5.7699,5.766,5.766,5.6957,5.6138,5.5279,5.4459,5.4732,5.6372,5.8831,6.0549,6.1486,6.2423,6.3321,6.4179,6.4179,6.4179,6.4179,6.4179,6.2735,6.0315,6.0237,5.9222,5.7465,5.4927,0.0,0.0,0.0,0.0,0.0,0.0,0.0,0.0,0.0,0.0,0.0,0.0,0.0,0.0,0.0,0.0,0.0,0.0,0.0,0.0,0.0,0.0,0.0,0.0,0.0,0.0,0.0,0.0,0.0,0.0,0.0,0.0,0.0,0.0,0.0,0.0,0.0,0.0,6.7013,6.7744,0.0,0.0,0.0,0.0,7.0591,7.0744,7.1514,7.3245,7.3322,7.336,7.3437,7.3437,7.3822,7.463,7.4822,7.533,7.6142,7.6342,7.6475,7.6514,7.6514,7.6615,7.678,7.6793,7.6907,7.7095,7.6945,7.6438,7.5657,7.5618,7.5065,7.4428,7.5211,7.5402,7.53,0.0,0.0,0.0,4.63,4.63,4.6495,4.7042,4.7393,4.8291,5.0204,5.1492,5.3093,5.5435,5.6411,5.7582,5.9339,5.9456,5.9456,5.9456,5.8675,5.8324,5.8558,5.7738,5.8363,6.0666,6.1056,6.1954,6.336,6.3672,6.3984,6.4297,6.4297,6.4297,6.4297,6.4297,6.3789,6.2852,6.2306,6.1408,6.0119,5.8089,5.6801,0.0,0.0,0.0,0.0,0.0,0.0,0.0,0.0,0.0,0.0,0.0,0.0,0.0,0.0,0.0,0.0,0.0,0.0,0.0,0.0,0.0,0.0,0.0,0.0,0.0,0.0,0.0,0.0,0.0,0.0,0.0,0.0,0.0,0.0,0.0,0.0,0.0,6.8629,6.8552,0.0,0.0,7.0014,7.0706,7.2437,7.2591,7.3091,7.4207,7.4284,7.4599,7.5285,7.5285,7.5499,7.5929,7.6516,7.6982,7.7293,7.7912,7.822,7.822,7.8333,7.8442,7.8492,7.8594,7.8714,7.878,7.878,7.7921,7.6633,7.6633,7.6438,7.6203,7.6489,7.6201,7.5803,0.0,4.6885,0.0,4.63,4.6534,4.6924,4.751,4.833,4.9579,5.157,5.2858,5.4342,5.6372,5.7309,5.8363,5.9846,6.0237,6.051,6.0822,5.9768,5.9378,5.9924,5.969,6.0627,6.2969,6.2735,6.3282,6.4726,6.4726,6.4882,6.5155,6.5155,6.5155,6.5155,6.5155,6.5155,6.5077,6.4258,6.336,6.2423,6.0666,5.9495,5.8558,0.0,0.0,0.0,0.0,0.0,0.0,0.0,0.0,0.0,0.0,0.0,0.0,0.0,0.0,0.0,0.0,0.0,0.0,0.0,0.0,0.0,0.0,0.0,0.0,0.0,0.0,0.0,0.0,0.0,0.0,0.0,0.0,0.0,0.0,0.0,6.8513,6.9937,6.986,7.0129,7.1245,7.1591,7.236,7.3822,7.3944,7.4345,7.5193,7.5568,7.6079,7.6781,7.7074,7.7292,7.7442,7.8037,7.8342,7.8342,7.8985,7.9325,7.9325,7.945,7.952,7.952,7.9658,7.9717,7.9717,7.9717,7.9014,7.7999,7.7999,7.7999,7.7999,7.7999,7.7609,7.7173,0.0,4.6885,4.6339,4.6339,4.7042,4.7666,4.7666,4.9813,5.1726,5.2624,5.4225,5.563,5.6528,5.7348,5.8207,5.9065,5.9924,6.0783,6.1642,6.008,5.9104,5.9183,6.008,6.1408,6.3086,6.3945,6.4804,6.5624,6.5624,6.6053,6.6795,6.6795,6.6795,6.6795,6.6795,6.6795,6.6756,6.5975,6.5155,6.4219,6.2462,6.2267,6.2618,0.0,0.0,0.0,0.0,0.0,0.0,0.0,0.0,0.0,0.0,0.0,0.0,0.0,0.0,0.0,0.0,0.0,0.0,0.0,0.0,0.0,0.0,0.0,0.0,0.0,0.0,0.0,0.0,0.0,0.0,0.0,0.0,0.0,6.8321,6.9167,7.0014,7.0821,7.1668,7.2206,7.2283,7.3053,7.386,7.4668,7.4938,7.543,7.6305,7.7293,7.7831,7.787,7.8647,7.9131,7.917,7.9364,7.9505,7.9544,7.976,7.9873,7.9873,7.9873,7.9873,7.9873,7.9873,7.9873,7.9873,7.9873,7.9873,7.9834,7.9756,7.9717,7.9717,7.9717,7.9717,7.9795,4.6729,4.6963,4.7237,4.7237,4.7939,4.8681,4.9306,5.0555,5.1921,5.3444,5.4615,5.5864,5.7309,5.8246,5.9104,5.9963,6.0822,6.1447,6.1681,6.008,5.9651,6.0939,6.3594,6.5273,6.5741,6.5975,6.6209,6.6483,6.6483,6.6561,6.6795,6.6795,6.6795,6.6795,6.6795,6.6795,6.6795,6.6561,6.6327,6.5897,6.3594,6.2774,6.2813,0.0,0.0,0.0,0.0,0.0,0.0,0.0,0.0,0.0,0.0,0.0,0.0,0.0,0.0,0.0,0.0,0.0,0.0,0.0,0.0,0.0,0.0,0.0,0.0,0.0,0.0,0.0,0.0,0.0,0.0,0.0,0.0,6.9052,6.9321,6.9552,7.0244,7.1668,7.2052,7.2668,7.3899,7.4245,7.4791,7.5774,7.649,7.703,7.739,7.8261,7.8815,7.8974,7.9169,7.9688,8.0475,8.1156,8.1797,8.2382,8.3068,8.3386,8.3386,8.3386,8.3386,8.3386,8.3386,8.3386,8.3386,8.3386,8.3386,8.3152,8.0654,7.9717,7.9717,7.9717,8.0498,8.1669,4.6924,4.7237,4.7705,4.8057,4.8798,4.9657,5.0516,5.1687,5.2975,5.4342,5.5318,5.6333,5.766,5.8597,5.9456,6.0315,6.1525,6.1915,6.1213,6.0198,6.0588,6.2696,6.4687,6.6092,6.6795,6.6795,6.6795,6.6795,6.6795,6.6795,6.6795,6.6795,6.6795,6.6795,6.6795,6.6795,6.6795,6.6795,6.6795,6.6639,6.4804,6.4297,6.4453,6.3243,6.3008,6.3204,6.211,6.1915,6.2267,6.2423,0.0,0.0,0.0,0.0,0.0,0.0,0.0,0.0,0.0,0.0,0.0,0.0,0.0,0.0,0.0,0.0,0.0,0.0,0.0,0.0,0.0,0.0,0.0,0.0,6.9629,7.0744,7.0744,7.0744,7.1091,7.2091,7.2822,7.3647,7.4719,7.5169,7.5774,7.6841,7.7487,7.8025,7.8435,7.9403,8.0129,8.0583,8.0934,8.1585,8.2567,8.3074,8.3582,8.405,8.4558,8.4792,8.4792,8.4792,8.4792,0.0,8.4792,8.4792,8.4792,8.4792,8.4792,0.0,0.0,0.0,0.0,0.0,8.2489,8.3426,4.7744,4.7822,4.8096,4.8837,4.9657,5.0555,5.1414,5.2936,5.4303,5.5201,5.6059,5.6957,5.7855,5.8636,5.9495,6.0471,6.2032,6.2345,6.0783,6.0861,6.1993,6.4179,6.4492,6.5273,6.6756,6.6795,6.6795,6.6795,6.6795,6.6795,6.6795,6.6795,6.6795,6.6795,6.6795,6.6795,6.6795,6.6795,6.6795,6.6756,6.6014,6.617,6.6639,6.5038,6.496,6.5429,6.3125,6.2774,6.3321,6.2657,0.0,0.0,0.0,0.0,0.0,0.0,0.0,0.0,0.0,0.0,0.0,0.0,0.0,0.0,0.0,0.0,0.0,0.0,0.0,0.0,0.0,0.0,0.0,0.0,7.1222,7.2261,7.2322,7.2399,7.2476,7.2476,7.3812,7.4873,7.5252,7.5995,7.6901,7.7909,7.8221,7.8765,7.9673,0.0,0.0,0.0,0.0,8.4089,8.4948,8.4948,8.4987,8.5104,8.5104,8.5104,8.5104,8.5104,8.5104,8.5104,8.5104,8.5104,8.5104,8.5104,8.5104,8.5065,8.487,8.4792,8.4792,8.4909,8.4948,0.0,4.872,4.915,4.9657,4.9813,5.0555,5.1453,5.2312,5.3327,5.4303,5.5201,5.6059,5.7153,5.8675,5.8987,5.9729,6.133,6.2384,6.2852,6.2501,6.3828,6.4492,6.4297,6.5585,6.6483,6.6795,6.6795,6.6795,6.6795,6.6795,6.6795,6.6795,6.6795,6.6795,6.6795,6.6795,6.6795,6.6795,6.6795,6.6795,6.6795,6.6639,6.6678,6.6678,6.5702,6.5858,6.6483,6.6014,6.5936,6.6131,6.6678,6.5975,6.496,6.5624,6.4882,0.0,0.0,0.0,0.0,0.0,0.0,0.0,0.0,0.0,0.0,0.0,0.0,0.0,0.0,0.0,0.0,0.0,0.0,0.0,7.0744,7.1765,7.2621,7.3157,7.3822,7.4207,7.4207,7.4655,7.5499,7.6939,7.7349,7.7965,7.9013,7.9793,8.063,8.168,8.256,0.0,8.4284,8.448,8.4987,8.5846,8.5846,8.6197,8.69,0.0,0.0,8.69,8.69,8.69,8.69,8.69,8.69,8.69,8.69,8.69,8.6744,8.5338,8.4792,8.4909,8.5573,8.5846,8.5963,5.0204,5.0087,5.0243,5.0672,5.1453,5.2351,5.321,5.4108,5.5123,5.6372,5.6918,5.7855,5.9573,5.8987,5.8987,6.0276,6.0783,6.1798,6.3555,6.4453,6.5116,6.5546,6.6366,6.6795,6.6795,6.6795,6.6795,6.6795,6.6795,6.6795,6.6795,6.6795,6.6795,6.6795,6.6795,6.7029,6.7459,6.7459,6.7459,6.7459,6.7459,6.7185,6.6756,6.6366,6.6444,6.6795,6.6795,6.6795,6.6873,6.7303,6.6873,6.6288,6.6678,6.6209,6.5546,0.0,0.0,0.0,0.0,0.0,0.0,0.0,0.0,0.0,0.0,0.0,0.0,0.0,0.0,6.8559,0.0,0.0,7.1068,7.2242,7.3109,7.3768,7.4192,7.535,7.5813,7.4964,7.5707,7.6704,7.7757,7.8287,7.9221,8.0739,8.1255,8.2101,8.3465,8.3933,8.4558,8.5416,8.5456,8.5885,8.6744,8.6744,8.6978,8.7407,8.7407,8.7407,8.7407,8.7407,8.7407,8.7407,8.7407,8.7407,8.7407,8.7407,8.7407,8.7329,8.6431,8.6119,8.6158,8.6588,8.6744,8.6822,5.1414,5.0984,5.0828,5.1531,5.2234,5.3053,5.4108,5.4849,5.5864,5.7387,5.7582,5.8168,5.9729,5.8519,5.805,5.9261,5.9651,6.1174,6.4336,6.4687,6.539,6.6756,6.6795,6.6795,6.6795,6.6795,6.6795,6.6795,6.6795,6.6795,6.6795,6.6795,6.6795,6.6795,6.699,6.7459,6.8122,6.8279,6.8357,6.8357,6.8357,6.7849,6.7068,6.7224,6.7107,6.6795,6.6795,6.6795,6.6795,6.6795,6.6795,6.6834,6.699,6.7068,6.7107,6.7459,6.699,0.0,0.0,0.0,0.0,0.0,0.0,0.0,0.0,0.0,6.9136,6.8786,6.9253,7.0226,7.1782,7.1947,7.2328,7.3839,7.4518,7.5026,7.5476,7.6759,7.7185,7.5989,7.7095,7.8126,7.8546,7.9439,8.0661,8.2404,8.2684,8.3465,8.4987,8.5065,8.5456,8.6314,8.6353,8.6705,8.7407,8.7407,8.7407,8.7407,8.7407,8.7407,8.7407,8.7407,8.7407,8.7407,8.7407,8.7407,8.7407,8.7407,8.7407,8.7407,8.7603,8.7564,8.7407,8.7407,8.7407,8.7407,5.1414,5.1921,5.2429,5.2546,5.2624,5.3249,5.4888,5.524,5.563,5.6606,5.6723,5.7074,5.7972,5.727,5.7699,6.0041,6.1681,6.3399,6.5312,6.6131,6.66,6.6795,6.6795,6.6795,6.6795,6.6795,6.6795,6.6795,6.6795,6.6795,6.6795,6.6795,6.6795,6.6834,6.7615,6.8005,6.8161,6.8942,6.9255,6.9255,6.9255,6.8747,6.8044,6.8825,6.8161,6.6795,6.6795,6.6795,6.6795,6.6795,6.6795,6.6951,6.7693,6.7966,6.8279,6.9801,6.9645,6.9176,7.0152,7.0348,0.0,7.0504,7.0537,7.0727,0.0,0.0,7.0909,7.2353,7.2743,7.3101,7.3999,7.4148,7.4429,7.5261,7.5456,7.596,7.7308,7.764,7.8043,7.8819,7.9066,7.9507,8.0324,8.1343,8.2365,8.3308,8.4089,8.4948,8.5885,8.5963,8.6353,8.7212,8.7251,8.729,8.7407,8.7407,8.7407,8.7407,8.7407,8.7407,8.7407,8.7407,8.7407,8.7407,8.7407,8.7407,8.7407,8.7407,8.7407,8.7486,8.8266,8.8071,8.7407,8.7407,8.7407,8.7407,5.2819,5.321,5.36,5.4108,5.4225,5.4459,5.5201,5.5747,5.6372,5.7192,5.7309,5.7621,5.8441,5.7387,5.7035,5.8089,6.0198,6.2228,6.3984,6.578,6.6795,6.6795,6.6795,6.6795,6.6795,6.6795,6.6795,6.6795,6.6795,6.6795,6.6795,6.6795,6.6795,6.6834,6.7693,6.8083,6.8161,6.902,6.9098,6.863,6.863,6.8435,6.8122,6.8513,6.8513,6.8239,6.7732,6.7888,0.0,6.7732,6.7888,6.8396,6.8747,6.8513,6.8552,7.0816,7.0465,6.9684,7.1089,7.1441,0.0,0.0,7.1441,7.1558,7.1909,7.2104,7.23,7.2495,7.3315,7.4095,7.4447,7.4843,7.5377,0.0,7.6624,7.7151,7.7881,7.8869,7.9897,8.0943,8.1507,8.1742,8.1624,8.2897,8.4089,8.4948,8.5338,8.5924,8.6822,8.6861,8.7017,8.7407,8.7407,8.7407,8.7407,8.7407,8.7407,8.7407,8.7407,8.7681,8.8149,8.8149,8.8422,8.8891,8.8891,8.8891,8.8891,8.8891,8.8891,8.8969,8.932,8.9242,8.8852,8.8344,8.8149,8.8149,5.3873,5.4186,5.4576,5.5201,5.5513,5.5669,5.5669,5.6177,5.6801,5.7387,5.7465,5.7621,5.8011,5.7192,5.6684,5.6918,5.93,6.1486,6.3243,6.5507,6.6795,6.6795,6.6795,6.6795,6.6795,6.7029,6.7146,6.7146,6.7381,6.7537,6.7537,6.7537,6.7537,6.7576,6.8435,6.8552,6.8161,6.902,6.8747,6.7732,6.7732,6.7615,6.7498,6.82,6.8396,6.8318,6.8161,6.8669,6.9255,6.8396,6.8825,6.9762,6.9762,6.9489,6.9645,7.1987,7.1987,7.1324,7.2143,0.0,0.0,7.269,7.269,7.269,7.269,7.3197,7.351,7.3119,7.4017,7.4915,7.5188,7.585,7.6536,7.716,7.7832,7.8468,7.8837,8.0173,8.1529,8.2521,8.3582,8.3972,8.3386,8.4441,8.5416,8.6041,8.6314,8.6744,8.7368,8.7407,8.7407,8.7407,8.7407,8.7407,8.7407,8.7642,8.7759,8.7759,8.7993,8.8461,8.9047,8.9047,8.9398,8.9984,8.9984,8.9984,8.9984,8.9984,8.9984,9.0023,9.0257,9.0218,8.9945,8.9555,8.9242,8.9047,5.399,5.4693,5.5279,5.5318,5.5981,5.6567,5.6567,5.6567,5.6606,5.6645,5.6645,5.6333,5.5513,5.6138,5.6918,5.7699,6.0159,6.2384,6.414,6.5858,6.6795,6.6795,6.6795,6.6795,6.6795,6.7615,6.8044,6.8044,6.8903,6.9333,6.9333,6.9333,6.9333,6.9372,7.023,6.9684,6.8161,6.902,6.8396,6.6834,6.6834,6.6366,6.5936,6.8435,6.7849,6.5936,6.7537,6.8669,6.9255,6.8396,6.9255,7.066,7.066,7.1206,7.2221,7.3939,7.4993,7.5266,7.3705,7.3822,7.4408,7.4408,7.4408,7.4408,7.4408,7.4447,7.4681,7.5501,7.5735,7.6008,7.6867,7.7726,7.8311,7.835,7.9086,7.9945,8.081,8.1708,8.2567,8.3386,8.4987,8.6002,0.0,8.6041,8.608,8.608,8.69,8.7368,8.7407,8.7407,8.7407,8.7407,8.7407,8.7407,8.7407,8.8227,8.8657,8.8657,8.9516,8.9945,8.9945,8.9945,8.9984,8.9984,8.9984,8.9984,8.9984,8.9984,8.9984,9.0062,9.0921,9.0726,9.0101,9.0921,9.0687,8.9945,5.5591,5.5942,5.6177,5.6177,5.6411,5.6606,5.6606,5.6606,5.6606,5.6606,5.6606,0.0,0.0,0.0,0.0,0.0,6.051,6.2423,6.4179,6.5858,6.6795,6.6795,6.6795,6.6795,6.6795,6.7654,6.8083,6.8083,6.8981,6.9411,6.9411,6.9411,6.9098,6.8552,6.8825,6.8044,6.6483,6.7303,6.7029,6.6053,6.66,6.699,6.7498,6.9489,6.9723,6.9059,0.0,6.9645,6.9255,6.8396,6.9645,7.1363,7.0191,7.0426,7.148,7.3197,7.429,7.4954,7.4954,7.472,7.4486,7.4486,7.4486,7.4642,7.5227,7.5345,7.5462,7.5735,7.7179,7.8311,7.8038,7.9131,8.0146,8.0146,8.0381,8.0888,8.1747,8.2567,8.3621,8.5065,8.5729,0.0,0.0,0.0,0.0,8.6978,8.7212,8.7407,8.7407,8.7407,8.7407,8.7407,8.7954,8.8266,8.8266,8.9125,8.9555,8.9555,9.0452,9.0843,9.0882,9.1428,9.1663,9.1663,9.1663,9.1663,9.1663,9.1663,9.1663,9.1702,9.1975,9.1936,9.1702,9.1975,9.1897,9.1585,5.6489,5.6606,5.6606,5.6606,5.6606,0.0,0.0,0.0,0.0,0.0,0.0,0.0,0.0,0.0,0.0,0.0,0.0,6.2423,6.4179,6.5312,6.617,6.6756,6.6209,6.617,6.6795,6.7342,6.7927,6.8552,6.9137,6.9723,7.0309,6.9684,6.9098,6.8552,6.8239,6.7185,6.5624,6.6131,6.6405,6.6444,6.6053,6.6795,6.8239,6.9333,6.9411,0.0,7.027,7.0152,6.9294,6.8747,6.9879,7.1402,7.0582,7.1324,7.2612,7.3158,7.4525,7.5891,7.5813,7.5618,7.5423,7.5423,7.5423,7.5579,7.6125,7.6242,7.6242,7.6242,7.7843,7.9053,7.8507,7.9834,8.1083,8.1396,8.1981,8.2567,8.3113,8.4167,8.5182,8.6002,8.6353,0.0,0.0,0.0,0.0,8.7407,8.7407,8.7407,8.7407,8.7407,8.7525,8.7837,8.8422,8.8852,8.9164,9.0023,9.0609,9.0882,9.1467,9.1741,9.1741,9.2248,9.2678,9.2951,9.2951,9.3146,9.3419,9.3419,9.3419,9.3419,9.3419,9.3419,9.3419,9.3419,9.3419,9.3263,5.6606,5.6606,5.6606,0.0,0.0,0.0,0.0,0.0,0.0,0.0,0.0,0.0,0.0,0.0,0.0,0.0,0.0,0.0,6.4101,6.4297,6.4999,6.66,6.5194,6.5116,6.6717,6.6834,6.7693,6.9333,6.9411,7.0309,7.1909,7.023,6.945,6.9372,6.8435,6.7146,6.5663,6.5624,6.6522,6.781,6.539,6.5897,6.8122,6.82,6.7264,6.6288,6.9606,7.0191,6.945,6.9411,6.9957,7.0777,7.1675,7.3627,7.5305,7.3783,7.5696,7.7921,7.6281,7.6477,7.7101,7.7101,7.7101,7.7101,7.7179,7.7179,7.7179,7.7218,7.796,7.8585,0.0,0.0,8.1474,8.2293,8.3777,8.4831,8.487,8.6275,8.7056,0.0,0.0,0.0,0.0,0.0,0.0,8.7407,0.0,8.7407,8.7407,8.7446,8.7837,8.8657,8.8774,8.9242,9.0062,9.0921,9.1741,9.2482,9.2482,9.2522,9.2561,9.2561,9.3029,9.3888,9.3888,9.4356,9.5098,9.5098,9.5098,9.5098,9.5098,9.5098,9.5098,9.5098,9.5098,9.4864,0.0,0.0,0.0,0.0,0.0,0.0,0.0,0.0,0.0,0.0,0.0,0.0,0.0,0.0,0.0,0.0,0.0,0.0,6.3243,6.3945,6.4492,6.4921,6.5155,6.5468,6.5897,6.7146,6.8005,6.8435,6.9723,7.0582,7.1011,7.0582,7.0035,6.9333,6.781,6.6873,6.6444,6.5858,6.617,6.7068,6.6405,6.6951,6.8239,6.9528,6.9762,6.9606,7.1128,7.1128,7.027,6.9606,6.9567,6.9879,7.0777,7.1909,7.3119,7.3939,7.5266,7.6516,7.6711,7.6945,7.7101,7.7101,7.7101,7.7257,7.7921,7.8077,7.8233,7.8897,8.0263,8.1317,0.0,0.0,0.0,8.4128,8.4519,0.0,8.569,8.6158,0.0,8.7017,0.0,8.7407,8.7407,8.7407,0.0,0.0,8.7407,8.7407,8.7407,8.8032,8.8461,8.8696,8.9945,9.0726,9.096,9.178,9.2287,9.2482,9.2482,9.2834,9.3458,9.3458,9.3927,9.4786,9.4786,9.4903,9.5098,9.5098,9.5098,9.5098,9.5098,9.5098,9.5098,9.5098,9.5098,9.502,0.0,0.0,0.0,0.0,0.0,0.0,0.0,0.0,0.0,0.0,0.0,0.0,0.0,0.0,0.0,0.0,0.0,0.0,0.0,6.3086,6.3516,6.4258,6.4023,6.4414,6.5585,6.578,6.6795,6.8669,6.8513,6.902,7.0113,6.8981,6.8005,6.7107,6.6131,6.5702,6.5663,6.5234,6.66,0.0,0.0,6.8239,7.0426,7.0621,7.0699,7.0816,7.1675,7.1441,7.0699,7.0582,7.0309,7.0113,7.1011,7.2378,7.3861,7.4798,7.5969,7.6945,7.7062,7.7101,7.7179,7.757,7.7687,7.7882,7.878,7.8975,7.9014,7.9092,8.0537,0.0,8.1239,0.0,0.0,0.0,0.0,0.0,8.6588,8.7017,8.729,0.0,8.7407,0.0,8.7407,8.7407,8.7407,0.0,8.7759,8.7954,8.7954,8.8813,8.9437,8.9828,9.0804,9.1467,9.1819,9.2287,9.2482,9.2482,9.2873,9.3341,9.381,9.42,9.4864,9.5684,0.0,9.5879,9.623,9.623,9.6464,9.6777,9.6386,9.6699,9.7323,9.6933,9.705,9.7323,0.0,0.0,0.0,0.0,0.0,0.0,0.0,0.0,0.0,5.7074,0.0,0.0,0.0,0.0,0.0,0.0,0.0,0.0,0.0,0.0,6.2384,6.3906,6.2618,6.293,6.5194,6.3984,6.5116,6.8708,6.6717,6.6834,6.8864,6.6756,6.5351,6.4609,6.4609,6.4687,6.4804,6.4687,6.7264,7.1206,6.82,6.9294,7.2612,0.0,7.0777,7.0972,7.1714,7.1441,7.0855,7.1831,7.1597,7.1011,7.1909,7.3822,7.5813,7.5813,7.6945,7.8077,7.7453,7.7257,7.7492,7.835,7.8585,7.878,7.9678,7.9795,7.9522,7.8897,7.9951,8.0771,8.0029,8.1942,8.3933,8.4675,0.0,8.7407,8.7407,8.8032,8.8266,8.7486,8.7407,8.7407,8.7407,8.7486,8.7564,8.7564,8.8501,8.893,8.8696,8.9633,9.057,9.1428,9.1467,9.178,9.2482,9.2482,9.2561,9.2678,9.3458,9.3927,9.4161,9.4942,9.5762,9.6582,0.0,0.0,9.7714,9.7831,9.826,9.8768,9.826,9.8885,10.0017,9.9392,9.9666,10.0212,0.0,0.0,0.0,0.0,0.0,0.0,0.0,5.7582,5.8128,5.9534,5.9378,5.9378,0.0,0.0,0.0,0.0,0.0,0.0,0.0,0.0,0.0,6.2149,6.254,6.3008,6.3438,6.457,6.5155,6.5194,6.6131,6.6483,6.6249,6.6483,6.6522,6.6366,6.6366,6.6756,6.7381,6.6678,6.7303,6.8708,6.8122,6.8747,7.0113,7.0543,0.0,0.0,7.1948,7.1441,7.0933,7.2534,7.2495,7.1948,7.2807,7.433,7.5813,7.5813,7.6516,7.7453,7.8038,7.8155,7.839,7.9248,7.9483,7.9717,8.0576,8.0224,7.9873,8.042,8.0771,8.0966,8.081,8.2879,8.4636,8.4792,8.6275,8.7407,8.7407,8.7525,8.7564,0.0,8.7407,8.7407,8.7407,0.0,0.0,0.0,0.0,0.0,8.8774,9.0218,9.1467,9.2287,9.2287,9.2365,9.2482,9.2482,9.2873,9.3576,9.3732,9.4552,9.5957,9.6113,9.666,9.7479,0.0,0.0,9.7753,9.8494,9.8455,9.8065,9.9353,9.9588,9.9275,9.9861,10.0212,10.029,0.0,0.0,0.0,0.0,0.0,0.0,0.0,5.887,5.9768,6.1525,6.1408,6.1134,6.1095,6.1447,6.172,0.0,0.0,0.0,0.0,0.0,0.0,6.172,6.211,6.254,6.3008,6.3828,6.4687,6.5585,0.0,6.617,6.6209,6.617,6.5936,6.5507,6.5507,6.5975,6.6756,6.5858,6.6522,6.8083,6.8083,6.8903,7.0152,7.105,0.0,0.0,7.1987,7.1714,7.1558,7.2885,7.3315,7.3432,7.433,7.5149,7.5891,7.632,7.6789,7.7296,7.8155,7.839,7.8702,8.0068,8.0381,8.0498,8.0888,8.0693,8.0224,7.9756,7.999,8.0185,7.9717,8.1747,8.366,8.405,8.5573,8.69,8.7329,8.7407,8.7407,8.7407,8.7407,8.7564,0.0,0.0,0.0,0.0,0.0,0.0,9.0101,9.1233,9.2092,9.2482,9.2482,9.2717,9.3185,9.3185,9.3615,9.4473,9.4942,9.5606,9.6425,9.6855,9.7284,9.7714,0.0,0.0,9.7714,9.8143,9.8612,9.908,9.947,10.0212,10.0993,10.0915,10.1188,10.15,0.0,0.0,0.0,0.0,0.0,0.0,0.0,6.0119,6.1369,6.3282,6.3399,6.3008,6.2345,6.211,6.1915,0.0,0.0,0.0,0.0,0.0,0.0,0.0,0.0,6.211,6.2969,0.0,0.0,0.0,6.5897,0.0,0.0,0.0,0.0,0.0,6.457,6.496,6.5546,6.4687,6.5663,0.0,0.0,6.9137,7.0816,0.0,0.0,0.0,0.0,7.1987,7.2143,7.3197,7.3978,7.4681,7.5735,7.6086,7.6242,7.7101,7.7375,7.757,7.8429,7.8819,7.9326,8.0888,8.1278,8.1239,8.1044,8.0849,8.0263,7.8702,7.8936,7.9287,7.878,8.0654,8.2606,8.3621,8.5065,8.6392,8.729,8.7407,8.7407,8.7407,8.7564,0.0,8.8618,0.0,0.0,0.0,0.0,0.0,0.0,9.217,9.2482,9.2482,9.2482,9.2912,9.381,9.381,9.4317,9.5371,9.6074,9.6503,9.6699,9.7401,9.7714,9.7714,0.0,0.0,0.0,9.7909,9.8807,9.9978,9.9666,10.0798,10.2515,10.2008,10.2203,10.2711,0.0,0.0,0.0,0.0,0.0,0.0,0.0,6.1017,6.2501,6.5038,6.4687,6.414,6.4062,6.336,6.2579,0.0,0.0,0.0,0.0,0.0,0.0,0.0,0.0,0.0,0.0,0.0,0.0,6.5702,0.0,0.0,0.0,0.0,0.0,0.0,0.0,6.5546,6.5546,6.4687,0.0,0.0,0.0,0.0,0.0,0.0,0.0,0.0,0.0,7.1987,7.2221,7.3861,7.4447,7.4798,7.6477,7.6984,7.714,7.8038,7.8272,7.8468,7.9326,8.0146,8.1005,8.1942,8.2176,8.1981,8.1161,8.0381,7.9561,7.8585,7.8468,7.8741,7.9444,8.1083,8.284,8.4401,8.5495,8.6392,8.729,8.7407,8.7407,8.7407,0.0,0.0,8.8696,0.0,0.0,0.0,0.0,0.0,0.0,9.2443,9.2482,9.2482,9.2482,9.2912,9.381,9.381,9.463,9.6269,9.6347,9.6816,9.7597,9.7675,9.7714,9.7714,0.0,0.0,0.0,9.8533,9.8963,9.9275,10.0681,10.1383,10.1696,10.2398,10.2711,10.2789,0.0,0.0,0.0,0.0,0.0,0.0,6.1681,6.2267,6.3399,6.5975,6.5585,6.5077,6.5077,6.4765,6.3789,6.1876,0.0,0.0,0.0,0.0,0.0,0.0,0.0,0.0,0.0,0.0,6.5234,6.5585,0.0,0.0,0.0,0.0,0.0,0.0,0.0,6.5116,6.5546,6.4687,0.0,0.0,0.0,0.0,0.0,0.0,0.0,0.0,0.0,0.0,7.3627,7.429,7.5188,7.6203,7.6867,7.7101,7.7179,7.7531,7.835,7.9248,7.96,8.0341,8.12,8.2098,8.2293,8.1942,8.0537,7.9951,7.9287,7.7921,7.7609,7.7882,7.8741,7.9912,8.1474,8.366,8.4753,8.5807,8.7212,8.7837,8.8188,8.8188,8.8969,0.0,0.0,0.0,0.0,0.0,0.0,0.0,0.0,9.2482,9.2482,9.2482,9.299,9.3693,9.4552,9.5098,9.5996,9.7167,9.7167,9.7362,9.7714,9.7714,9.7714,9.7714,0.0,0.0,0.0,9.8065,9.8533,9.9119,10.029,10.111,10.1618,10.2515,10.2789,10.2789,0.0,0.0,0.0,0.0,0.0,6.09,6.2384,6.3047,6.4101,6.617,6.5936,6.5702,6.5936,6.5507,6.457,6.3008,6.2384,0.0,0.0,0.0,0.0,0.0,0.0,0.0,0.0,0.0,6.5975,6.6717,6.7029,0.0,0.0,0.0,0.0,0.0,0.0,0.0,0.0,0.0,0.0,0.0,0.0,0.0,0.0,0.0,0.0,0.0,0.0,0.0,0.0,0.0,0.0,7.675,7.7023,7.7296,7.7609,7.8116,7.8936,7.9795,8.0341,8.0927,8.1513,8.2137,8.2293,8.1825,8.0107,7.9717,7.9287,7.7804,7.7296,7.7531,7.8897,7.9444,8.0615,8.3426,8.4401,8.5416,8.7134,8.8149,8.8696,8.8696,0.0,0.0,0.0,0.0,0.0,0.0,0.0,0.0,0.0,9.2873,9.2873,9.2873,9.3497,9.4356,9.5488,9.6074,9.6855,9.7714,9.7714,9.7714,9.7714,9.7714,9.7714,0.0,0.0,0.0,0.0,9.8065,9.8768,9.9822,10.0407,10.1188,10.2008,10.2593,10.2796,10.2803,0.0,0.0,0.0,0.0,0.0,0.0,6.1564,6.3164,6.4609,6.5507,6.5624,6.5897,6.6717,6.5312,6.4648,6.5507,6.3984,0.0,0.0,0.0,0.0,0.0,0.0,0.0,0.0,0.0,6.6834,6.9372,6.8513,6.8513,6.9333,6.8474,6.7615,6.6756,0.0,0.0,0.0,0.0,0.0,0.0,0.0,0.0,7.1987,0.0,0.0,0.0,0.0,0.0,0.0,0.0,0.0,0.0,0.0,7.7687,7.8741,8.0459,8.0341,8.0068,8.1786,8.2293,8.2293,8.2293,8.2293,8.1825,8.0107,7.9717,7.9444,7.8585,7.7687,7.7882,8.0498,8.0263,8.081,8.4245,8.4792,8.5416,8.7134,8.8149,8.8696,0.0,0.0,9.1272,0.0,0.0,0.0,0.0,0.0,0.0,0.0,0.0,9.381,9.381,9.381,9.463,9.6386,9.6386,9.6855,9.7714,9.7714,9.7714,9.7714,9.7714,0.0,0.0,0.0,0.0,0.0,9.9002,9.9978,10.1586,10.1586,10.2086,10.2906,10.2906,10.2888,10.2914,0.0,0.0,0.0,0.0,0.0,0.0,0.0,6.254,6.3047,6.4531,6.4179,6.414,6.4999,6.5155,6.5077,6.4726,6.4219,0.0,0.0,0.0,0.0,0.0,0.0,0.0,0.0,0.0,6.6834,6.7615,6.7342,6.7654,6.8474,6.7068,6.6522,6.6756,6.5351,0.0,0.0,0.0,0.0,0.0,0.0,7.1987,7.1987,0.0,0.0,0.0,0.0,0.0,0.0,0.0,0.0,0.0,0.0,0.0,0.0,7.96,8.0771,8.1474,8.1435,8.2254,8.2996,8.245,8.2293,8.1825,8.0107,7.9717,7.9287,7.7804,7.7765,7.8429,7.9834,8.0381,8.1708,8.5143,8.569,8.651,8.8852,8.9945,9.0492,9.0492,9.096,9.1311,0.0,0.0,0.0,0.0,0.0,0.0,0.0,0.0,9.4708,9.4708,9.5254,9.584,9.6386,9.6972,9.744,9.7714,9.7714,9.7714,9.7714,9.7714,0.0,0.0,0.0,0.0,0.0,9.9624,10.021,10.0796,10.1382,10.1811,10.208,10.2679,10.2913,10.2894,0.0,0.0,0.0,0.0,0.0,0.0,0.0,6.2345,6.2462,6.3204,6.3125,6.3321,6.4179,6.4765,6.5155,6.5234,6.5234,0.0,0.0,0.0,0.0,0.0,0.0,0.0,0.0,6.6522,6.7107,6.7771,6.7771,6.8044,6.8552,6.7537,6.6951,6.6756,6.6053,6.6131,0.0,0.0,0.0,0.0,7.1792,7.1987,7.1987,0.0,0.0,0.0,0.0,0.0,0.0,0.0,0.0,0.0,0.0,0.0,0.0,0.0,8.0224,8.1356,8.1474,8.2254,8.2918,8.245,8.2059,8.1435,8.0029,7.9444,7.8897,7.7804,7.7765,7.839,7.9912,8.0381,8.1513,8.4636,8.5377,8.6275,8.8266,8.9867,9.1038,9.1663,0.0,0.0,0.0,0.0,0.0,0.0,0.0,0.0,0.0,0.0,9.5723,9.6074,9.6308,9.6542,9.6894,9.744,9.7714,9.7714,9.7714,9.7714,9.7714,0.0,0.0,0.0,0.0,0.0,0.0,10.0616,10.1009,10.1283,10.1908,10.2103,10.2181,10.2714,10.2905,10.291,0.0,0.0,0.0,0.0,0.0,0.0,0.0,6.2384,6.2618,6.1798,6.2384,6.3204,6.4023,6.4219,6.4921,6.6483,0.0,0.0,0.0,0.0,0.0,0.0,0.0,0.0,0.0,6.6873,6.7654,6.9215,6.9294,6.9294,6.9294,6.9255,6.8435,6.699,6.7654,6.7537,0.0,0.0,0.0,0.0,7.1987,7.1987,0.0,0.0,0.0,0.0,0.0,0.0,0.0,0.0,0.0,0.0,0.0,0.0,0.0,0.0,0.0,0.0,0.0,8.2098,8.2176,8.2137,8.1513,8.0693,7.9795,7.8975,0.0,7.8311,7.7726,7.796,8.0537,8.0341,8.0654,8.3347,8.4401,8.526,8.6314,8.8618,9.0765,0.0,9.178,0.0,0.0,0.0,0.0,0.0,0.0,0.0,0.0,0.0,0.0,9.7675,9.6894,9.6894,9.7675,9.7714,9.7714,9.7714,9.7714,9.7714,9.7799,0.0,0.0,0.0,0.0,0.0,0.0,10.1715,10.2187,10.289,10.289,10.289,10.289,10.289,10.289,10.289,0.0,0.0,0.0,0.0,0.0,0.0,0.0,0.0,0.0,0.0,6.1876,6.2071,6.2306,6.3516,6.4453,0.0,0.0,0.0,0.0,0.0,0.0,0.0,0.0,0.0,0.0,6.7459,6.7654,6.742,6.8083,6.8396,6.8396,6.7732,6.7888,6.8708,6.6951,6.6795,0.0,0.0,0.0,0.0,7.1987,7.1987,0.0,0.0,0.0,0.0,7.2221,7.3236,0.0,0.0,0.0,0.0,0.0,0.0,0.0,0.0,7.8507,7.9639,7.9405,0.0,8.1161,8.0498,8.0146,7.9795,0.0,7.8546,7.8194,7.7531,7.7765,7.8702,8.0654,8.081,8.1981,8.5846,8.6119,8.6783,8.9672,9.1155,9.2326,9.338,9.1624,0.0,0.0,0.0,0.0,0.0,0.0,0.0,0.0,0.0,0.0,9.7675,9.7518,9.7479,9.7714,9.7714,9.7714,9.7714,9.7714,9.804,9.8687,0.0,0.0,0.0,0.0,0.0,10.1716,10.2304,10.2695,10.289,10.289,10.289,10.289,10.289,10.289,10.289,0.0,0.0,0.0,0.0,0.0,0.0,0.0,0.0,0.0,0.0,0.0,6.1564,0.0,0.0,0.0,0.0,0.0,0.0,0.0,0.0,0.0,0.0,0.0,0.0,6.6795,6.7264,6.7459,6.7381,6.7888,6.8318,6.8669,6.781,6.7888,6.8747,6.7342,6.7693,0.0,0.0,0.0,7.1987,7.1987,0.0,0.0,0.0,0.0,0.0,7.1987,7.308,0.0,7.4486,7.5657,7.7101,0.0,0.0,0.0,0.0,7.8038,7.8897,7.8038,7.9678,8.1396,8.0498,7.999,7.9561,7.9092,7.839,7.7687,7.7218,7.7492,7.835,8.0068,8.0732,8.202,8.5104,8.5885,8.7329,9.0804,9.2326,9.3263,9.3732,0.0,0.0,0.0,0.0,0.0,0.0,0.0,0.0,0.0,0.0,0.0,0.0,9.7714,9.7714,9.7714,9.7714,9.7682,9.7701,9.8111,9.8548,9.8995,0.0,0.0,0.0,0.0,0.0,10.2187,10.2695,10.289,10.289,10.289,10.289,10.289,10.289,10.289,10.289,0.0,0.0,0.0,0.0,0.0,0.0,0.0,0.0,0.0,0.0,0.0,0.0,0.0,0.0,0.0,0.0,0.0,0.0,0.0,0.0,0.0,0.0,0.0,6.6102,6.68,6.6956,6.7303,6.7927,6.8318,6.8825,6.9372,6.8903,6.8474,6.8122,6.8513,6.9294,0.0,0.0,0.0,7.1987,7.1987,0.0,0.0,0.0,0.0,0.0,0.0,0.0,0.0,7.433,7.5462,7.6906,7.6906,0.0,0.0,0.0,0.0,0.0,7.7687,7.9951,8.2137,8.0732,7.9951,7.9483,7.9326,7.8155,7.7101,7.7101,7.7218,7.7882,7.9756,8.081,8.202,8.3972,8.5768,8.7915,9.0882,9.2639,9.3654,9.3771,0.0,0.0,0.0,0.0,0.0,0.0,0.0,0.0,0.0,0.0,0.0,0.0,9.7714,9.7714,9.7714,9.7714,9.7689,9.7715,9.8599,9.9061,9.9218,10.0113,0.0,0.0,0.0,0.0,10.289,10.289,10.289,10.289,10.289,10.289,10.289,10.289,10.289,10.289,0.0,0.0,0.0,0.0,0.0,0.0,0.0,0.0,0.0,0.0,0.0,0.0,0.0,0.0,0.0,0.0,0.0,0.0,0.0,0.0,0.0,0.0,0.0,0.0,6.6862,6.7551,6.7615,6.7068,6.9255,6.9996,6.945,7.0777,7.023,6.82,7.0426,7.0309,6.863,7.0855,0.0,7.1987,7.1987,0.0,0.0,0.0,0.0,0.0,0.0,0.0,0.0,7.3471,7.4603,7.6008,7.6008,0.0,0.0,0.0,0.0,0.0,7.9326,8.1278,8.2411,7.8624,7.8155,7.839,7.7687,7.7296,7.7101,7.7101,7.7687,7.8975,8.1435,8.2567,8.4167,8.7368,8.9359,9.0687,0.0,0.0,9.2951,0.0,0.0,0.0,0.0,0.0,0.0,0.0,0.0,0.0,0.0,0.0,0.0,0.0,0.0,9.7714,9.7714,9.7714,9.7714,9.7721,9.8585,9.9374,10.0116,10.1015,10.1914,0.0,0.0,10.2812,10.289,10.289,10.289,10.289,10.289,10.289,10.289,10.289,10.289,10.289,0.0,0.0,0.0,0.0,0.0,0.0,0.0,0.0,0.0,0.0,0.0,0.0,0.0,0.0,0.0,0.0,0.0,0.0,0.0,0.0,0.0,0.0,0.0,0.0,6.6208,6.7494,6.819,6.8261,7.037,7.1425,7.1499,7.1368,7.0152,6.8161,6.9372,6.9489,6.8903,7.0582,7.1558,7.1987,0.0,0.0,0.0,0.0,0.0,0.0,0.0,0.0,0.0,0.0,7.4408,7.5813,7.5813,0.0,0.0,0.0,0.0,0.0,7.8429,7.9834,8.0966,7.9014,7.9834,8.1044,8.0654,8.0224,7.9912,7.9912,8.0224,8.1005,8.2645,8.3621,8.5182,8.8227,9.0179,9.1467,0.0,0.0,0.0,0.0,0.0,0.0,0.0,0.0,0.0,0.0,0.0,0.0,0.0,0.0,0.0,0.0,0.0,0.0,9.7714,9.818,9.8387,9.8426,9.9296,10.0195,10.1015,10.1914,10.25,10.289,0.0,10.289,10.289,10.289,10.289,10.289,10.289,10.289,10.289,10.289,10.289,10.289,0.0,0.0,0.0,0.0,0.0,0.0,0.0,0.0,0.0,0.0,0.0,0.0,0.0,0.0,0.0,0.0,0.0,0.0,0.0,0.0,0.0,0.0,0.0,0.0,0.0,6.7695,6.8984,6.9994,7.1947,7.3236,7.3861,7.1928,7.0084,6.8405,6.8405,6.8796,6.9455,7.0348,7.1206,7.1987,0.0,0.0,0.0,0.0,0.0,0.0,0.0,0.0,0.0,0.0,0.0,0.0,0.0,0.0,0.0,7.7101,7.7726,7.8311,7.7843,7.8819,8.0068,8.0263,8.1317,8.2489,8.3074,8.245,8.1825,8.2215,8.245,8.2879,8.3933,8.5338,8.7056,8.9242,9.0726,0.0,0.0,0.0,0.0,0.0,0.0,0.0,0.0,0.0,0.0,0.0,0.0,0.0,0.0,0.0,0.0,0.0,0.0,0.0,9.8013,9.8863,9.9219,9.9023,10.0117,10.1015,10.1601,10.25,10.289,10.289,10.289,10.289,10.289,10.289,10.289,10.289,10.289,10.289,10.289,10.289,10.289,10.289,0.0,0.0,0.0,0.0,0.0,0.0,0.0,0.0,0.0,0.0,0.0,0.0,0.0,0.0,0.0,0.0,0.0,0.0,0.0,0.0,0.0,0.0,0.0,0.0,0.0,6.8867,7.0117,7.1797,7.4375,7.5664,7.5664,7.3119,7.0963,6.9322,6.9322,6.9322,6.9479,7.0319,7.1206,7.1987,7.1987,0.0,0.0,0.0,0.0,0.0,0.0,0.0,0.0,0.0,0.0,0.0,0.0,0.0,7.7101,7.7101,7.7726,7.8546,7.9326,8.0185,8.1083,8.1903,8.042,7.9405,8.1825,8.1083,8.0341,8.1981,8.2879,8.3933,8.5612,8.8618,9.1155,9.217,9.2404,0.0,0.0,0.0,0.0,0.0,0.0,0.0,0.0,0.0,0.0,0.0,0.0,0.0,0.0,0.0,0.0,0.0,0.0,0.0,9.8906,9.9765,9.9804,9.9023,10.0703,10.1484,10.1601,10.25,10.289,10.289,10.289,10.289,10.289,10.289,10.289,10.289,10.289,10.289,10.289,10.289,10.289,10.289,0.0,0.0,0.0,0.0,0.0,0.0,0.0,0.0,0.0,0.0,0.0,0.0,0.0,0.0,0.0,0.0,0.0,0.0,0.0,0.0,0.0,0.0,0.0,6.7578,6.9726,7.0586,7.2148,7.4414,7.5976,7.6133,7.5039,7.2421,7.0272,6.8631,6.8084,6.8162,6.8709,6.9527,7.038,7.1225,7.1797,7.1987,0.0,0.0,0.0,0.0,0.0,0.0,0.0,0.0,7.3393,7.4564,7.4954,7.6008,7.7101,7.7101,7.7335,7.7648,7.7999,7.9131,8.0381,8.1278,8.1167,8.1362,8.3386,8.3777,8.4167,8.5924,8.608,8.6275,8.7486,8.8774,9.014,9.1546,9.1799,0.0,0.0,0.0,0.0,0.0,0.0,0.0,0.0,0.0,0.0,0.0,0.0,0.0,0.0,0.0,0.0,0.0,0.0,0.0,0.0,10.039,10.0898,10.0586,10.1289,10.1914,10.2383,10.2695,10.289,10.289,10.289,10.289,10.289,10.289,10.289,10.289,10.289,10.289,10.289,10.289,10.289,10.289,0.0,0.0,0.0,0.0,0.0,0.0,0.0,0.0,0.0,0.0,0.0,0.0,0.0,0.0,0.0,0.0,0.0,0.0,0.0,6.6015,6.6523,0.0,0.0,6.7344,7.0234,7.1406,7.3281,7.5898,7.6484,7.5898,7.414,7.1523,6.9844,6.8945,6.7539,6.7695,6.9023,6.9297,6.9921,7.0775,7.1662,7.2006,0.0,0.0,0.0,0.0,0.0,0.0,0.0,0.0,7.3158,7.4212,7.4837,7.5819,7.6766,7.7039,7.7664,7.8289,7.8015,7.8991,8.0319,8.1178,8.1647,8.2428,8.438,8.5306,8.6197,8.7915,8.8266,8.8383,8.9008,8.9555,0.0,0.0,0.0,0.0,0.0,0.0,0.0,0.0,0.0,0.0,0.0,0.0,0.0,0.0,0.0,0.0,0.0,0.0,0.0,0.0,0.0,0.0,0.0,10.1094,10.1992,10.1992,10.1992,10.2304,10.289,10.289,10.289,10.289,10.289,10.289,10.289,10.289,10.289,10.289,10.289,10.289,10.289,10.289,10.289,10.289,0.0,0.0,0.0,0.0,0.0,0.0,0.0,0.0,0.0,0.0,0.0,0.0,0.0,0.0,0.0,0.0,0.0,0.0,6.6875,6.6875,6.6875,6.6914,6.6875,6.7656,6.9375,7.1094,7.3281,7.5898,7.5898,7.5,7.3203,7.0703,6.9922,7.0547,0.0,6.832,7.0625,6.9844,6.9961,7.0781,7.164,7.203,7.2017,0.0,0.0,0.0,0.0,0.0,0.0,0.0,7.3275,7.3588,7.5345,7.5911,7.6082,7.6863,7.8936,8.0772,7.9912,8.0342,8.1201,8.2061,8.167,8.1748,8.4326,8.4936,8.5416,8.7095,8.8813,8.9984,9.0023,9.1428,0.0,0.0,0.0,0.0,0.0,0.0,0.0,0.0,0.0,0.0,0.0,0.0,0.0,0.0,0.0,0.0,0.0,0.0,0.0,0.0,0.0,0.0,0.0,10.1992,10.289,10.289,10.289,10.289,10.289,10.289,10.289,10.289,10.289,10.289,10.289,10.289,10.289,10.289,10.289,10.289,10.289,10.289,10.289,10.289,0.0,0.0,0.0,0.0,0.0,0.0,0.0,0.0,0.0,0.0,0.0,0.0,0.0,0.0,0.0,0.0,0.0,0.0,6.5976,6.539,6.6172,6.8633,6.6367,6.6719,7.0234,7.082,7.2383,7.5,7.5,7.3476,7.0547,7.039,6.9531,6.8086,0.0,0.0,6.8984,6.9922,7.0469,7.082,7.2305,7.2539,7.2069,0.0,0.0,0.0,0.0,0.0,0.0,0.0,0.0,0.0,7.4608,7.5819,7.6848,7.7105,7.8163,7.9062,7.8163,7.9882,8.1834,8.1477,8.3506,8.5615,8.5771,8.6233,8.7167,8.8885,8.9627,9.0174,9.0798,9.133,0.0,0.0,0.0,0.0,0.0,0.0,0.0,0.0,0.0,0.0,0.0,0.0,0.0,0.0,0.0,0.0,0.0,0.0,0.0,0.0,0.0,0.0,0.0,0.0,10.289,10.289,10.289,10.289,10.289,10.289,10.289,10.289,10.289,10.289,10.289,10.289,10.289,10.289,10.289,10.289,10.289,10.289,10.289,10.289,0.0,0.0,0.0,0.0,0.0,0.0,0.0,0.0,6.6328,6.6133,6.6289,6.6523,0.0,0.0,0.0,6.6133,6.6445,0.0,6.6133,6.4961,6.5547,6.8359,6.5781,6.6015,6.9648,7.0703,7.164,7.2539,7.289,7.164,6.8945,7.0156,7.0078,6.8984,0.0,7.0859,7.0273,7.0937,7.1211,7.1328,7.2734,7.3008,7.2578,0.0,0.0,0.0,0.0,0.0,0.0,0.0,0.0,0.0,7.3817,7.4787,7.6001,7.7694,7.9297,8.0547,8.0742,8.2539,8.4257,8.3708,8.5036,8.6676,8.7536,8.7809,8.8317,8.9721,9.0268,9.0698,9.1205,9.1591,0.0,0.0,0.0,0.0,0.0,0.0,0.0,0.0,0.0,0.0,0.0,0.0,0.0,0.0,0.0,0.0,0.0,0.0,0.0,0.0,0.0,0.0,0.0,0.0,0.0,10.289,10.289,10.289,10.289,10.289,10.289,10.289,10.289,10.289,10.289,10.289,10.289,10.289,10.289,10.289,10.289,10.289,10.289,10.289,0.0,0.0,0.0,0.0,0.0,0.0,0.0,6.6133,6.5937,6.6562,6.6094,6.5976,0.0,0.0,0.0,6.6758,6.7383,6.75,6.6719,6.5195,6.5078,6.6836,6.5469,6.5742,6.8047,7.043,7.0859,6.918,7.0195,6.9883,6.8359,7.0039,7.1211,7.1875,0.0,7.2539,7.3008,7.2226,7.1875,7.1953,7.2812,7.3164,7.3203,7.3281,0.0,0.0,0.0,0.0,0.0,0.0,0.0,0.0,7.3125,7.3437,7.4219,7.8281,8.1328,8.3672,8.5195,8.6484,8.7344,8.7265,8.625,8.6094,8.9375,8.9492,8.9179,9.0078,0.0,9.1328,9.1406,0.0,0.0,0.0,0.0,0.0,0.0,0.0,0.0,0.0,0.0,0.0,0.0,0.0,0.0,0.0,0.0,0.0,0.0,0.0,0.0,0.0,0.0,0.0,0.0,0.0,10.289,0.0,10.289,10.289,10.289,10.289,10.289,10.289,10.289,10.289,10.289,10.289,10.289,10.289,10.289,10.289,10.289,10.289,10.289,10.289,0.0,0.0,0.0,0.0,0.0,0.0,6.5039,6.5859,6.6211,6.5,6.5898,6.6172,6.5,6.5625,0.0,6.4922,6.5039,6.5078,6.4883,6.4492,6.5078,6.6836,6.7187,6.7305,6.7187,6.8398,6.8515,6.7422,6.9648,7.0195,6.9258,0.0,0.0,7.1055,0.0,7.3008,7.125,7.1055,7.0976,7.1055,7.1914,7.2265,7.2344,7.3047,7.2773,0.0,0.0,0.0,0.0,0.0,0.0,0.0,7.3828,7.4336,7.4765,7.707,7.9531,8.1484,8.1172,8.3711,8.6328,8.5625,8.6679,8.8437,9.0547,9.0898,9.0976,9.1875,9.164,0.0,0.0,0.0,0.0,0.0,0.0,0.0,0.0,0.0,0.0,0.0,0.0,0.0,0.0,0.0,0.0,0.0,0.0,0.0,0.0,0.0,0.0,0.0,0.0,0.0,10.2617,10.2812,10.289,0.0,10.289,10.289,10.289,10.289,10.289,10.289,10.289,10.289,10.289,10.289,10.289,10.289,10.289,10.289,10.289,10.289,10.289,10.289,0.0,0.0,0.0,0.0,0.0,0.0,0.0,0.0,6.6289,6.4531,6.5469,6.5781,6.4453,6.582,0.0,0.0,6.5312,6.5351,6.4961,6.4531,6.4883,6.6211,6.75,6.8008,6.7539,6.8359,6.8555,6.8086,6.9023,6.9297,0.0,0.0,0.0,7.082,0.0,7.3164,7.0742,7.1601,7.1719,7.1406,7.2265,7.2383,7.2031,7.25,7.2148,7.1367,7.1367,0.0,0.0,0.0,0.0,0.0,0.0,0.0,7.5117,7.7656,7.9648,8.1289,8.2461,8.4765,8.6797,8.6758,8.8359,9.0195,9.1094,9.1601,9.2031,9.25,9.2226,0.0,0.0,0.0,0.0,0.0,0.0,0.0,0.0,0.0,0.0,0.0,0.0,0.0,0.0,0.0,0.0,0.0,0.0,0.0,0.0,0.0,0.0,0.0,0.0,0.0,10.289,10.289,10.289,10.289,10.289,10.289,10.289,10.289,10.289,10.289,10.289,10.289,10.289,10.289,10.289,10.289,10.289,10.289,10.289,10.289,10.289,10.289,0.0,0.0,0.0,0.0,0.0,0.0,0.0,0.0,0.0,6.4726,6.5156,6.5195,6.418,6.6015,6.664,0.0,0.0,0.0,6.5195,6.4765,6.4922,6.5781,6.7344,6.8203,6.8203,6.8984,6.9258,6.8984,6.8437,6.8281,0.0,0.0,0.0,7.125,0.0,0.0,0.0,0.0,0.0,7.1406,7.2148,7.207,7.1562,7.1562,7.1211,7.0703,7.0703,7.125,7.1992,7.1992,0.0,0.0,0.0,0.0,7.5039,7.8476,8.0195,8.164,8.4531,8.6289,8.7539,8.8633,9.0117,9.1328,9.1484,9.207,9.2617,9.2617,0.0,0.0,0.0,0.0,0.0,0.0,0.0,0.0,0.0,0.0,0.0,0.0,0.0,0.0,0.0,0.0,0.0,0.0,0.0,0.0,0.0,0.0,0.0,0.0,0.0,10.289,10.289,10.289,10.289,10.289,10.289,10.289,10.289,10.289,10.289,10.289,10.289,10.289,10.289,10.289,10.289,10.289,10.289,10.289,10.289,10.289,10.289,10.289,0.0,0.0,0.0,0.0,0.0,0.0,0.0,0.0,0.0,0.0,6.5547,6.4961,6.3359,6.3476,6.3281,6.2305,6.3008,6.3476,6.3359,0.0,0.0,6.668,6.7656,6.8203,6.8203,6.8984,6.8672,6.7226,6.789,0.0,0.0,0.0,0.0,7.2969,0.0,0.0,0.0,0.0,0.0,0.0,6.8828,6.9219,6.9765,6.9765,7.0156,7.0703,7.0703,7.125,7.1992,7.1992,7.207,0.0,0.0,0.0,7.414,7.7656,7.9765,8.1094,8.1562,8.3984,8.6914,8.9258,9.0586,9.1484,9.2265,9.2539,9.2617,0.0,0.0,0.0,0.0,0.0,0.0,0.0,0.0,0.0,0.0,0.0,0.0,0.0,0.0,0.0,0.0,0.0,0.0,0.0,0.0,0.0,0.0,0.0,10.1992,10.289,10.289,10.289,10.289,10.289,10.289,10.289,10.289,10.289,10.289,10.289,10.289,10.289,10.289,10.289,10.289,10.289,10.289,10.289,10.289,10.289,10.289,10.289,10.289,10.289,0.0,0.0,0.0,0.0,0.0,0.0,0.0,0.0,0.0,0.0,0.0,6.4922,6.3203,6.3867,6.3906,6.2539,6.2773,6.3008,6.3008,6.3711,6.4961,6.6836,6.7265,6.7695,6.8203,6.8086,6.7656,6.6914,6.6797,0.0,0.0,7.0547,7.1094,0.0,0.0,0.0,0.0,0.0,0.0,0.0,6.8672,6.9961,7.1445,6.9961,7.0859,7.2695,7.1211,7.125,7.1992,7.1992,7.2656,7.3594,7.4375,0.0,0.0,0.0,7.8945,8.0781,8.3242,8.539,8.7539,9.0078,9.1367,9.2148,9.25,9.2617,9.2617,0.0,0.0,0.0,0.0,0.0,0.0,0.0,0.0,0.0,0.0,0.0,0.0,0.0,0.0,0.0,0.0,0.0,0.0,0.0,0.0,0.0,0.0,10.2109,10.25,10.289,10.289,0.0,10.289,10.289,10.289,10.289,10.289,10.289,10.289,10.289,10.289,10.289,10.289,10.289,10.289,10.289,10.289,10.289,10.289,10.289,10.289,10.289,10.289,10.289,0.0,0.0,0.0,0.0,0.0,0.0,0.0,0.0,0.0,0.0,0.0,6.4844,6.3789,0.0,0.0,0.0,6.3008,6.3008,6.3008,6.3203,6.4219,6.6133,6.6875,6.7422,6.7851,6.7656,6.7344,6.6914,0.0,0.0,7.0703,7.0937,7.1289,0.0,7.1445,0.0,0.0,0.0,0.0,0.0,6.9883,7.1562,7.3203,7.2344,7.3789,7.5859,7.3047,0.0,0.0,0.0,0.0,7.4336,7.4805,7.582,0.0,0.0,0.0,8.0508,8.4219,8.6015,8.7383,8.9765,9.1328,9.2344,9.2539,9.2617,9.2656,0.0,0.0,0.0,0.0,0.0,0.0,0.0,0.0,0.0,0.0,0.0,0.0,0.0,0.0,0.0,0.0,0.0,0.0,0.0,0.0,0.0,10.1914,10.25,10.289,10.289,10.289,10.289,10.289,10.289,10.289,10.289,10.289,10.289,10.289,10.289,10.289,10.289,10.289,10.289,10.289,10.289,10.289,10.289,10.289,10.289,10.289,10.289,10.289,10.289,0.0,0.0,0.0,0.0,0.0,0.0,0.0,0.0,0.0,0.0,0.0,6.4648,6.539,6.4062,6.3086,6.3008,6.3008,6.3008,6.3008,6.3789,6.4297,6.4414,6.6797,0.0,6.6992,6.8476,6.8476,6.6914,0.0,0.0,7.0703,7.1562,7.2812,7.4375,7.3515,7.2656,7.1719,0.0,0.0,0.0,0.0,7.3164,7.3711,7.7656,7.9805,8.0234,0.0,0.0,0.0,0.0,0.0,0.0,0.0,7.5898,7.6289,0.0,0.0,0.0,8.1992,8.375,8.5469,8.7265,8.9531,9.1562,9.2422,0.0,0.0,0.0,0.0,0.0,0.0,0.0,0.0,0.0,0.0,0.0,0.0,0.0,0.0,0.0,0.0,0.0,0.0,0.0,0.0,0.0,0.0,0.0,10.2695,10.289,10.289,10.289,10.289,10.289,10.289,10.289,10.289,10.289,10.289,10.289,10.289,10.289,10.289,10.289,10.289,10.289,10.289,10.289,10.289,10.289,10.289,10.289,10.289,10.289,10.289,10.289,0.0,0.0,0.0,0.0,0.0,0.0,0.0,0.0,0.0,0.0,0.0,0.0,0.0,6.4219,6.3594,6.3047,6.3008,6.2773,6.2187,6.2461,0.0,6.5078,6.6562,6.7461,6.7734,6.832,6.8047,0.0,0.0,6.7969,7.0703,7.1015,7.2383,7.4492,7.2539,7.1758,7.1836,6.9609,0.0,0.0,0.0,0.0,7.7656,7.9726,0.0,0.0,0.0,0.0,0.0,0.0,0.0,0.0,0.0,0.0,0.0,7.8164,7.8711,7.9531,8.2383,8.3984,8.5312,8.707,8.9414,9.125,9.0976,9.2226,0.0,0.0,0.0,0.0,0.0,0.0,0.0,0.0,0.0,0.0,0.0,0.0,0.0,0.0,0.0,0.0,0.0,0.0,0.0,0.0,0.0,0.0,10.2812,10.289,10.289,10.289,10.289,10.289,10.289,10.289,10.289,10.289,10.289,10.289,10.289,10.289,10.289,10.289,10.289,10.289,10.289,10.289,10.289,10.289,10.289,10.289,10.289,10.289,10.289,10.289,0.0,0.0,0.0,0.0,0.0,0.0,0.0,0.0,0.0,0.0,0.0,0.0,0.0,0.0,6.4375,6.3515,6.3437,6.3086,6.2187,6.2422,6.3359,6.5078,6.6562,6.7617,6.8203,6.875,0.0,0.0,0.0,0.0,0.0,7.0586,7.1953,7.4062,7.1445,7.125,0.0,0.0,0.0,7.0703,0.0,0.0,7.9219,0.0,0.0,0.0,0.0,0.0,0.0,0.0,0.0,0.0,0.0,0.0,0.0,7.8242,7.8672,7.9414,8.1679,8.3359,8.4883,8.664,8.8359,8.9883,9.1054,9.2187,0.0,0.0,0.0,0.0,0.0,0.0,0.0,0.0,0.0,0.0,0.0,0.0,0.0,0.0,0.0,0.0,0.0,0.0,0.0,0.0,0.0,0.0,10.2812,10.289,10.289,10.289,10.289,10.289,10.289,10.289,10.289,10.289,10.289,10.289,10.289,10.289,10.289,10.289,10.289,10.289,10.289,10.289,10.289,10.289,10.289,10.289,10.289,10.289,10.3086,10.3281,0.0,0.0,0.0,0.0,0.0,0.0,0.0,0.0,0.0,0.0,0.0,0.0,0.0,0.0,0.0,6.4375,6.4336,6.3984,6.3086,6.3828,6.4297,6.4336,6.6836,0.0,0.0,0.0,0.0,0.0,0.0,0.0,0.0,0.0,7.1562,7.3125,7.0586,7.1367,7.4336,0.0,7.1211,7.2461,0.0,7.8711,7.8164,0.0,0.0,0.0,8.3828,8.3242,0.0,0.0,0.0,0.0,0.0,0.0,0.0,0.0,7.9023,7.9687,0.0,0.0,0.0,8.5664,8.6172,8.7539,9.2539,0.0,0.0,0.0,0.0,0.0,0.0,0.0,0.0,0.0,0.0,0.0,0.0,0.0,0.0,0.0,0.0,0.0,0.0,0.0,0.0,0.0,0.0,10.1094,10.2812,10.289,10.289,10.289,10.289,10.289,10.289,10.289,10.289,10.289,10.289,10.289,10.289,10.289,10.289,10.289,10.289,10.289,10.289,10.289,10.289,10.289,10.289,10.289,10.289,10.3008,10.3515,10.4101,0.0,0.0,0.0,0.0,0.0,6.793,6.8164,6.7578,6.7148,0.0,0.0,0.0,0.0,0.0,0.0,6.4414,6.4883,6.4883,6.3984,6.418,6.457,6.5195,6.7148,6.8476,6.9062,7.0156,0.0,0.0,6.875,6.8555,6.8555,6.8789,6.9805,0.0,7.1328,7.1836,7.2578,7.0664,0.0,0.0,7.6562,7.9101,0.0,0.0,0.0,0.0,0.0,8.7812,0.0,0.0,8.5312,8.1328,0.0,0.0,7.7265,7.75,7.8164,7.8945,7.9531,0.0,0.0,0.0,0.0,0.0,0.0,0.0,0.0,0.0,0.0,0.0,0.0,0.0,0.0,0.0,0.0,0.0,0.0,0.0,0.0,0.0,0.0,0.0,0.0,0.0,0.0,0.0,10.1211,10.1719,10.2812,10.289,10.289,10.289,10.289,10.289,10.289,10.289,10.289,10.289,10.289,10.289,10.289,10.289,10.289,10.289,10.289,10.289,10.289,10.289,10.289,10.3008,10.3594,10.3789,10.3906,10.4492,10.4492,10.4219,0.0,0.0,7.0976,7.0078,6.9531,6.9258,6.9258,6.8945,6.8633,0.0,0.0,0.0,0.0,0.0,0.0,0.0,6.6719,6.6562,6.4961,6.5508,6.6133,6.664,6.8008,6.9297,7.0469,7.0976,7.082,7.0,6.914,6.8711,6.8672,6.8359,6.8906,7.0195,7.0351,7.0781,7.1367,0.0,0.0,0.0,7.7148,0.0,0.0,8.4598,8.6362,0.0,0.0,0.0,8.6836,9.0,8.7812,0.0,0.0,0.0,0.0,0.0,0.0,7.957,7.9687,8.0976,8.2578,8.3633,0.0,0.0,0.0,0.0,0.0,0.0,0.0,0.0,0.0,0.0,0.0,0.0,0.0,0.0,0.0,0.0,0.0,0.0,0.0,0.0,0.0,0.0,0.0,0.0,10.1601,10.1992,10.289,10.289,10.289,10.289,10.289,10.289,10.289,10.289,10.289,10.289,10.289,10.289,10.289,10.289,10.289,10.289,10.289,10.3086,10.3398,10.3398,10.3398,10.3515,10.3984,10.4414,10.4804,10.5312,10.5195,10.4687,0.0,0.0,7.1797,7.1094,7.0898,7.0898,7.0976,7.0234,6.9961,0.0,0.0,0.0,0.0,0.0,0.0,0.0,6.9023,6.8398,6.6172,6.7383,6.8203,6.8203,6.9101,7.0234,7.1562,7.1875,7.1523,7.0547,6.9883,0.0,0.0,0.0,6.8711,6.9336,6.8633,6.914,7.0547,7.0072,0.0,7.3036,7.8308,7.9409,0.0,0.0,8.4673,0.0,8.5604,8.6012,8.6133,9.0742,9.0429,0.0,0.0,0.0,0.0,0.0,7.9219,8.1094,8.0234,8.1172,8.3047,8.5469,0.0,0.0,0.0,0.0,0.0,0.0,0.0,0.0,0.0,0.0,0.0,0.0,0.0,0.0,0.0,0.0,0.0,0.0,0.0,0.0,0.0,0.0,0.0,10.1719,10.1719,10.2109,10.289,10.289,10.289,10.289,10.289,10.289,10.289,10.289,10.289,10.289,10.289,10.289,10.289,10.289,10.3008,10.3008,10.3008,10.3515,10.4297,10.4297,10.4297,10.4414,10.4414,10.5,10.5586,10.5703,10.5703,10.5508,7.1914,7.1992,7.2187,7.2695,7.2226,7.1992,7.2695,7.2031,7.1562,7.1719,0.0,0.0,0.0,0.0,0.0,0.0,0.0,6.8515,6.8633,6.8359,6.8203,6.8203,6.9648,7.0,6.8945,7.0937,7.1211,6.9648,7.0195,7.0078,0.0,0.0,0.0,0.0,6.8945,6.9375,6.9843,0.0,0.0,7.6225,7.6591,0.0,8.2378,8.4243,8.6389,8.8532,8.9019,8.9573,9.0078,0.0,9.1015,9.0586,0.0,0.0,0.0,0.0,0.0,0.0,0.0,0.0,0.0,0.0,0.0,0.0,0.0,0.0,0.0,0.0,0.0,0.0,0.0,0.0,0.0,0.0,0.0,0.0,0.0,0.0,0.0,0.0,0.0,0.0,0.0,0.0,10.25,10.2617,10.2617,10.2695,10.289,10.289,10.289,10.289,10.289,10.289,10.289,10.289,10.289,10.289,10.289,10.289,10.289,10.289,10.3281,10.3906,10.3906,10.4414,10.5195,10.5195,10.5195,10.5312,10.6015,10.6289,10.6601,10.7304,10.7109,10.6406,7.1992,7.2344,7.2773,7.3203,7.3281,7.3437,7.3867,7.3594,7.3437,0.0,0.0,0.0,0.0,0.0,0.0,0.0,0.0,0.0,6.9492,6.9453,6.9453,6.9453,7.0234,7.0508,7.0117,7.1367,7.1562,7.0703,7.0703,7.0469,0.0,0.0,0.0,0.0,7.0224,7.0726,7.1922,0.0,7.3239,7.5817,7.8501,0.0,8.4961,8.6612,8.8574,9.04,9.0004,9.1046,9.2539,9.2109,9.164,0.0,0.0,8.7187,8.6094,0.0,8.3164,8.5078,0.0,0.0,0.0,8.5859,0.0,0.0,0.0,0.0,0.0,0.0,0.0,0.0,0.0,0.0,0.0,0.0,0.0,0.0,0.0,0.0,0.0,0.0,0.0,0.0,0.0,0.0,10.289,10.289,10.289,10.289,10.289,10.289,10.289,10.289,10.289,10.289,10.289,10.289,10.289,10.289,10.289,10.3086,10.3515,10.3515,10.3984,10.4804,10.4804,10.5312,10.6093,10.6093,10.6406,10.6719,10.6719,10.6992,10.7383,10.7812,10.7383,10.6601,7.1913,7.2695,7.3359,7.3515,7.4414,7.5117,7.5117,7.5234,7.5586,0.0,0.0,0.0,0.0,0.0,0.0,0.0,0.0,0.0,0.0,7.1094,7.1445,7.1445,7.1133,7.1367,7.2226,7.2109,7.1914,7.1758,7.1211,7.0859,7.0703,7.0859,0.0,0.0,0.0,0.0,0.0,0.0,0.0,7.6204,0.0,8.3885,8.5405,8.8162,8.9713,9.0415,9.028,9.1704,9.3594,9.3437,0.0,9.0781,9.1054,8.9765,0.0,0.0,0.0,0.0,0.0,0.0,0.0,0.0,0.0,8.7773,0.0,0.0,0.0,0.0,0.0,0.0,0.0,0.0,0.0,0.0,0.0,0.0,0.0,0.0,0.0,0.0,0.0,0.0,0.0,0.0,10.2812,10.3086,10.3008,10.3008,10.3086,10.3281,10.3203,10.289,10.3086,10.3086,10.289,10.289,10.289,10.289,10.3086,10.3515,10.4219,10.4414,10.4804,10.5508,10.5703,10.6093,10.6719,10.6914,10.7383,10.789,10.7187,10.7383,10.8008,10.8008,10.7617,10.6914,7.1788,7.2617,7.3555,7.4336,7.582,7.6914,7.6914,7.7578,7.8086,0.0,0.0,0.0,0.0,0.0,0.0,0.0,0.0,0.0,7.414,0.0,7.414,7.414,7.2695,7.2265,7.3125,7.2383,7.1601,7.0859,7.1523,7.1445,7.0703,7.1484,7.1104,6.9943,7.3633,0.0,0.0,0.0,7.7711,0.0,8.1954,8.1575,0.0,8.5598,8.7728,8.8871,9.1062,9.2139,9.2461,0.0,9.2344,9.2578,0.0,9.0156,9.3789,0.0,0.0,0.0,0.0,0.0,0.0,0.0,8.9648,0.0,0.0,0.0,0.0,0.0,0.0,0.0,0.0,0.0,0.0,0.0,0.0,0.0,0.0,0.0,0.0,0.0,0.0,0.0,0.0,0.0,0.0,10.3906,10.3281,10.3203,10.3984,10.4804,10.4492,10.289,10.3594,10.3711,10.289,10.289,10.289,10.289,10.3711,10.4101,10.4219,10.5,10.539,10.5508,10.6289,10.6601,10.6797,10.75,10.789,10.8008,10.789,10.789,10.8008,10.8008,10.789,10.7812,7.1708,7.293,7.3906,7.375,7.5664,7.7187,7.7187,7.918,8.0351,0.0,0.0,0.0,0.0,0.0,0.0,0.0,0.0,0.0,0.0,0.0,7.5664,7.4648,7.3398,7.293,7.3281,7.2461,7.1836,7.1445,7.1328,7.1055,7.0703,7.1018,7.1847,7.3109,7.5393,0.0,7.7589,0.0,0.0,0.0,0.0,0.0,0.0,8.7459,9.0469,9.1517,9.3542,9.4368,9.4528,0.0,9.3293,0.0,0.0,0.0,0.0,0.0,0.0,0.0,0.0,0.0,0.0,0.0,0.0,0.0,8.8554,0.0,8.8242,0.0,0.0,0.0,0.0,0.0,0.0,0.0,0.0,0.0,0.0,0.0,0.0,0.0,0.0,0.0,0.0,0.0,0.0,0.0,0.0,10.3515,10.4883,10.5312,10.4883,10.3711,10.3984,10.3789,10.289,10.289,10.289,10.289,10.3789,10.4219,10.4219,10.5117,10.5781,10.6211,10.6601,10.6992,10.75,10.7812,10.8008,10.8008,10.8008,10.8008,10.8008,10.8008,10.8008,10.789,7.162,7.2918,7.3915,7.3515,7.5508,7.7305,7.7812,7.9609,0.0,0.0,0.0,0.0,8.1719,8.1133,0.0,0.0,0.0,8.0576,0.0,0.0,7.7811,0.0,0.0,0.0,0.0,7.3189,7.2134,7.19,7.1275,7.0963,7.096,7.0926,7.2326,7.4982,0.0,7.8851,8.1019,0.0,0.0,8.1058,8.1954,8.3012,8.4598,8.9669,9.2468,9.3804,9.5226,9.5806,9.5941,9.6115,9.3925,0.0,9.4465,0.0,0.0,0.0,0.0,0.0,9.0469,0.0,0.0,0.0,0.0,0.0,0.0,0.0,0.0,0.0,0.0,0.0,0.0,0.0,0.0,0.0,0.0,9.1992,0.0,0.0,0.0,0.0,0.0,0.0,0.0,0.0,0.0,0.0,0.0,0.0,10.5703,10.6093,10.5703,10.4609,10.4804,10.4414,10.3281,10.3281,10.3086,10.289,10.3789,10.4297,10.4609,10.539,10.6093,10.6719,10.6992,10.7304,10.7695,10.789,10.8008,10.8008,10.8008,10.8008,10.8008,10.8008,10.8008,10.789,7.1489,7.2323,7.3307,7.421,7.582,7.7617,7.9336,0.0,0.0,0.0,0.0,0.0,0.0,0.0,0.0,0.0,0.0,8.466,8.1922,0.0,8.1348,0.0,0.0,0.0,0.0,0.0,7.249,7.1711,7.1672,7.1661,7.1689,7.1689,7.2112,7.3064,7.7403,7.9221,7.9299,8.265,8.5939,8.8776,8.7963,9.0091,9.3495,0.0,9.1986,9.4269,9.5197,0.0,0.0,9.3882,9.3882,0.0,0.0,0.0,0.0,0.0,0.0,0.0,0.0,0.0,0.0,9.0859,0.0,0.0,0.0,0.0,8.8437,0.0,0.0,0.0,0.0,9.2617,9.2969,9.0469,9.0781,0.0,0.0,0.0,0.0,0.0,0.0,0.0,0.0,0.0,0.0,0.0,0.0,0.0,10.6484,10.75,10.7187,10.5508,10.6211,10.5781,10.4219,10.4219,10.3711,10.289,10.3789,10.4609,10.5508,10.6289,10.6719,10.6719,10.7617,10.75,10.6797,10.7695,10.8008,10.8008,10.8008,10.8008,10.8008,10.8008,10.8008,10.8008,7.2203,7.296,7.3393,7.2788,7.4669,7.6875,0.0,7.9375,0.0,0.0,0.0,0.0,0.0,0.0,8.5325,0.0,0.0,8.5772,8.3746,8.23,0.0,0.0,0.0,7.6444,0.0,0.0,7.3043,7.3374,7.223,7.2269,7.3355,7.2734,7.316,7.4595,7.7814,8.0779,0.0,0.0,0.0,0.0,0.0,9.1406,9.4153,0.0,0.0,9.5236,9.6706,9.7247,0.0,9.7217,9.6405,9.5468,9.601,9.5755,9.5301,9.5849,9.687,0.0,0.0,0.0,9.6596,9.3238,0.0,0.0,0.0,0.0,0.0,0.0,0.0,0.0,0.0,9.3515,9.3437,9.1953,9.1484,9.039,0.0,0.0,0.0,0.0,0.0,0.0,0.0,0.0,0.0,0.0,0.0,0.0,0.0,10.75,10.7187,10.5586,10.6289,10.5898,10.4219,10.4219,10.3789,10.289,10.3789,10.4414,10.4687,10.5508,10.6211,10.6719,10.6992,10.7304,10.7617,10.789,10.8008,10.8008,10.8008,10.8008,10.8008,10.8008,10.8008,10.8008,7.3148,7.3557,7.378,7.3192,7.5182,0.0,0.0,0.0,0.0,0.0,8.2851,0.0,8.573,0.0,8.648,0.0,8.7654,8.7112,8.5345,8.4224,0.0,8.4378,8.0671,0.0,0.0,0.0,0.0,7.543,7.3474,7.3319,7.4966,7.3744,7.4092,7.5779,7.745,8.0779,8.5101,0.0,8.8416,0.0,0.0,9.365,0.0,0.0,9.5584,0.0,0.0,9.8524,9.864,9.9491,9.8756,9.7681,9.9065,9.8068,9.6735,9.8108,9.8546,9.843,9.7553,9.8158,0.0,9.5212,9.4224,0.0,8.9569,0.0,0.0,0.0,0.0,0.0,0.0,9.5,9.4453,9.3242,9.207,9.0312,0.0,8.6836,0.0,0.0,0.0,0.0,0.0,0.0,0.0,0.0,0.0,0.0,0.0,0.0,10.75,10.6406,10.6914,10.6406,10.4687,10.4687,10.4101,10.289,10.3789,10.4414,10.4687,10.5508,10.6406,10.7187,10.7187,10.75,10.8008,10.8008,10.8008,10.8008,10.8008,10.8008,10.8008,10.8008,10.8008,10.8008,7.4208,0.0,0.0,0.0,7.7148,0.0,0.0,0.0,8.1053,0.0,8.2811,8.399,8.5706,8.661,8.7383,8.8091,8.8931,0.0,8.6842,8.6776,0.0,0.0,8.5113,8.4572,8.541,0.0,0.0,0.0,7.5237,7.4811,7.6359,7.4811,7.4928,7.6475,7.6514,0.0,8.4443,8.688,9.0865,9.5623,9.6474,9.6744,9.6706,9.6822,0.0,9.4694,9.8098,9.9336,9.9491,10.038,10.069,10.0496,9.9684,9.9568,9.9878,10.069,10.0999,10.0999,10.0117,9.9924,9.9274,9.6808,0.0,0.0,0.0,0.0,9.2261,0.0,0.0,0.0,0.0,0.0,9.5859,9.4062,9.2304,9.0078,8.6914,0.0,0.0,0.0,0.0,0.0,0.0,0.0,0.0,0.0,0.0,10.2695,0.0,0.0,10.789,10.789,10.8008,10.7187,10.5586,10.5508,10.4687,10.3008,10.3789,10.4687,10.5586,10.6406,10.7187,10.8008,10.8008,10.8008,10.8008,10.8008,10.8008,10.8008,10.8008,10.8008,10.8008,10.8008,10.8008,10.8008,7.4788,7.5933,7.6992,0.0,7.6716,7.7109,0.0,0.0,0.0,0.0,8.4825,8.5812,8.8171,8.8571,8.8725,8.8903,8.9135,0.0,0.0,0.0,0.0,8.9356,8.6029,8.5101,8.719,8.1813,0.0,7.9569,0.0,7.5353,7.6397,7.663,7.6939,7.7403,7.8022,8.1542,8.6958,8.7615,9.1213,9.6474,9.6706,9.6009,0.0,0.0,9.6667,9.5545,9.833,9.9723,10.038,10.1309,10.158,10.1502,10.1309,10.1309,10.1386,10.158,10.1696,10.1618,10.1425,10.1425,10.0891,9.912,9.8003,9.6747,0.0,0.0,0.0,0.0,0.0,0.0,0.0,0.0,0.0,9.2187,9.0429,8.9492,0.0,0.0,0.0,9.1054,0.0,0.0,0.0,0.0,0.0,0.0,0.0,0.0,0.0,0.0,0.0,10.6992,10.7695,10.75,10.6406,10.5781,10.5312,10.4804,10.4414,10.5,10.6406,10.6601,10.7187,10.8008,10.8008,10.8008,10.8008,10.8008,10.8008,10.8008,10.8008,10.8008,10.8008,10.8008,10.8008,10.8008,7.6103,0.0,0.0,7.9903,0.0,0.0,8.1343,0.0,0.0,8.5693,8.6351,0.0,8.8582,8.9317,8.9704,8.9715,9.0063,0.0,0.0,0.0,0.0,8.982,8.866,8.866,9.0091,8.6107,0.0,8.2432,0.0,0.0,7.7558,7.8022,7.8061,7.7751,7.8602,8.1271,8.5333,8.8643,9.22,9.5718,9.6808,0.0,0.0,9.782,9.8129,9.7781,9.921,10.0086,10.069,10.158,10.1889,10.1889,10.1889,10.1889,10.1889,10.1889,10.1896,10.1819,10.1889,10.1896,10.1594,10.0813,9.9963,9.8803,9.6731,9.6282,9.6172,0.0,0.0,0.0,0.0,0.0,0.0,0.0,0.0,0.0,0.0,0.0,0.0,0.0,0.0,0.0,0.0,0.0,9.9219,9.9687,10.1406,10.3203,0.0,0.0,0.0,10.7187,10.7383,10.6992,10.6211,10.5312,10.4883,10.4883,10.4804,10.539,10.6719,10.7109,10.75,10.8008,10.8008,10.8008,10.8008,10.8008,10.8008,10.8008,10.8008,10.8008,10.8008,10.8008,10.8008,10.8008,0.0,0.0,0.0,0.0,0.0,0.0,0.0,8.416,0.0,8.6687,0.0,8.8295,8.8527,8.9813,9.074,0.0,0.0,9.1378,8.9908,9.1185,9.1339,8.987,9.1958,9.3118,9.3118,9.1339,0.0,0.0,0.0,0.0,7.8641,7.8796,7.8486,7.7906,7.8641,8.0304,8.2948,9.0122,9.3763,0.0,9.6989,9.7881,9.8036,9.8807,9.9617,10.0312,10.0389,10.0607,10.0813,10.1587,10.1896,10.1896,10.1896,10.1896,10.1896,10.1896,10.1793,10.1683,10.1787,10.1793,10.1683,10.1787,10.1316,10.0427,9.9011,9.8624,9.8346,9.7581,9.7496,9.7905,0.0,0.0,0.0,0.0,0.0,0.0,0.0,0.0,0.0,0.0,0.0,0.0,0.0,0.0,9.8554,9.8672,9.9375,10.0781,0.0,0.0,0.0,10.789,10.7304,0.0,10.5508,0.0,10.4414,10.4414,10.5117,10.6015,10.6914,10.7695,10.8008,10.8008,10.8008,10.8008,10.8008,10.8008,10.8008,10.8008,10.8008,10.8008,10.8008,10.8008,10.8008,10.8008,0.0,0.0,0.0,0.0,0.0,8.5148,0.0,8.6384,8.6633,8.83,8.9267,0.0,9.1716,9.2107,9.2588,9.3322,9.3522,0.0,0.0,0.0,0.0,9.3168,9.3592,9.3824,9.3824,9.147,8.8605,0.0,0.0,0.0,7.6862,7.7597,7.8216,7.8796,7.8912,8.2252,8.8007,9.2875,0.0,9.8224,9.792,9.8228,9.8884,9.9039,9.9617,10.0389,10.1083,10.1427,10.1388,10.1581,10.1697,10.1697,10.1697,10.1697,10.1697,10.1697,10.1581,10.162,10.1581,10.1581,10.162,10.1581,10.1504,10.1388,10.108,10.0501,9.9922,9.9767,9.9227,9.845,9.7395,0.0,0.0,0.0,0.0,0.0,0.0,0.0,0.0,0.0,0.0,0.0,0.0,0.0,9.6172,9.6875,9.707,9.914,0.0,0.0,0.0,0.0,10.789,0.0,0.0,0.0,0.0,10.5312,10.539,10.6289,10.7812,10.789,10.8008,10.8008,10.8008,10.8008,10.8008,10.8008,10.8008,10.8008,10.8008,10.8008,10.8008,10.8008,10.8008,10.8008,0.0,0.0,0.0,0.0,0.0,0.0,0.0,9.0196,0.0,9.0204,9.0968,9.1778,9.2627,9.3089,9.3559,9.3936,9.4013,9.4009,9.4023,9.3985,9.3792,9.3367,9.4177,0.0,9.4023,0.0,9.1392,8.7195,0.0,0.0,7.837,7.8771,7.894,7.9017,8.0744,8.3807,0.0,0.0,0.0,9.7119,9.7973,9.8859,9.9669,10.0092,10.0516,10.0901,10.1325,10.1402,10.1479,10.1588,10.1585,10.1585,10.1585,10.1585,10.1585,10.1585,10.1588,10.1591,10.1624,10.1588,10.1591,10.1624,10.1585,10.1585,10.1585,10.1315,10.1006,10.1006,10.0312,9.9193,9.7567,9.6004,0.0,0.0,0.0,0.0,0.0,0.0,0.0,0.0,0.0,0.0,0.0,0.0,9.5475,9.5156,9.6367,9.8984,0.0,0.0,10.3086,0.0,0.0,0.0,0.0,0.0,0.0,10.5508,10.5898,10.6797,10.8008,10.8008,10.8008,10.8008,10.8008,10.8008,10.8007,10.7899,10.7905,10.8008,10.789,10.7879,10.7884,10.7884,10.7795,10.7807,0.0,8.4664,0.0,0.0,8.9393,0.0,0.0,9.3361,9.3477,9.2095,9.2479,9.3015,9.3169,9.3789,9.4291,9.4445,9.4483,9.4516,9.4497,9.4497,9.4189,9.3495,9.4767,9.5191,9.4497,9.5769,9.4145,0.0,0.0,0.0,0.0,8.0087,7.9636,7.9559,0.0,0.0,0.0,0.0,9.4471,9.6358,9.8287,9.9596,10.0404,10.0904,10.1212,10.1289,10.1289,10.1289,10.1289,10.1516,10.1475,10.1475,10.1475,10.1475,10.1475,10.1475,10.1516,10.1518,10.1514,10.1516,10.1518,10.1514,10.1475,10.1475,10.1475,10.1475,10.1475,10.1475,10.101,10.0007,9.8383,9.7297,0.0,0.0,0.0,0.0,0.0,0.0,0.0,0.0,0.0,0.0,0.0,0.0,9.5055,9.4877,9.6439,9.8828,10.2109,0.0,0.0,0.0,0.0,10.5195,10.4687,0.0,10.4883,0.0,10.6211,10.7187,10.8008,10.8008,10.8008,10.8008,10.8008,10.8008,10.8005,10.7892,10.7899,10.7886,10.7791,10.7703,10.7716,10.7679,10.7597,10.7498,0.0,0.0,0.0,0.0,0.0,0.0,0.0,9.3868,9.4559,9.3599,9.3561,9.3906,9.4712,9.4866,9.5212,9.6019,9.6095,9.6095,9.6094,9.6094,9.6055,9.5978,9.6132,9.6171,9.6094,9.6248,9.459,0.0,0.0,0.0,0.0,7.9902,7.9632,0.0,0.0,0.0,0.0,9.4891,9.74,9.9635,9.9865,10.0481,10.1096,10.0481,10.0712,10.1289,10.1289,10.1289,10.1289,10.1289,10.1328,10.1328,10.1328,10.1328,10.1328,10.1328,10.1289,10.1289,10.1289,10.1289,10.1289,10.1289,10.1328,10.1328,10.1328,10.1328,10.1328,10.1328,10.1404,10.0899,9.9274,10.008,10.011,0.0,0.0,0.0,0.0,0.0,9.8515,10.0022,0.0,0.0,0.0,0.0,0.0,9.7768,9.7007,9.7539,10.0195,0.0,0.0,10.5586,0.0,10.4414,10.1992,10.5,0.0,10.4297,10.5898,10.7187,10.8008,10.8008,10.8008,10.8008,10.8008,10.8008,10.8005,10.7892,10.7788,10.7784,10.7597,10.7488,10.75,10.7484,10.7524,10.7478,0.0,0.0,0.0,0.0,0.0,0.0,0.0,9.5328,9.5635,9.5289,9.5251,9.5366,9.5712,9.5751,9.5942,9.6288,9.6288,9.6288,9.6288,9.6288,9.6057,9.5518,9.6019,9.6057,9.5518,9.6019,9.5132,0.0,0.0,0.0,0.0,0.0,0.0,0.0,0.0,9.1703,9.3438,9.6517,9.8711,10.0096,10.0096,10.0904,10.202,10.1712,10.2097,10.2904,10.2904,10.2904,10.2904,10.2904,10.2212,10.1404,10.1904,10.2097,10.2212,10.2712,10.2904,10.2904,10.2904,10.2904,10.2712,10.2212,10.2097,10.1904,10.1404,10.1289,10.1289,10.1289,10.1328,10.1212,10.0518,10.0203,10.0312,0.0,0.0,0.0,0.0,0.0,0.0,10.3488,0.0,10.1618,0.0,0.0,9.7209,9.7461,9.5161,9.5822,10.0585,10.0781,0.0,10.3906,0.0,10.5195,10.3203,10.5508,10.6406,10.5703,10.6914,10.7695,10.8007,10.7976,10.7987,10.7889,10.7808,10.772,10.7699,10.7495,10.7498,10.7569,10.7414,10.7301,10.7313,10.7285,10.7305,10.7189,9.101,0.0,9.1564,0.0,9.3637,9.4214,9.6057,9.6288,9.6288,9.6288,9.6288,9.6288,9.6288,9.6288,9.6288,9.6288,9.6288,9.6288,9.6288,9.6288,9.6019,9.5403,9.598,0.0,9.5403,9.598,9.5747,9.4513,9.2238,0.0,0.0,0.0,0.0,0.0,9.2518,9.448,9.5365,9.8057,9.9673,10.0481,10.0712,10.1712,10.2981,10.2981,10.3405,10.3905,10.3905,10.3905,10.3905,10.3905,10.3097,10.2212,10.2789,10.2981,10.3097,10.3712,10.3905,10.3905,10.3905,10.3905,10.3789,10.3097,10.2981,10.2789,10.2212,10.2097,10.2097,10.2097,10.2097,10.2097,10.2097,10.1172,10.1092,10.2981,0.0,0.0,0.0,10.5117,0.0,10.4603,10.3404,10.3011,10.3591,10.069,0.0,0.0,9.5932,0.0,0.0,0.0,0.0,0.0,0.0,0.0,0.0,10.6093,10.6992,10.6719,10.7613,10.7993,10.7905,10.7922,10.7803,10.7685,10.761,10.7498,10.7516,10.7299,10.7305,10.7382,10.7189,10.7111,10.7111,10.7111,10.7111,10.6995,9.3139,9.3633,9.417,9.5942,9.6249,9.6249,9.6288,9.6288,9.6288,9.6288,9.6288,9.6288,9.6288,9.6288,9.6288,9.6288,9.6288,9.6288,9.6288,9.6288,9.6288,0.0,0.0,9.6288,9.6288,9.6288,9.6288,9.6288,0.0,0.0,9.2364,9.0671,9.0787,9.2518,9.421,9.6365,9.8788,9.9712,10.0481,10.1404,10.2212,10.3097,10.3905,10.3905,10.3905,10.3905,10.3905,10.3905,10.3905,10.3905,10.3905,10.3905,10.3905,10.3905,10.3905,10.3905,10.3905,10.3905,10.3905,10.3905,10.3905,10.3905,10.3905,10.3905,10.3905,10.3905,10.3905,10.3905,10.3905,10.3906,10.4022,10.3907,10.3406,10.1897,0.0,0.0,0.0,0.0,0.0,10.1992,9.8114,9.7286,10.1502,0.0,0.0,0.0,0.0,0.0,0.0,0.0,0.0,10.539,10.5508,0.0,10.4219,10.6719,10.7617,10.6718,10.761,10.7879,10.7795,10.7593,10.751,10.7498,10.7492,10.7492,10.7492,10.7266,10.7189,10.7189,10.7111,10.6995,10.6995,10.6995,10.6995,10.6995,9.4521,9.5057,9.5441,9.5405,9.5942,9.6288,9.6288,9.6288,9.6288,9.6288,9.6288,9.6288,9.6288,9.6288,9.6288,0.0,9.6288,9.6288,0.0,9.6288,9.6288,9.6288,9.6288,9.6288,9.6288,9.6288,9.6288,9.6288,0.0,0.0,0.0,9.3018,9.4018,9.6826,9.798,9.8904,9.9788,10.1212,10.1981,10.2289,10.3097,10.3982,10.4713,10.4713,10.5097,10.5597,10.5597,10.5597,10.5597,10.5597,10.5597,10.5597,10.5597,10.5213,10.4789,10.5405,10.5597,10.5597,10.5597,10.5597,10.5482,10.4905,10.4713,10.4597,10.3982,10.3905,10.3905,10.3905,10.3905,10.3905,10.3906,10.3984,10.3984,10.4098,10.4791,0.0,0.0,0.0,10.5812,10.5415,10.4133,10.3901,0.0,10.2817,0.0,0.0,0.0,0.0,0.0,0.0,0.0,0.0,10.539,0.0,10.5117,10.6895,10.7727,10.7494,10.7593,10.7599,10.7608,10.7406,10.7329,10.7305,10.7189,10.7189,10.7189,10.7111,10.7111,10.7111,10.6995,10.6995,10.6995,10.6995,10.6995,10.6995,9.552,9.5942,9.6134,9.5558,9.5942,9.6288,9.6288,9.6288,9.6442,9.6712,9.6481,9.6557,9.7173,9.6942,0.0,9.6326,9.6288,0.0,9.6288,9.6288,9.6288,9.6288,9.6288,9.6288,9.6288,0.0,0.0,9.6288,9.5518,9.5557,9.6403,9.6211,9.725,9.9327,10.0481,10.0981,10.1096,10.2481,10.3289,10.3597,10.4097,10.4789,10.5597,10.5597,10.5905,10.6405,10.6405,10.6405,10.6405,10.6405,10.6405,10.6405,10.6405,10.602,10.5713,10.6213,10.6405,10.6405,10.6405,10.6405,10.629,10.5713,10.5597,10.5482,10.4982,10.4789,10.4789,10.4789,10.4789,10.4789,10.4789,10.4868,10.51,10.5601,10.5524,10.5676,10.6599,0.0,10.6006,0.0,0.0,0.0,0.0,10.41,0.0,0.0,0.0,0.0,0.0,0.0,0.0,10.4218,10.5781,0.0,10.6416,10.7327,10.7802,10.7724,10.7521,10.7379,10.7382,10.7189,10.7111,10.7111,10.6995,10.6995,10.6995,10.6995,10.6995,10.6995,10.6995,10.6995,10.6995,10.6995,10.6995,10.6995,9.6134,9.6288,0.0,0.0,9.6288,0.0,9.6365,9.6365,9.6674,9.7481,9.6943,9.7057,9.8634,9.8096,9.7288,9.6557,0.0,0.0,0.0,9.648,9.648,9.648,9.648,0.0,9.648,9.648,9.648,9.648,9.7211,9.8057,9.8904,9.9788,10.0212,10.0289,10.1981,10.2712,10.2712,10.3597,10.4405,10.5097,10.5213,10.5713,10.6405,10.6405,10.6405,10.6405,10.6405,10.6405,10.6405,10.6405,10.6405,10.6405,10.6405,10.6405,10.6405,10.6405,10.6405,10.6405,10.6405,10.6405,10.6405,10.629,10.629,10.629,10.6405,10.6405,10.6405,10.6405,10.6405,10.6405,10.6405,10.6405,10.6405,10.6405,10.5793,10.5602,10.6411,10.602,10.4696,0.0,0.0,0.0,0.0,10.2019,10.3327,0.0,0.0,0.0,0.0,0.0,10.1798,10.6282,10.6404,10.6802,10.7788,10.7685,10.7608,10.7498,10.7305,10.7189,10.7189,10.7111,10.6995,10.6995,10.6995,10.6995,10.6995,10.6995,10.6995,10.6995,10.6995,10.6995,10.6995,10.6995,10.6995,10.6995,0.0,0.0,9.6288,9.6288,9.6288,9.6519,9.7133,9.7248,9.7519,9.8366,9.8327,9.8366,9.875,9.8634,9.8442,9.8211,9.8211,9.8211,9.8211,9.8211,9.8211,9.8211,9.8211,9.8211,9.8211,9.8211,9.8211,9.8211,9.8404,9.8942,9.9788,10.0596,10.1404,10.2097,10.3097,10.3597,10.3597,10.4482,10.4905,10.5174,10.579,10.6213,10.6405,10.6405,10.6405,10.6405,10.6405,10.6405,10.6405,10.6405,10.6405,10.6405,10.6405,10.6405,10.6405,10.6405,10.6405,10.6405,10.6405,10.6405,10.6213,10.5597,10.5405,10.5597,10.6213,10.6405,10.6405,10.6405,10.6405,10.6405,10.6405,10.6405,10.6405,10.6405,10.629,10.6217,10.6526,10.6372,10.5831,0.0,10.4585,10.4426,10.3704,10.4276,10.3996,0.0,0.0,0.0,0.0,10.1507,10.2926,10.6212,10.5601,10.5998,10.7617,10.6804,10.6686,10.7111,10.7111,10.6995,10.6995,10.6995,10.6995,10.6995,10.6995,10.6995,10.6995,10.6995,10.6995,10.6995,10.6995,10.6995,10.6995,10.6995,10.6995,10.6995,9.6288,9.6288,9.6403,9.6788,9.6826,9.7133,9.7979,9.8096,9.8442,9.9288,9.9058,9.9096,9.9865,9.9635,9.9558,9.9904,9.925,9.8788,9.8788,9.8788,9.8788,9.8788,9.8788,9.8788,9.8788,9.8788,9.8981,9.9365,9.975,10.0212,10.0712,10.1904,10.252,10.2712,10.3905,10.4405,10.4482,10.529,10.5713,10.5713,10.6213,10.6405,10.6405,10.6405,10.6405,10.6405,10.6405,10.6405,10.6405,10.6405,10.6405,10.6405,10.6405,10.6405,10.6405,10.6405,10.6405,10.6405,10.6405,10.6405,10.629,10.579,10.5405,10.529,10.6213,10.6405,10.6405,10.6405,10.6405,10.6405,10.6405,10.6405,10.6405,10.6405,10.6097,10.6023,10.6409,10.6179,0.0,10.5909,10.602,10.5904,10.5292,10.5402,10.4704,10.2781,0.0,0.0,10.229,10.3095,10.421,10.5519,10.5412,10.5715,10.622,10.5982,10.6183,10.6995,10.6995,10.6995,10.6995,10.6995,10.6995,10.6995,10.6995,10.6995,10.6995,10.6995,10.6995,10.6995,10.6995,10.6995,10.6995,10.6995,10.6995,10.6995,9.6673,9.6673,9.6865,9.7595,9.771,9.8018,9.8865,9.8981,9.9288,10.0211,9.9635,9.9712,10.1096,10.0712,10.0596,10.1212,10.0019,9.9173,9.9173,9.9173,9.9173,9.9173,9.9173,9.9173,9.9173,9.9173,9.9519,10.0289,10.1096,10.152,10.152,10.3289,10.3712,10.302,10.4597,10.529,10.529,10.6097,10.6405,10.6405,10.6405,10.629,10.6213,10.629,10.629,10.6213,10.6405,10.6405,10.6405,10.6405,10.6405,10.6405,10.6405,10.6405,10.6405,10.6405,10.6405,10.6405,10.6405,10.629,10.6213,10.6213,10.5597,10.529,10.602,10.629,10.6405,10.6405,10.6405,10.6405,10.6405,10.6405,10.629,10.5905,10.5482,10.5405,10.579,0.0,10.5678,10.6179,10.641,10.6295,10.591,10.5485,10.5099,10.4908,10.4479,10.4314,0.0,10.5189,10.5377,10.4906,10.5409,10.537,10.4674,10.5487,10.6299,10.6995,10.6995,10.6995,10.6995,10.6995,10.6879,10.6802,10.6802,10.6686,10.6608,10.6686,10.6802,10.6802,10.6879,10.6995,10.6995,10.6995,10.6995,10.6995,9.844,9.844,9.8478,9.8594,9.8596,9.8904,9.975,9.9904,10.0211,10.1019,10.1019,10.1019,10.1289,10.1212,10.1212,10.1289,10.1096,10.0904,10.0904,10.0904,10.0904,10.0904,10.0904,10.0904,10.0904,10.0904,10.1019,10.1096,10.202,10.2404,10.2404,10.4097,10.4789,10.4789,10.579,10.6213,10.6213,10.629,10.6405,10.6405,10.6405,10.602,10.5405,10.6097,10.5905,10.5405,10.6097,10.6405,10.6405,10.6405,10.6405,10.6405,10.6405,10.6405,10.6405,10.6405,10.6405,10.6405,10.6405,10.5905,10.529,10.529,10.5213,10.5097,10.529,10.5905,10.6405,10.6405,10.6405,10.6405,10.6405,10.6405,10.5713,10.352,10.4905,10.552,10.352,0.0,10.6023,10.5407,10.5409,10.487,10.3406,10.3791,10.3868,10.3213,10.3713,10.4405,10.5173,10.5512,10.5619,10.5503,10.4913,10.4597,10.4403,10.5989,10.6879,10.6995,10.6995,10.6995,10.6995,10.6995,10.6608,10.5912,10.5912,10.5487,10.4906,10.5603,10.5912,10.5989,10.6686,10.6995,10.6995,10.6995,10.6995,10.6995,9.8827,9.8827,9.8942,9.9404,9.9481,9.9788,10.0596,10.0673,10.0904,10.1289,10.1289,10.1289,10.1289,10.1289,10.1289,10.1289,10.1289,10.1289,10.1289,10.1289,10.1289,10.1289,10.1289,10.1289,10.1289,10.1289,10.1289,10.1289,10.2597,10.3097,10.2597,10.4789,10.5482,10.5097,10.602,10.6405,10.6405,10.6405,10.6405,10.6405,10.6405,10.5905,10.5213,10.6097,10.5905,10.5213,10.6097,10.6405,10.6405,10.6405,10.6097,10.579,10.629,10.6097,10.579,10.629,10.6097,10.5713,10.5713,10.4713,10.3905,10.4289,10.4097,10.3905,10.4289,10.4789,10.5213,10.5597,10.5713,10.579,10.629,10.6405,10.602,10.4789,10.5597,0.0,10.4789,10.5713,10.629,10.579,10.5907,10.5599,10.4713,10.4599,10.4407,10.4022,10.3984,10.4407,10.5292,10.5405,10.5708,10.621,10.4996,10.4906,10.5796,10.6105,10.6492,10.6995,10.6995,10.6802,10.6299,10.6299,10.5796,10.5022,10.5487,10.5487,10.5216,10.5989,10.6415,10.6415,10.6802,10.6995,10.6995,10.6995,10.6995,10.6995,9.9365,9.9365,9.9557,10.0288,10.0404,10.0596,10.1212,10.1289,10.1289,10.1289,10.1289,10.1289,10.1289,10.1289,10.1289,10.1289,10.1289,10.1289,10.1289,10.1289,10.1289,10.1289,10.1289,10.1289,10.1289,10.1289,10.1289,10.1289,10.302,10.3597,10.2981,10.529,10.602,10.5405,10.6097,10.6405,10.6405,10.6405,10.629,10.6097,10.6097,10.5597,10.4905,10.579,10.5713,10.5213,10.6097,10.629,10.6097,10.629,10.579,10.5213,10.5905,10.579,10.5482,10.5713,10.5213,10.4597,10.4982,10.4212,10.3289,10.3789,10.3405,10.302,10.3482,10.3789,10.4097,10.4713,10.4789,10.4982,10.5713,10.579,10.5713,10.529,0.0,10.602,10.5597,10.602,10.6405,10.6405,10.6405,10.629,10.6097,10.5482,10.5097,10.5097,10.46,10.46,10.5486,10.5601,10.5869,10.6408,10.5276,10.5299,10.6686,10.5989,10.6105,10.6995,10.6995,10.6492,10.5719,10.5912,10.5409,10.4403,10.5293,10.5719,10.5796,10.6608,10.7111,10.7305,10.7305,10.7305,10.7305,10.7111,10.6995,10.6995,10.1096,10.1096,10.1096,10.1212,10.1212,10.1212,10.1289,10.1289,10.1289,10.1289,10.1289,10.1289,10.1289,10.1289,10.1289,10.1289,10.1289,10.1289,10.1289,10.1289,10.1289,10.1289,10.1289,10.1289,10.1289,10.1289,10.1289,10.1289,10.302,10.3905,10.3789,10.5597,10.6405,10.629,10.6405,10.6405,10.6405,10.6405,10.5905,10.5213,10.5213,10.4713,10.4097,10.4905,10.5174,10.5213,10.6097,10.5905,10.529,10.6097,10.579,10.5097,10.5213,10.5713,10.602,10.4482,10.3482,10.3097,10.4713,10.4982,10.4789,10.4097,10.3905,10.3597,10.2904,10.3289,10.3905,10.3982,10.3982,10.3982,10.4097,10.4097,10.3597,10.1904,0.0,0.0,10.3097,10.4905,10.6405,10.6405,10.6405,10.6097,10.529,10.5097,10.5097,10.5097,10.4982,10.5366,10.629,10.641,10.6064,10.552,10.5512,10.558,10.5796,10.5719,10.6105,10.6995,10.6995,10.6492,10.5719,10.6492,10.5989,10.4403,10.5293,10.5719,10.5796,10.6608,10.7498,10.8194,10.8194,10.8194,10.8078,10.7305,10.6995,10.6995,10.1289,10.1289,10.1289,10.1289,10.1289,10.1289,10.1289,10.1289,10.1289,10.1289,10.1289,10.1289,10.1289,10.1289,10.1289,10.1289,10.1289,10.1289,10.1289,10.1289,10.1289,10.1289,10.1289,10.1289,10.1289,10.1289,10.1597,10.2097,10.3289,10.4212,10.4713,10.579,10.6405,10.6405,10.6405,10.6097,10.5597,10.5597,10.5097,10.4405,10.4405,10.3789,10.3212,10.3982,10.3982,10.3712,10.5097,10.5405,10.5213,10.6097,10.579,10.5213,10.5713,10.5405,10.4713,10.4097,10.3712,10.3712,10.4789,10.3905,10.2712,10.2404,10.2289,10.2212,10.1904,10.202,10.2404,10.2981,10.3097,10.3289,10.3789,10.3905,10.3712,10.2981,0.0,10.4713,10.3597,10.4713,10.5597,10.5597,10.5597,10.5713,10.5905,10.5905,10.5905,10.5905,10.5905,10.6097,10.6405,10.6407,10.6295,10.6064,10.6102,10.5981,10.5614,10.6807,10.7189,10.6995,10.6995,10.6492,10.5719,10.5989,10.5487,10.4403,10.5293,10.5989,10.6492,10.6879,10.7807,10.8891,10.7885,10.7807,10.8194,10.7305,10.6995,10.6995,10.1289,10.1289,10.1289,10.1289,10.1289,10.1289,10.1289,10.1289,10.1289,10.1289,10.1289,10.1289,10.1289,10.1289,10.1289,10.1289,10.1289,10.1289,10.1289,10.1289,10.1289,10.1289,10.1289,10.1289,10.1289,10.1289,10.1597,10.2212,10.3289,10.4212,10.4713,10.5905,10.629,10.602,10.629,10.5905,10.5097,10.5097,10.4597,10.3905,10.3597,10.3097,10.2712,10.3289,10.3405,10.3482,10.4713,10.5097,10.5213,10.6097,10.579,10.5213,10.579,10.4789,10.3482,10.3789,10.3712,10.3597,10.3789,10.2789,10.1789,10.202,10.1904,10.1597,10.1404,10.152,10.1904,10.252,10.2789,10.3212,10.3789,10.3905,10.3982,10.4212,10.4713,10.4982,10.4713,10.5213,10.5482,10.5482,10.5482,10.5713,10.629,10.6405,10.6405,10.6405,10.6405,10.6405,10.6405,10.6405,10.6292,10.6102,10.6564,10.6603,10.5901,10.7204,10.7697,10.7382,10.7382,10.6995,10.6105,10.6415,10.5989,10.5216,10.5796,10.6608,10.7382,10.7691,10.8581,10.9819,10.831,10.8194,10.8504,10.7382,10.6995,10.6995,10.1289,10.1289,10.1289,10.1289,10.1289,10.1289,10.1289,10.1289,10.1289,10.1289,10.1289,10.1289,10.1289,10.1289,10.1289,10.1289,10.1289,10.1289,10.1289,10.1289,10.1289,10.1289,10.1289,10.1289,10.1289,10.1289,10.1289,10.1289,10.302,10.3905,10.3905,10.5597,10.5905,10.5097,10.602,10.5905,10.5097,10.5097,10.4597,10.3789,10.2904,10.2597,10.2597,10.2597,10.3597,10.5097,10.5097,10.5097,10.5213,10.6097,10.579,10.5097,10.5097,10.3982,10.2789,10.3597,10.3289,10.2404,10.152,10.1904,10.2789,10.3712,10.3212,10.2404,10.152,10.202,10.2597,10.2597,10.3289,10.3905,10.3905,10.3905,10.4212,10.4982,10.5097,10.5405,10.629,10.6405,10.6405,10.6405,10.6405,10.6405,10.6405,10.6405,10.6405,10.6405,10.6405,10.6405,10.6405,10.6405,10.602,10.5174,10.6911,10.7412,10.6488,10.6676,10.7281,10.831,10.831,10.7885,10.6995,10.7885,10.7807,10.6995,10.6995,10.7498,10.8388,10.92,11.0012,11.0709,10.9819,10.9509,10.9316,10.7614,10.6995,10.6995,10.1289,10.1289,10.1289,10.1289,10.1289,10.1289,10.1289,10.1289,10.1289,10.1289,10.1289,10.1289,10.1289,10.1289,10.1289,10.1289,10.1289,10.1289,10.1289,10.1289,10.1289,10.1289,10.1289,10.1289,10.1289,10.1289,10.1597,10.2212,10.3289,10.3905,10.3905,10.5597,10.5905,10.5097,10.602,10.5597,10.4289,10.4289,10.3789,10.2981,10.2712,10.2981,10.3482,10.3482,10.3789,10.4289,10.4905,10.5097,10.5213,10.6097,10.6213,10.579,10.4597,10.4289,10.4097,10.252,10.2289,10.252,10.2289,10.2404,10.252,10.2212,10.1904,10.1597,10.1404,10.202,10.2597,10.2597,10.3289,10.3905,10.3905,10.3905,10.3982,10.4212,10.4713,10.4982,10.4713,10.5097,10.5482,10.5482,10.5482,10.5713,10.629,10.6405,10.6405,10.6405,10.6405,10.6713,10.729,10.729,10.7482,10.779,10.8909,10.9412,10.9223,10.8799,10.8482,10.8208,10.878,10.8697,10.7885,10.8813,10.9007,10.8697,10.8194,10.8697,11.0012,10.9007,10.9509,11.0709,10.92,10.8697,10.8504,10.7382,10.6995,10.6995,10.1289,10.1289,10.1289,10.1289,10.1289,10.1289,10.1289,10.1289,10.1289,10.1289,10.1289,10.1289,10.1289,10.1289,10.1289,10.1289,10.1289,10.1289,10.1289,10.1289,10.152,10.1789,10.1789,10.1789,10.1789,10.152,10.1712,10.2597,10.3482,10.3905,10.3905,10.5597,10.5905,10.5097,10.602,10.5597,10.4405,10.4405,10.4097,10.3597,10.3212,10.3405,10.3905,10.3905,10.4097,10.4405,10.4905,10.529,10.5713,10.6213,10.6405,10.6213,10.5213,10.4982,10.4713,10.2904,10.2712,10.2981,10.2289,10.2289,10.2404,10.152,10.1597,10.1789,10.1789,10.252,10.3212,10.3482,10.4289,10.4905,10.4905,10.4905,10.4905,10.4905,10.529,10.5405,10.4982,10.529,10.5597,10.5597,10.5597,10.579,10.629,10.6405,10.6405,10.6405,10.6713,10.7098,10.7713,10.7982,10.8406,10.8906,10.9406,10.9909,11.0297,10.9919,10.9493,10.9106,10.9603,10.96,10.9213,10.9712,10.9905,10.9901,10.9123,10.9316,11.0206,10.9587,10.9703,11.0206,10.92,10.8581,10.8194,10.7305,10.6995,10.6995,10.1289,10.1289,10.1289,10.1289,10.1289,10.1289,10.1289,10.1289,10.1289,10.1289,10.1289,10.1289,10.1289,10.1289,10.1289,10.1404,10.152,10.152,10.1404,10.152,10.1904,10.2712,10.2712,10.2712,10.2789,10.202,10.1904,10.2597,10.3482,10.3905,10.3789,10.5597,10.5905,10.5097,10.602,10.5905,10.5097,10.5097,10.5097,10.4982,10.4289,10.4097,10.4097,10.4097,10.4597,10.5213,10.5213,10.5713,10.6405,10.6405,10.6405,10.6405,10.629,10.579,10.4982,10.4212,10.3982,10.3597,10.1904,10.202,10.2404,10.152,10.1904,10.252,10.252,10.3212,10.3982,10.4789,10.5713,10.629,10.6405,10.6405,10.6405,10.6405,10.6405,10.6405,10.6405,10.6405,10.6405,10.6405,10.6405,10.6405,10.6405,10.6405,10.6405,10.6521,10.729,10.779,10.7905,10.8598,10.9098,10.9098,10.9098,10.9483,11.0291,11.0374,11.0419,11.0497,11.0613,11.0613,11.0497,11.061,11.0723,11.0685,10.9905,10.9592,10.9785,11.0481,11.0288,10.9476,10.9476,10.8896,10.8084,10.7271,10.7001,10.7001,10.1289,10.1289,10.1289,10.1289,10.1289,10.1289,10.1289,10.1289,10.1289,10.1289,10.1289,10.1289,10.1289,10.1289,10.1597,10.2289,10.2904,10.302,10.2404,10.2981,10.3405,10.3597,10.3597,10.3905,10.4482,10.3789,10.3097,10.2597,10.4097,10.4212,10.2904,10.529,10.5905,10.5097,10.602,10.5905,10.5097,10.5097,10.5097,10.5097,10.4905,10.5213,10.5905,10.5905,10.602,10.6097,10.6097,10.6213,10.6405,10.6405,10.6405,10.629,10.5597,10.5713,10.579,10.4289,10.4289,10.4482,10.2789,10.252,10.2404,10.152,10.1404,10.1597,10.1597,10.2289,10.3097,10.3982,10.4789,10.5597,10.629,10.6405,10.6405,10.6405,10.6405,10.6405,10.6405,10.6405,10.6405,10.6405,10.6405,10.6405,10.6405,10.6405,10.6713,10.7405,10.7598,10.829,10.9598,10.979,11.0214,11.0906,11.0906,11.1021,11.1214,11.1175,11.0913,11.0419,11.1115,11.1192,11.0497,11.123,11.15,11.15,11.0574,11.0727,11.1306,11.0804,11.0109,10.9299,10.9299,10.8411,10.7021,10.6828,10.6789,10.6789,10.1289,10.1289,10.1289,10.1289,10.1289,10.1289,10.1289,10.1289,10.1289,10.1289,10.1289,10.1289,10.1289,10.1289,10.1712,10.252,10.2981,10.3097,10.2597,10.2597,10.2789,10.3289,10.3289,10.3712,10.4482,10.4097,10.3712,10.3212,10.3712,10.3712,10.3289,10.4982,10.5482,10.5097,10.602,10.5905,10.5097,10.5482,10.5713,10.5713,10.5713,10.602,10.6405,10.6405,10.6405,10.6405,10.6405,10.6405,10.6405,10.6405,10.6405,10.629,10.5905,10.5713,10.5597,10.4713,10.4212,10.3712,10.2789,10.2289,10.1904,10.1404,10.1597,10.202,10.2404,10.2904,10.3597,10.4789,10.5405,10.5905,10.629,10.6405,10.6405,10.6405,10.6405,10.6405,10.6405,10.6405,10.6405,10.6405,10.6405,10.6405,10.6405,10.679,10.7213,10.7713,10.8406,10.929,11.0175,11.0598,11.1021,11.1522,11.1522,11.1522,11.1522,11.1522,11.1333,11.0913,11.1378,11.1381,11.0995,11.1498,11.1692,11.1692,11.1269,11.1385,11.1809,11.1308,11.0613,10.9803,10.9417,10.8414,10.7295,10.6909,10.6986,10.7411,10.1289,10.1289,10.1289,10.1289,10.1289,10.1289,10.1289,10.1289,10.1289,10.1289,10.1289,10.1289,10.1289,10.1404,10.1789,10.2289,10.2712,10.2789,10.2597,10.2097,10.2097,10.2789,10.2789,10.3212,10.3905,10.3789,10.3712,10.3712,10.3212,10.3289,10.3905,10.4713,10.5213,10.529,10.579,10.5713,10.5405,10.5905,10.629,10.6405,10.6405,10.6405,10.6405,10.6405,10.6405,10.6405,10.6405,10.6405,10.6405,10.6405,10.6405,10.6405,10.6405,10.579,10.5097,10.5097,10.3982,10.2789,10.2597,10.2097,10.152,10.1289,10.1789,10.2597,10.3712,10.3905,10.4289,10.5905,10.6213,10.6213,10.6405,10.6405,10.6405,10.6405,10.6405,10.6405,10.6405,10.6405,10.6405,10.6405,10.6405,10.6405,10.6405,10.7213,10.779,10.7905,10.929,11.0291,11.0406,11.1098,11.1522,11.1522,11.1522,11.1522,11.1522,11.1522,11.1522,11.1522,11.1522,11.1522,11.1522,11.1606,11.1609,11.1571,11.1731,11.1732,11.1732,11.1732,11.123,11.042,10.9533,10.8723,10.8106,10.7296,10.7605,10.8531,10.1289,10.1289,10.1289,10.1289,10.1289,10.1289,10.1289,10.1289,10.1289,10.1289,10.1289,10.1289,10.1289,10.202,10.2212,10.152,10.2904,10.3405,10.2597,10.3212,10.3597,10.3712,10.3712,10.3789,10.3905,10.3212,10.2789,10.2789,10.4097,10.4482,10.3905,10.4713,10.5482,10.6213,10.4789,10.4982,10.6213,10.5482,10.5713,10.6405,10.6405,10.6405,10.6405,10.6405,10.6405,10.6405,10.6405,10.6405,10.6405,10.6405,10.6405,10.6405,10.6405,10.579,10.5097,10.5097,10.4405,10.3597,10.2789,10.252,10.2212,10.152,10.1404,10.1904,10.3482,10.3905,10.4212,10.5097,10.529,10.5482,10.629,10.6405,10.6405,10.6405,10.6405,10.6405,10.6405,10.6405,10.6405,10.6405,10.6405,10.6405,10.6405,10.7213,10.7982,10.8713,10.9598,11.0483,11.1291,11.1406,11.1522,11.1522,11.1522,11.1522,11.1522,11.1522,11.1522,11.1522,11.1522,11.1522,11.1522,11.1483,11.1483,11.1483,11.1526,11.1487,11.1487,11.1487,11.0987,11.0179,10.9294,10.8909,10.8793,10.8601,10.9178,10.9794,10.1289,10.1289,10.1289,10.1289,10.1289,10.1289,10.1289,10.1289,10.1289,10.1289,10.1289,10.1289,10.1289,10.2097,10.2404,10.2097,10.2712,10.2981,10.2597,10.252,10.2404,10.2404,10.2404,10.2404,10.2404,10.2097,10.1904,10.1904,10.2597,10.302,10.3212,10.3982,10.4405,10.4289,10.502,10.4905,10.4289,10.5405,10.579,10.5713,10.6213,10.6097,10.5713,10.5713,10.5405,10.5097,10.5482,10.602,10.6405,10.6405,10.6405,10.6405,10.6405,10.5482,10.4482,10.4982,10.4212,10.3212,10.3289,10.3289,10.3212,10.2789,10.3097,10.3597,10.4405,10.4905,10.5405,10.579,10.579,10.5905,10.629,10.6405,10.6405,10.6405,10.6405,10.6405,10.6405,10.6405,10.6597,10.7098,10.7098,10.729,10.779,10.8598,10.9213,10.9598,11.0406,11.1098,11.1522,11.1522,11.1522,11.1522,11.1522,11.1522,11.1522,11.1522,11.1522,11.1522,11.1522,11.1522,11.1522,11.1522,11.1522,11.1522,11.1522,11.1522,11.1522,11.1522,11.1291,11.0791,10.9983,10.929,10.8983,10.9406,10.9906,11.0214]},{"header":{"parameterUnit":"m.s-1","parameterCategory":1,"la1":30.6,"la2":28.766,"lo1":-90.7593,"lo2":-88.6598,"dx":0.0162,"dy":0.0183,"nx":116,"ny":114,"refTime":"2022-12-22T06:00:00:Z","depth":0,"parameterNumber":3,"parameterNumberName":"V-component_of_WINDS"},"data":[0.0,0.0,0.0,0.0,0.0,0.0,0.0,0.0,0.0,0.0,0.0,0.0,0.0,0.0,0.0,0.0,0.0,0.0,0.0,0.0,0.0,0.0,0.0,0.0,0.0,0.0,0.0,0.0,0.0,0.0,0.0,0.0,0.0,0.0,0.0,0.0,0.0,0.0,0.0,0.0,0.0,0.0,0.0,0.0,0.0,0.0,0.0,0.0,0.0,0.0,0.0,0.0,0.0,0.0,0.0,0.0,0.0,0.0,0.0,0.0,0.0,0.0,0.0,0.0,0.0,0.0,0.0,0.0,0.0,0.0,0.0,0.0,0.0,0.0,0.0,0.0,0.0,0.0,0.0,0.0,0.0,0.0,0.0,0.0,0.0,0.0,0.0,0.0,0.0,0.0,0.0,0.0,0.0,0.0,0.0,0.0,0.0,0.0,0.0,0.0,0.0,0.0,0.0,0.0,0.0,0.0,0.0,0.0,0.0,0.0,0.0,0.0,0.0,0.0,0.0,0.0,0.0,0.0,0.0,0.0,0.0,0.0,0.0,0.0,0.0,0.0,0.0,0.0,0.0,0.0,0.0,0.0,0.0,0.0,0.0,0.0,0.0,0.0,0.0,0.0,0.0,0.0,0.0,0.0,0.0,0.0,0.0,0.0,0.0,0.0,0.0,0.0,0.0,0.0,0.0,0.0,0.0,0.0,0.0,0.0,0.0,0.0,0.0,0.0,0.0,0.0,0.0,0.0,0.0,0.0,0.0,0.0,0.0,0.0,0.0,0.0,0.0,0.0,0.0,0.0,0.0,0.0,0.0,0.0,0.0,0.0,0.0,0.0,0.0,0.0,0.0,0.0,0.0,0.0,0.0,0.0,0.0,0.0,0.0,0.0,0.0,0.0,0.0,0.0,0.0,0.0,0.0,0.0,0.0,0.0,0.0,0.0,0.0,0.0,0.0,0.0,0.0,0.0,0.0,0.0,0.0,0.0,0.0,0.0,0.0,0.0,0.0,0.0,0.0,0.0,0.0,0.0,0.0,0.0,0.0,0.0,0.0,0.0,0.0,0.0,0.0,0.0,0.0,0.0,0.0,0.0,0.0,0.0,0.0,0.0,0.0,0.0,0.0,0.0,0.0,0.0,0.0,0.0,0.0,0.0,0.0,0.0,0.0,0.0,0.0,0.0,0.0,0.0,0.0,0.0,0.0,0.0,0.0,0.0,0.0,0.0,0.0,0.0,0.0,0.0,0.0,0.0,0.0,0.0,0.0,0.0,0.0,0.0,0.0,0.0,0.0,0.0,0.0,0.0,0.0,0.0,0.0,0.0,0.0,0.0,0.0,0.0,0.0,0.0,0.0,0.0,0.0,0.0,0.0,0.0,0.0,0.0,0.0,0.0,0.0,0.0,0.0,0.0,0.0,0.0,0.0,0.0,0.0,0.0,0.0,0.0,0.0,0.0,0.0,0.0,0.0,0.0,0.0,0.0,0.0,0.0,0.0,0.0,0.0,0.0,0.0,0.0,0.0,0.0,0.0,0.0,0.0,0.0,0.0,0.0,0.0,0.0,0.0,0.0,0.0,0.0,0.0,0.0,0.0,0.0,0.0,0.0,0.0,0.0,0.0,0.0,0.0,0.0,0.0,0.0,0.0,0.0,0.0,0.0,0.0,0.0,0.0,0.0,0.0,0.0,0.0,0.0,0.0,0.0,0.0,0.0,0.0,0.0,0.0,0.0,0.0,0.0,0.0,0.0,0.0,0.0,0.0,0.0,0.0,0.0,0.0,0.0,0.0,0.0,0.0,0.0,0.0,0.0,0.0,0.0,0.0,0.0,0.0,0.0,0.0,0.0,0.0,0.0,0.0,0.0,0.0,0.0,0.0,0.0,0.0,0.0,0.0,0.0,0.0,0.0,0.0,0.0,0.0,0.0,0.0,0.0,0.0,0.0,0.0,0.0,0.0,0.0,0.0,0.0,0.0,0.0,0.0,0.0,0.0,0.0,0.0,0.0,0.0,0.0,0.0,0.0,0.0,0.0,0.0,0.0,0.0,0.0,0.0,0.0,0.0,0.0,0.0,0.0,0.0,0.0,0.0,0.0,0.0,0.0,0.0,0.0,0.0,0.0,0.0,0.0,0.0,0.0,0.0,0.0,0.0,0.0,0.0,0.0,0.0,0.0,0.0,0.0,0.0,0.0,0.0,0.0,0.0,0.0,0.0,0.0,0.0,0.0,0.0,0.0,0.0,0.0,0.0,0.0,0.0,0.0,0.0,0.0,0.0,0.0,0.0,0.0,0.0,0.0,0.0,0.0,0.0,0.0,0.0,0.0,0.0,0.0,0.0,0.0,0.0,0.0,0.0,0.0,0.0,0.0,0.0,0.0,0.0,0.0,0.0,0.0,0.0,0.0,0.0,0.0,0.0,0.0,0.0,0.0,0.0,0.0,0.0,0.0,0.0,0.0,0.0,0.0,0.0,0.0,0.0,0.0,0.0,0.0,0.0,0.0,0.0,0.0,0.0,0.0,0.0,0.0,0.0,0.0,0.0,0.0,0.0,0.0,0.0,0.0,0.0,0.0,0.0,0.0,0.0,0.0,0.0,0.0,0.0,0.0,0.0,0.0,0.0,0.0,0.0,0.0,0.0,0.0,0.0,0.0,0.0,0.0,0.0,0.0,0.0,0.0,0.0,0.0,0.0,0.0,0.0,0.0,0.0,0.0,0.0,0.0,0.0,0.0,0.0,0.0,0.0,0.0,0.0,0.0,0.0,0.0,0.0,0.0,0.0,0.0,0.0,0.0,0.0,0.0,0.0,0.0,0.0,0.0,0.0,0.0,0.0,0.0,0.0,0.0,0.0,0.0,0.0,0.0,0.0,0.0,0.0,0.0,0.0,0.0,0.0,0.0,0.0,0.0,0.0,0.0,0.0,0.0,0.0,0.0,0.0,0.0,0.0,0.0,0.0,0.0,0.0,0.0,0.0,0.0,0.0,0.0,0.0,0.0,0.0,0.0,0.0,0.0,0.0,0.0,0.0,0.0,0.0,0.0,0.0,0.0,0.0,0.0,0.0,0.0,0.0,0.0,0.0,0.0,0.0,0.0,0.0,0.0,0.0,0.0,0.0,0.0,0.0,0.0,0.0,0.0,0.0,0.0,0.0,0.0,0.0,0.0,0.0,0.0,0.0,0.0,0.0,0.0,0.0,0.0,0.0,0.0,0.0,0.0,0.0,0.0,0.0,0.0,0.0,0.0,0.0,0.0,0.0,0.0,0.0,0.0,0.0,0.0,0.0,0.0,0.0,0.0,0.0,0.0,0.0,0.0,0.0,0.0,0.0,0.0,0.0,0.0,0.0,0.0,0.0,0.0,0.0,0.0,0.0,0.0,0.0,0.0,0.0,0.0,0.0,0.0,0.0,0.0,0.0,0.0,0.0,0.0,0.0,0.0,0.0,0.0,0.0,0.0,0.0,0.0,0.0,0.0,0.0,0.0,0.0,0.0,0.0,0.0,0.0,0.0,0.0,0.0,0.0,0.0,0.0,0.0,0.0,0.0,0.0,0.0,0.0,0.0,0.0,0.0,0.0,0.0,0.0,0.0,0.0,0.0,0.0,0.0,0.0,0.0,0.0,0.0,0.0,0.0,0.0,0.0,0.0,0.0,0.0,0.0,0.0,0.0,0.0,0.0,0.0,0.0,0.0,0.0,0.0,0.0,0.0,0.0,0.0,0.0,0.0,0.0,0.0,0.0,0.0,0.0,0.0,0.0,0.0,0.0,0.0,0.0,0.0,0.0,0.0,0.0,0.0,0.0,0.0,0.0,0.0,0.0,0.0,0.0,0.0,0.0,0.0,0.0,0.0,0.0,0.0,0.0,0.0,0.0,0.0,0.0,0.0,0.0,0.0,0.0,0.0,0.0,0.0,0.0,0.0,0.0,0.0,0.0,0.0,0.0,0.0,0.0,0.0,0.0,0.0,0.0,0.0,0.0,0.0,0.0,0.0,0.0,0.0,0.0,0.0,0.0,0.0,0.0,0.0,0.0,0.0,0.0,0.0,0.0,0.0,0.0,0.0,0.0,0.0,0.0,0.0,0.0,0.0,0.0,0.0,0.0,0.0,0.0,0.0,0.0,0.0,0.0,0.0,0.0,0.0,0.0,0.0,0.0,0.0,0.0,0.0,0.0,0.0,0.0,0.0,0.0,0.0,0.0,0.0,0.0,0.0,0.0,0.0,0.0,0.0,0.0,0.0,0.0,0.0,0.0,0.0,0.0,0.0,0.0,0.0,0.0,0.0,0.0,0.0,0.0,0.0,0.0,0.0,0.0,0.0,0.0,0.0,0.0,0.0,0.0,0.0,0.0,0.0,0.0,0.0,0.0,0.0,0.0,0.0,0.0,0.0,0.0,0.0,0.0,0.0,0.0,0.0,0.0,0.0,0.0,0.0,0.0,0.0,0.0,0.0,0.0,0.0,0.0,0.0,0.0,0.0,0.0,0.0,0.0,0.0,0.0,0.0,0.0,0.0,0.0,0.0,0.0,0.0,0.0,0.0,0.0,0.0,0.0,0.0,0.0,0.0,0.0,0.0,0.0,0.0,0.0,0.0,0.0,0.0,0.0,0.0,0.0,0.0,0.0,0.0,0.0,0.0,0.0,0.0,0.0,0.0,0.0,0.0,0.0,0.0,0.0,0.0,0.0,0.0,0.0,0.0,0.0,0.0,0.0,0.0,0.0,0.0,0.0,0.0,0.0,0.0,0.0,0.0,0.0,0.0,0.0,0.0,0.0,0.0,0.0,0.0,0.0,0.0,0.0,0.0,0.0,0.0,0.0,0.0,0.0,0.0,0.0,0.0,0.0,0.0,0.0,0.0,0.0,0.0,0.0,0.0,0.0,0.0,0.0,0.0,0.0,0.0,0.0,0.0,0.0,0.0,0.0,0.0,0.0,0.0,0.0,0.0,0.0,0.0,0.0,0.0,0.0,0.0,0.0,0.0,0.0,0.0,0.0,0.0,0.0,0.0,0.0,0.0,0.0,0.0,0.0,0.0,0.0,0.0,0.0,0.0,0.0,0.0,0.0,0.0,0.0,0.0,0.0,0.0,0.0,0.0,0.0,0.0,0.0,0.0,0.0,0.0,0.0,0.0,0.0,0.0,0.0,0.0,0.0,0.0,0.0,0.0,0.0,0.0,0.0,0.0,0.0,0.0,0.0,0.0,0.0,0.0,0.0,0.0,0.0,0.0,0.0,0.0,0.0,0.0,0.0,0.0,0.0,0.0,0.0,0.0,0.0,0.0,0.0,0.0,0.0,0.0,0.0,0.0,0.0,0.0,0.0,0.0,0.0,0.0,0.0,0.0,0.0,0.0,0.0,0.0,0.0,0.0,0.0,0.0,0.0,0.0,0.0,0.0,0.0,0.0,0.0,0.0,0.0,0.0,0.0,0.0,0.0,0.0,0.0,0.0,0.0,0.0,0.0,0.0,0.0,0.0,0.0,0.0,0.0,0.0,0.0,0.0,0.0,0.0,0.0,0.0,0.0,0.0,0.0,0.0,0.0,0.0,0.0,0.0,0.0,0.0,0.0,0.0,0.0,0.0,0.0,0.0,0.0,0.0,0.0,0.0,0.0,0.0,0.0,0.0,0.0,0.0,0.0,0.0,0.0,0.0,0.0,0.0,0.0,0.0,0.0,0.0,0.0,0.0,0.0,0.0,0.0,0.0,0.0,0.0,0.0,0.0,0.0,0.0,0.0,0.0,0.0,0.0,0.0,0.0,0.0,0.0,0.0,0.0,0.0,0.0,0.0,0.0,0.0,0.0,0.0,0.0,0.0,0.0,0.0,0.0,0.0,0.0,0.0,0.0,0.0,0.0,0.0,0.0,0.0,0.0,0.0,0.0,0.0,0.0,0.0,0.0,0.0,0.0,0.0,0.0,0.0,0.0,0.0,0.0,0.0,0.0,0.0,0.0,0.0,0.0,0.0,0.0,0.0,0.0,0.0,0.0,0.0,0.0,0.0,0.0,0.0,0.0,0.0,0.0,0.0,0.0,0.0,0.0,0.0,0.0,0.0,0.0,0.0,0.0,0.0,0.0,0.0,0.0,0.0,0.0,0.0,0.0,0.0,-1.1518,0.0,0.0,0.0,0.0,0.0,0.0,0.0,0.0,0.0,0.0,0.0,0.0,0.0,0.0,0.0,0.0,0.0,0.0,0.0,0.0,0.0,0.0,0.0,0.0,-0.1648,-0.1651,-0.168,-0.1682,0.0,0.0,0.0,0.0,0.0,0.0,0.0,0.0,0.0,-0.1684,-0.1726,-0.1726,-0.1764,-0.1836,-0.1806,-0.1776,-0.1748,0.0,0.0,0.0,0.0,0.0,0.0,0.0,0.0,0.0,0.0,0.0,0.0,0.0,0.0,0.0,0.0,0.0,0.0,0.0,0.0,0.0,0.0,0.0,0.0,0.0,0.0,0.0,0.0,0.0,0.0,0.0,0.0,0.0,0.0,0.0,0.0,0.0,0.0,0.0,0.0,0.0,0.0,0.0,0.0,0.0,0.0,0.0,0.0,0.0,0.0,0.0,0.0,0.0,0.0,0.0,0.0,0.0,0.0,0.0,0.0,0.0,0.0,0.0,0.0,0.0,0.0,0.0,0.0,0.0,0.0,0.0,-1.0517,0.0,0.0,0.0,0.0,0.0,0.0,0.0,0.0,0.0,0.0,0.0,0.0,0.0,0.0,0.0,0.0,0.0,0.0,0.0,0.0,0.0,-0.1632,-0.1673,-0.1678,-0.1692,-0.1725,-0.1727,-0.1726,-0.172,-0.172,0.0,0.0,0.0,0.0,-0.172,-0.1697,-0.1716,-0.1782,-0.1791,-0.185,-0.1954,-0.1954,-0.1914,-0.184,-0.1805,0.0,0.0,0.0,0.0,0.0,0.0,0.0,0.0,0.0,0.0,0.0,0.0,0.0,0.0,0.0,0.0,0.0,0.0,0.0,0.0,0.0,0.0,0.0,0.0,0.0,0.0,0.0,0.0,0.0,0.0,0.0,0.0,0.0,0.0,0.0,0.0,0.0,0.0,0.0,0.0,0.0,0.0,0.0,0.0,0.0,0.0,0.0,0.0,0.0,0.0,0.0,0.0,0.0,0.0,0.0,0.0,0.0,0.0,0.0,0.0,0.0,0.0,0.0,0.0,0.0,-1.2223,-1.2325,-1.236,-1.2101,-0.9949,-0.9424,-0.9719,0.0,0.0,0.0,0.0,0.0,0.0,0.0,0.0,0.0,0.0,0.0,0.0,0.0,0.0,0.0,0.0,0.0,0.0,0.0,0.0,-0.1648,-0.173,-0.1738,-0.1761,-0.1817,-0.1823,-0.181,-0.1785,-0.1783,0.0,0.0,0.0,-0.1756,-0.1782,-0.1779,-0.182,-0.1907,-0.1958,-0.2005,-0.2046,-0.2046,-0.2039,-0.2026,-0.1971,-0.1934,-0.1913,0.0,0.0,0.0,0.0,0.0,0.0,0.0,0.0,0.0,0.0,0.0,0.0,0.0,0.0,0.0,0.0,0.0,0.0,0.0,0.0,0.0,0.0,0.0,0.0,0.0,0.0,0.0,0.0,0.0,0.0,0.0,0.0,0.0,0.0,0.0,0.0,0.0,0.0,0.0,0.0,0.0,-1.0806,-1.0731,0.0,0.0,0.0,0.0,0.0,0.0,0.0,0.0,0.0,0.0,0.0,0.0,0.0,0.0,-1.223,-1.2332,-1.2454,-1.2583,-1.2603,-1.2691,-1.284,-1.2725,-1.1963,-1.0495,-0.8828,0.0,-0.9982,-0.8059,0.0,0.0,0.0,0.0,0.0,0.0,0.0,0.0,0.0,0.0,0.0,0.0,0.0,0.0,0.0,0.0,0.0,0.0,0.0,0.0,0.0,-0.1801,-0.1832,-0.191,-0.19,-0.1885,-0.1872,-0.1872,0.0,0.0,-0.1825,-0.1824,-0.182,-0.1838,-0.1889,-0.1981,-0.2039,-0.2086,-0.2114,-0.2114,-0.2114,-0.2114,-0.2089,-0.205,-0.2004,-0.197,0.0,0.0,0.0,0.0,0.0,0.0,0.0,0.0,0.0,0.0,0.0,0.0,0.0,0.0,0.0,0.0,0.0,0.0,0.0,0.0,0.0,0.0,0.0,0.0,0.0,0.0,0.0,0.0,0.0,0.0,0.0,0.0,0.0,0.0,0.0,0.0,0.0,0.0,0.0,-1.0968,-1.1206,-1.1219,-1.1267,-1.1321,0.0,0.0,0.0,0.0,0.0,0.0,0.0,0.0,0.0,-1.2332,-1.2338,-1.244,-1.2664,-1.2732,-1.2793,-1.2861,-1.2861,-1.2935,-1.3078,-1.2031,-1.1103,-1.0399,-0.7596,-0.6755,-0.737,-0.5468,-0.5232,-0.5799,0.0,0.0,0.0,0.0,0.0,-0.697,0.0,0.0,0.0,0.0,0.0,0.0,0.0,0.0,0.0,0.0,0.0,0.0,-0.1843,-0.1858,-0.1896,-0.1979,-0.1966,-0.1954,-0.1954,-0.1947,-0.1929,-0.1899,-0.1889,-0.1883,-0.1876,-0.1919,-0.1979,-0.2053,-0.2106,-0.2148,-0.2178,-0.2178,-0.2178,-0.2178,-0.2178,-0.2139,-0.2072,-0.2029,-0.1989,-0.1948,0.0,0.0,0.0,0.0,0.0,0.0,0.0,0.0,0.0,0.0,0.0,0.0,0.0,0.0,0.0,0.0,0.0,0.0,0.0,0.0,0.0,0.0,0.0,0.0,0.0,0.0,0.0,0.0,0.0,0.0,0.0,0.0,0.0,0.0,0.0,0.0,0.0,-1.1267,-1.1545,-1.166,-1.1606,-1.1606,0.0,0.0,0.0,0.0,0.0,0.0,-1.2454,-1.2461,-1.2562,-1.2779,-1.2786,-1.2861,-1.3017,-1.2527,-1.2385,-1.2417,-1.1931,-1.1818,-1.1746,-1.042,-0.9642,-0.9216,-0.654,-0.5203,-0.4526,-0.3273,-0.3234,-0.4344,-0.4305,-0.4915,0.0,-0.5288,-0.4934,-0.5184,0.0,0.0,0.0,0.0,0.0,0.0,0.0,0.0,0.0,0.0,0.0,-0.1814,-0.1877,-0.1909,-0.1951,-0.2011,-0.2015,-0.2014,-0.2014,-0.1989,-0.196,-0.193,-0.1902,-0.1911,-0.1969,-0.2054,-0.2114,-0.2147,-0.218,-0.2211,-0.2241,-0.2241,-0.2241,-0.2241,-0.2241,-0.2191,-0.2106,-0.2104,-0.2068,-0.2007,-0.1918,0.0,0.0,0.0,0.0,0.0,0.0,0.0,0.0,0.0,0.0,0.0,0.0,0.0,0.0,0.0,0.0,0.0,0.0,0.0,0.0,0.0,0.0,0.0,0.0,0.0,0.0,0.0,0.0,0.0,0.0,0.0,0.0,0.0,0.0,0.0,0.0,0.0,0.0,-1.1816,-1.1945,0.0,0.0,0.0,0.0,-1.2447,-1.2474,-1.261,-1.2915,-1.2929,-1.2935,-1.2949,-1.2949,-1.3017,-1.3159,-1.1516,-1.0755,-1.087,-0.9036,-0.8207,-0.8211,-0.8211,-0.7208,-0.5706,-0.5538,-0.4367,-0.2861,-0.2687,-0.2669,-0.2642,-0.2641,-0.2785,-0.3087,-0.46,-0.5273,-0.5596,0.0,0.0,0.0,-0.1617,-0.1617,-0.1624,-0.1643,-0.1655,-0.1686,-0.1753,-0.1798,-0.1854,-0.1936,-0.197,-0.2011,-0.2072,-0.2076,-0.2076,-0.2076,-0.2049,-0.2037,-0.2045,-0.2016,-0.2038,-0.2119,-0.2132,-0.2163,-0.2213,-0.2223,-0.2234,-0.2245,-0.2245,-0.2245,-0.2245,-0.2245,-0.2228,-0.2195,-0.2176,-0.2144,-0.2099,-0.2029,-0.1984,0.0,0.0,0.0,0.0,0.0,0.0,0.0,0.0,0.0,0.0,0.0,0.0,0.0,0.0,0.0,0.0,0.0,0.0,0.0,0.0,0.0,0.0,0.0,0.0,0.0,0.0,0.0,0.0,0.0,0.0,0.0,0.0,0.0,0.0,0.0,0.0,0.0,-1.2101,-1.2088,0.0,0.0,-1.2345,-1.2467,-1.2773,-1.28,-1.2888,-1.3085,-1.3098,-1.2651,-1.1587,-1.1587,-1.0947,-0.9828,-0.9226,-0.8941,-0.8977,-0.8361,-0.8049,-0.8049,-0.6853,-0.6001,-0.5317,-0.4291,-0.3437,-0.2751,-0.2751,-0.2721,-0.2676,-0.2676,-0.2669,-0.2661,-0.334,-0.366,-0.3807,0.0,-0.1637,0.0,-0.1617,-0.1625,-0.1639,-0.1659,-0.1688,-0.1731,-0.1801,-0.1846,-0.1898,-0.1969,-0.2001,-0.2038,-0.209,-0.2104,-0.2113,-0.2124,-0.2087,-0.2074,-0.2093,-0.2084,-0.2117,-0.2199,-0.2191,-0.221,-0.226,-0.226,-0.2266,-0.2275,-0.2275,-0.2275,-0.2275,-0.2275,-0.2275,-0.2273,-0.2244,-0.2213,-0.218,-0.2119,-0.2078,-0.2045,0.0,0.0,0.0,0.0,0.0,0.0,0.0,0.0,0.0,0.0,0.0,0.0,0.0,0.0,0.0,0.0,0.0,0.0,0.0,0.0,0.0,0.0,0.0,0.0,0.0,0.0,0.0,0.0,0.0,0.0,0.0,0.0,0.0,0.0,0.0,-1.2081,-1.2332,-1.2318,-1.2366,-1.2562,-1.2623,-1.2759,-1.3017,-1.254,-1.2274,-1.2414,-1.18,-1.1031,-0.9938,-0.9805,-0.9319,-0.7969,-0.7514,-0.7199,-0.7199,-0.6563,-0.6243,-0.6243,-0.5033,-0.4515,-0.4515,-0.3304,-0.2784,-0.2784,-0.2784,-0.2759,-0.2724,-0.2724,-0.2724,-0.2724,-0.2724,-0.271,-0.2864,0.0,-0.1637,-0.1618,-0.1618,-0.1643,-0.1665,-0.1665,-0.174,-0.1806,-0.1838,-0.1894,-0.1943,-0.1974,-0.2003,-0.2033,-0.2063,-0.2093,-0.2123,-0.2153,-0.2098,-0.2064,-0.2067,-0.2098,-0.2144,-0.2203,-0.2233,-0.2263,-0.2292,-0.2292,-0.2307,-0.2333,-0.2333,-0.2333,-0.2333,-0.2333,-0.2333,-0.2331,-0.2304,-0.2275,-0.2243,-0.2181,-0.2174,-0.2187,0.0,0.0,0.0,0.0,0.0,0.0,0.0,0.0,0.0,0.0,0.0,0.0,0.0,0.0,0.0,0.0,0.0,0.0,0.0,0.0,0.0,0.0,0.0,0.0,0.0,0.0,0.0,0.0,0.0,0.0,0.0,0.0,0.0,-1.2047,-1.2196,-1.2345,-1.2488,-1.2637,-1.2732,-1.2745,-1.2881,-1.3024,-1.3166,-1.1534,-1.0601,-1.0554,-0.8977,-0.8009,-0.8013,-0.8093,-0.7968,-0.7972,-0.6246,-0.5385,-0.5388,-0.3657,-0.2789,-0.2789,-0.2789,-0.2789,-0.2789,-0.2789,-0.2789,-0.2789,-0.2789,-0.2789,-0.2788,-0.2785,-0.2784,-0.2784,-0.2784,-0.2784,-0.2787,-0.1632,-0.164,-0.165,-0.165,-0.1674,-0.17,-0.1722,-0.1765,-0.1813,-0.1866,-0.1907,-0.1951,-0.2001,-0.2034,-0.2064,-0.2094,-0.2124,-0.2146,-0.2154,-0.2098,-0.2083,-0.2128,-0.2221,-0.2279,-0.2296,-0.2304,-0.2312,-0.2322,-0.2322,-0.2324,-0.2333,-0.2333,-0.2333,-0.2333,-0.2333,-0.2333,-0.2333,-0.2324,-0.2316,-0.2301,-0.2221,-0.2192,-0.2193,0.0,0.0,0.0,0.0,0.0,0.0,0.0,0.0,0.0,0.0,0.0,0.0,0.0,0.0,0.0,0.0,0.0,0.0,0.0,0.0,0.0,0.0,0.0,0.0,0.0,0.0,0.0,0.0,0.0,0.0,0.0,0.0,-1.2176,-1.2223,-1.2264,-1.2386,-1.2637,-1.2705,-1.2813,-1.303,-1.3091,-1.2684,-1.1494,-1.092,-1.0141,-0.8817,-0.8398,-0.7589,-0.6215,-0.6231,-0.5572,-0.4218,-0.3898,-0.3571,-0.3597,-0.3082,-0.2912,-0.2912,-0.2912,-0.2912,-0.2912,-0.2912,-0.2912,-0.2912,-0.2912,-0.2912,-0.2904,-0.2816,-0.2784,-0.2784,-0.2784,-0.2811,-0.2852,-0.1639,-0.165,-0.1666,-0.1678,-0.1704,-0.1734,-0.1764,-0.1805,-0.185,-0.1898,-0.1932,-0.1967,-0.2014,-0.2046,-0.2076,-0.2106,-0.2148,-0.2162,-0.2138,-0.2102,-0.2116,-0.2189,-0.2259,-0.2308,-0.2333,-0.2333,-0.2333,-0.2333,-0.2333,-0.2333,-0.2333,-0.2333,-0.2333,-0.2333,-0.2333,-0.2333,-0.2333,-0.2333,-0.2333,-0.2327,-0.2263,-0.2245,-0.2251,-0.2208,-0.22,-0.2207,-0.2169,-0.2162,-0.2174,-0.218,0.0,0.0,0.0,0.0,0.0,0.0,0.0,0.0,0.0,0.0,0.0,0.0,0.0,0.0,0.0,0.0,0.0,0.0,0.0,0.0,0.0,0.0,0.0,0.0,-1.2277,-1.2474,-1.2474,-1.2474,-1.2535,-1.2712,-1.284,-1.2655,-1.2169,-1.2074,-1.1494,-0.9775,-0.9,-0.8029,-0.7035,-0.6249,-0.5428,-0.4399,-0.4419,-0.3919,-0.2883,-0.2901,-0.2919,-0.2935,-0.2953,-0.2961,-0.2961,-0.2961,-0.2961,0.0,-0.2961,-0.2961,-0.2961,-0.2961,-0.2961,0.0,0.0,0.0,0.0,0.0,-0.2881,-0.2913,-0.1667,-0.167,-0.168,-0.1705,-0.1734,-0.1765,-0.1795,-0.1849,-0.1896,-0.1928,-0.1958,-0.1989,-0.202,-0.2048,-0.2078,-0.2112,-0.2166,-0.2177,-0.2123,-0.2125,-0.2165,-0.2241,-0.2252,-0.2279,-0.2331,-0.2333,-0.2333,-0.2333,-0.2333,-0.2333,-0.2333,-0.2333,-0.2333,-0.2333,-0.2333,-0.2333,-0.2333,-0.2333,-0.2333,-0.2331,-0.2305,-0.2311,-0.2327,-0.2271,-0.2268,-0.2285,-0.2204,-0.2192,-0.2211,-0.2188,0.0,0.0,0.0,0.0,0.0,0.0,0.0,0.0,0.0,0.0,0.0,0.0,0.0,0.0,0.0,0.0,0.0,0.0,0.0,0.0,0.0,0.0,0.0,0.0,-1.2238,-1.2417,-1.2752,-1.2766,-1.2779,-1.2779,-1.2849,-1.2194,-1.0744,-1.0511,-0.9613,-0.8017,-0.6328,-0.5335,-0.5222,0.0,0.0,0.0,0.0,-0.2936,-0.2966,-0.2966,-0.2968,-0.2972,-0.2972,-0.2972,-0.2972,-0.2972,-0.2972,-0.2972,-0.2972,-0.2972,-0.2972,-0.2972,-0.2972,-0.2971,-0.2964,-0.2961,-0.2961,-0.2965,-0.2966,0.0,-0.1701,-0.1716,-0.1734,-0.174,-0.1765,-0.1797,-0.1827,-0.1862,-0.1896,-0.1928,-0.1958,-0.1996,-0.2049,-0.206,-0.2086,-0.2142,-0.2178,-0.2195,-0.2183,-0.2229,-0.2252,-0.2245,-0.229,-0.2322,-0.2333,-0.2333,-0.2333,-0.2333,-0.2333,-0.2333,-0.2333,-0.2333,-0.2333,-0.2333,-0.2333,-0.2333,-0.2333,-0.2333,-0.2333,-0.2333,-0.2327,-0.2328,-0.2328,-0.2294,-0.23,-0.2322,-0.2305,-0.2303,-0.2309,-0.2328,-0.2304,-0.2268,-0.2292,-0.2266,0.0,0.0,0.0,0.0,0.0,0.0,0.0,0.0,0.0,0.0,0.0,0.0,0.0,0.0,0.0,0.0,0.0,0.0,0.0,-1.0257,-1.0565,-1.1177,-1.2735,-1.3017,-1.3085,-1.3085,-1.1824,-1.0947,-1.0813,-0.9497,-0.7851,-0.6218,-0.5755,-0.4932,-0.3566,-0.3063,0.0,-0.2943,-0.295,-0.2968,-0.2998,-0.2998,-0.301,-0.3035,0.0,0.0,-0.3035,-0.3035,-0.3035,-0.3035,-0.3035,-0.3035,-0.3035,-0.3035,-0.3035,-0.3029,-0.298,-0.2961,-0.2965,-0.2988,-0.2998,-0.3002,-0.1753,-0.1749,-0.1755,-0.177,-0.1797,-0.1828,-0.1858,-0.1889,-0.1925,-0.1969,-0.1988,-0.202,-0.208,-0.206,-0.206,-0.2105,-0.2123,-0.2158,-0.2219,-0.2251,-0.2274,-0.2289,-0.2318,-0.2333,-0.2333,-0.2333,-0.2333,-0.2333,-0.2333,-0.2333,-0.2333,-0.2333,-0.2333,-0.2333,-0.2333,-0.2341,-0.2356,-0.2356,-0.2356,-0.2356,-0.2356,-0.2346,-0.2331,-0.2318,-0.232,-0.2333,-0.2333,-0.2333,-0.2335,-0.235,-0.2335,-0.2315,-0.2328,-0.2312,-0.2289,0.0,0.0,0.0,0.0,0.0,0.0,0.0,0.0,0.0,0.0,0.0,0.0,0.0,0.0,-0.6904,0.0,0.0,-0.9041,-0.9992,-1.1089,-1.1684,-1.1751,-1.1934,-1.2008,-1.1873,-1.1146,-0.9928,-0.8344,-0.7366,-0.6061,-0.4408,-0.4258,-0.3764,-0.2915,-0.2931,-0.2953,-0.2983,-0.2984,-0.2999,-0.3029,-0.3029,-0.3037,-0.3052,-0.3052,-0.3052,-0.3052,-0.3052,-0.3052,-0.3052,-0.3052,-0.3052,-0.3052,-0.3052,-0.3052,-0.305,-0.3018,-0.3007,-0.3009,-0.3024,-0.3029,-0.3032,-0.1795,-0.178,-0.1775,-0.18,-0.1824,-0.1853,-0.1889,-0.1915,-0.1951,-0.2004,-0.2011,-0.2031,-0.2086,-0.2044,-0.2027,-0.2069,-0.2083,-0.2136,-0.2247,-0.2259,-0.2283,-0.2331,-0.2333,-0.2333,-0.2333,-0.2333,-0.2333,-0.2333,-0.2333,-0.2333,-0.2333,-0.2333,-0.2333,-0.2333,-0.2339,-0.2356,-0.2379,-0.2384,-0.2387,-0.2387,-0.2387,-0.2369,-0.2342,-0.2348,-0.2343,-0.2333,-0.2333,-0.2333,-0.2333,-0.2333,-0.2333,-0.2334,-0.2339,-0.2342,-0.2343,-0.2356,-0.2339,0.0,0.0,0.0,0.0,0.0,0.0,0.0,0.0,0.0,-0.6201,-0.6169,-0.6211,-0.6298,-0.6438,-0.7562,-0.8721,-0.923,-1.0639,-1.1213,-1.0272,-1.0106,-1.0162,-0.9667,-0.9637,-0.8556,-0.5665,-0.5207,-0.4404,-0.3058,-0.2887,-0.2915,-0.2968,-0.2971,-0.2984,-0.3014,-0.3016,-0.3028,-0.3052,-0.3052,-0.3052,-0.3052,-0.3052,-0.3052,-0.3052,-0.3052,-0.3052,-0.3052,-0.3052,-0.3052,-0.3052,-0.3052,-0.3052,-0.3052,-0.3059,-0.3058,-0.3052,-0.3052,-0.3052,-0.3052,-0.1795,-0.1813,-0.1831,-0.1835,-0.1838,-0.1859,-0.1917,-0.1929,-0.1943,-0.1977,-0.1981,-0.1993,-0.2024,-0.2,-0.2015,-0.2097,-0.2154,-0.2214,-0.2281,-0.2309,-0.2326,-0.2333,-0.2333,-0.2333,-0.2333,-0.2333,-0.2333,-0.2333,-0.2333,-0.2333,-0.2333,-0.2333,-0.2333,-0.2334,-0.2361,-0.2375,-0.238,-0.2408,-0.2418,-0.2418,-0.2418,-0.2401,-0.2376,-0.2403,-0.238,-0.2333,-0.2333,-0.2333,-0.2333,-0.2333,-0.2333,-0.2338,-0.2364,-0.2373,-0.2384,-0.2438,-0.2432,-0.2416,-0.245,-0.2457,0.0,-0.2462,-0.2617,-0.2779,0.0,0.0,-0.3096,-0.3159,-0.3176,-0.3032,-0.3069,-0.3237,-0.3901,-0.5593,-0.6104,-0.6646,-0.8125,-0.8332,-0.7858,-0.6203,-0.6049,-0.5908,-0.5441,-0.4085,-0.3056,-0.2909,-0.2936,-0.2966,-0.2999,-0.3002,-0.3016,-0.3046,-0.3047,-0.3048,-0.3052,-0.3052,-0.3052,-0.3052,-0.3052,-0.3052,-0.3052,-0.3052,-0.3052,-0.3052,-0.3052,-0.3052,-0.3052,-0.3052,-0.3052,-0.3055,-0.3082,-0.3076,-0.3052,-0.3052,-0.3052,-0.3052,-0.1844,-0.1858,-0.1872,-0.1889,-0.1894,-0.1902,-0.1928,-0.1947,-0.1969,-0.1997,-0.2001,-0.2012,-0.2041,-0.2004,-0.1992,-0.2029,-0.2102,-0.2173,-0.2234,-0.2297,-0.2333,-0.2333,-0.2333,-0.2333,-0.2333,-0.2333,-0.2333,-0.2333,-0.2333,-0.2333,-0.2333,-0.2333,-0.2333,-0.2334,-0.2364,-0.2378,-0.238,-0.241,-0.2413,-0.2397,-0.2397,-0.239,-0.2379,-0.2393,-0.2393,-0.2383,-0.2365,-0.2371,0.0,-0.2365,-0.2371,-0.2388,-0.2401,-0.2393,-0.2394,-0.2473,-0.2461,-0.2433,-0.2482,-0.2495,0.0,0.0,-0.2495,-0.2499,-0.2511,-0.2518,-0.2525,-0.2532,-0.256,-0.2587,-0.26,-0.3431,-0.4445,0.0,-0.6199,-0.6919,-0.6643,-0.6553,-0.5937,-0.4242,-0.3915,-0.3926,-0.3921,-0.3438,-0.2936,-0.2966,-0.298,-0.3001,-0.3032,-0.3033,-0.3039,-0.3052,-0.3052,-0.3052,-0.3052,-0.3052,-0.3052,-0.3052,-0.3052,-0.3062,-0.3078,-0.3078,-0.3088,-0.3104,-0.3104,-0.3104,-0.3104,-0.3104,-0.3104,-0.3107,-0.3119,-0.3116,-0.3103,-0.3085,-0.3078,-0.3078,-0.1881,-0.1892,-0.1906,-0.1928,-0.1939,-0.1944,-0.1944,-0.1962,-0.1984,-0.2004,-0.2007,-0.2012,-0.2026,-0.1997,-0.1979,-0.1988,-0.2071,-0.2147,-0.2208,-0.2288,-0.2333,-0.2333,-0.2333,-0.2333,-0.2333,-0.2341,-0.2345,-0.2345,-0.2353,-0.2358,-0.2358,-0.2358,-0.2358,-0.236,-0.239,-0.2394,-0.238,-0.241,-0.2401,-0.2365,-0.2365,-0.2361,-0.2357,-0.2382,-0.2388,-0.2386,-0.238,-0.2398,-0.2418,-0.2388,-0.2403,-0.2436,-0.2436,-0.2427,-0.2432,-0.2514,-0.2514,-0.2491,-0.2519,0.0,0.0,-0.2538,-0.2538,-0.2538,-0.2538,-0.2556,-0.2567,-0.2553,-0.2585,-0.2616,-0.2626,-0.3643,-0.4681,-0.4719,-0.5784,-0.6176,-0.4822,-0.4728,-0.4273,-0.3062,-0.2919,-0.2932,-0.2912,-0.2949,-0.2983,-0.3005,-0.3014,-0.3029,-0.3051,-0.3052,-0.3052,-0.3052,-0.3052,-0.3052,-0.3052,-0.3061,-0.3065,-0.3065,-0.3073,-0.3089,-0.311,-0.311,-0.3122,-0.3142,-0.3142,-0.3142,-0.3142,-0.3142,-0.3142,-0.3144,-0.3152,-0.315,-0.3141,-0.3127,-0.3116,-0.311,-0.1885,-0.191,-0.193,-0.1932,-0.1955,-0.1975,-0.1975,-0.1975,-0.1977,-0.1978,-0.1978,-0.1967,-0.1939,-0.196,-0.1988,-0.2015,-0.2101,-0.2178,-0.224,-0.23,-0.2333,-0.2333,-0.2333,-0.2333,-0.2333,-0.2361,-0.2376,-0.2376,-0.2406,-0.2421,-0.2421,-0.2421,-0.2421,-0.2423,-0.2453,-0.2433,-0.238,-0.241,-0.2388,-0.2334,-0.2334,-0.2318,-0.2303,-0.239,-0.2369,-0.2303,-0.2358,-0.2398,-0.2418,-0.2388,-0.2418,-0.2467,-0.2467,-0.2487,-0.2522,-0.2582,-0.2619,-0.2628,-0.2574,-0.2578,-0.2598,-0.2598,-0.2598,-0.2598,-0.2598,-0.26,-0.2608,-0.2637,-0.2645,-0.2654,-0.2684,-0.2714,-0.2735,-0.2736,-0.2935,-0.2966,-0.2822,-0.2853,-0.2883,-0.2912,-0.2968,-0.3003,0.0,-0.3005,-0.3006,-0.3006,-0.3035,-0.3051,-0.3052,-0.3052,-0.3052,-0.3052,-0.3052,-0.3052,-0.3052,-0.3081,-0.3096,-0.3096,-0.3126,-0.3141,-0.3141,-0.3141,-0.3142,-0.3142,-0.3142,-0.3142,-0.3142,-0.3142,-0.3142,-0.3145,-0.3175,-0.3168,-0.3146,-0.3175,-0.3167,-0.3141,-0.1941,-0.1954,-0.1962,-0.1962,-0.197,-0.1977,-0.1977,-0.1977,-0.1977,-0.1977,-0.1977,0.0,0.0,0.0,0.0,0.0,-0.2113,-0.218,-0.2241,-0.23,-0.2333,-0.2333,-0.2333,-0.2333,-0.2333,-0.2363,-0.2378,-0.2378,-0.2409,-0.2424,-0.2424,-0.2424,-0.2413,-0.2394,-0.2403,-0.2376,-0.2322,-0.235,-0.2341,-0.2307,-0.2326,-0.2339,-0.2357,-0.2427,-0.2435,-0.2412,0.0,-0.2432,-0.2418,-0.2388,-0.2432,-0.2492,-0.2451,-0.2459,-0.2496,-0.2556,-0.2594,-0.2617,-0.2617,-0.2609,-0.2601,-0.2601,-0.2601,-0.2607,-0.2627,-0.2631,-0.2635,-0.2645,-0.2695,-0.2735,-0.2725,-0.2763,-0.2799,-0.2799,-0.2807,-0.2825,-0.2855,-0.2883,-0.292,-0.2971,-0.2994,0.0,0.0,0.0,0.0,-0.3037,-0.3046,-0.3052,-0.3052,-0.3052,-0.3052,-0.3052,-0.3071,-0.3082,-0.3082,-0.3112,-0.3127,-0.3127,-0.3159,-0.3172,-0.3174,-0.3193,-0.3201,-0.3201,-0.3201,-0.3201,-0.3201,-0.3201,-0.3201,-0.3202,-0.3212,-0.321,-0.3202,-0.3212,-0.3209,-0.3198,-0.1973,-0.1977,-0.1977,-0.1977,-0.1977,0.0,0.0,0.0,0.0,0.0,0.0,0.0,0.0,0.0,0.0,0.0,0.0,-0.218,-0.2241,-0.2281,-0.2311,-0.2331,-0.2312,-0.2311,-0.2333,-0.2352,-0.2372,-0.2394,-0.2414,-0.2435,-0.2455,-0.2433,-0.2413,-0.2394,-0.2383,-0.2346,-0.2292,-0.2309,-0.2319,-0.232,-0.2307,-0.2333,-0.2383,-0.2421,-0.2424,0.0,-0.2454,-0.245,-0.242,-0.2401,-0.244,-0.2493,-0.2465,-0.2491,-0.2536,-0.2555,-0.2602,-0.265,-0.2647,-0.2641,-0.2634,-0.2634,-0.2634,-0.2639,-0.2658,-0.2662,-0.2662,-0.2662,-0.2718,-0.2761,-0.2742,-0.2788,-0.2831,-0.2842,-0.2863,-0.2883,-0.2902,-0.2939,-0.2975,-0.3003,-0.3016,0.0,0.0,0.0,0.0,-0.3052,-0.3052,-0.3052,-0.3052,-0.3052,-0.3056,-0.3067,-0.3088,-0.3103,-0.3114,-0.3144,-0.3164,-0.3174,-0.3194,-0.3204,-0.3204,-0.3221,-0.3236,-0.3246,-0.3246,-0.3253,-0.3262,-0.3262,-0.3262,-0.3262,-0.3262,-0.3262,-0.3262,-0.3262,-0.3262,-0.3257,-0.1977,-0.1977,-0.1977,0.0,0.0,0.0,0.0,0.0,0.0,0.0,0.0,0.0,0.0,0.0,0.0,0.0,0.0,0.0,-0.2238,-0.2245,-0.227,-0.2326,-0.2277,-0.2274,-0.233,-0.2334,-0.2364,-0.2421,-0.2424,-0.2455,-0.2511,-0.2453,-0.2425,-0.2423,-0.239,-0.2345,-0.2293,-0.2292,-0.2323,-0.2368,-0.2283,-0.2301,-0.2379,-0.2382,-0.2349,-0.2315,-0.2431,-0.2451,-0.2425,-0.2424,-0.2443,-0.2472,-0.2503,-0.2571,-0.263,-0.2577,-0.2643,-0.2721,-0.2664,-0.2671,-0.2692,-0.2692,-0.2692,-0.2692,-0.2695,-0.2695,-0.2695,-0.2697,-0.2722,-0.2744,0.0,0.0,-0.2845,-0.2874,-0.2926,-0.2962,-0.2964,-0.3013,-0.304,0.0,0.0,0.0,0.0,0.0,0.0,-0.3052,0.0,-0.3052,-0.3052,-0.3054,-0.3067,-0.3096,-0.31,-0.3116,-0.3145,-0.3175,-0.3204,-0.323,-0.323,-0.3231,-0.3232,-0.3232,-0.3249,-0.3279,-0.3279,-0.3295,-0.3321,-0.3321,-0.3321,-0.3321,-0.3321,-0.3321,-0.3321,-0.3321,-0.3321,-0.3313,0.0,0.0,0.0,0.0,0.0,0.0,0.0,0.0,0.0,0.0,0.0,0.0,0.0,0.0,0.0,0.0,0.0,0.0,-0.2208,-0.2233,-0.2252,-0.2267,-0.2275,-0.2286,-0.2301,-0.2345,-0.2375,-0.239,-0.2435,-0.2465,-0.248,-0.2465,-0.2446,-0.2421,-0.2368,-0.2335,-0.232,-0.23,-0.2311,-0.2342,-0.2319,-0.2338,-0.2383,-0.2428,-0.2436,-0.2431,-0.2484,-0.2484,-0.2454,-0.2431,-0.2429,-0.244,-0.2472,-0.2511,-0.2553,-0.2582,-0.2628,-0.2672,-0.2679,-0.2687,-0.2692,-0.2692,-0.2692,-0.2698,-0.2721,-0.2727,-0.2732,-0.2755,-0.2803,-0.284,0.0,0.0,0.0,-0.2938,-0.2951,0.0,-0.2992,-0.3009,0.0,-0.3039,0.0,-0.3052,-0.3052,-0.3052,0.0,0.0,-0.3052,-0.3052,-0.3052,-0.3074,-0.3089,-0.3097,-0.3141,-0.3168,-0.3176,-0.3205,-0.3223,-0.323,-0.323,-0.3242,-0.3264,-0.3264,-0.328,-0.331,-0.331,-0.3314,-0.3321,-0.3321,-0.3321,-0.3321,-0.3321,-0.3321,-0.3321,-0.3321,-0.3321,-0.3318,0.0,0.0,0.0,0.0,0.0,0.0,0.0,0.0,0.0,0.0,0.0,0.0,0.0,0.0,0.0,0.0,0.0,0.0,0.0,-0.2203,-0.2218,-0.2244,-0.2236,-0.2249,-0.229,-0.2297,-0.2333,-0.2398,-0.2393,-0.241,-0.2448,-0.2409,-0.2375,-0.2343,-0.2309,-0.2294,-0.2293,-0.2278,-0.2326,0.0,0.0,-0.2383,-0.2459,-0.2466,-0.2469,-0.2473,-0.2503,-0.2495,-0.2469,-0.2465,-0.2455,-0.2448,-0.248,-0.2527,-0.2579,-0.2612,-0.2653,-0.2687,-0.2691,-0.2692,-0.2695,-0.2709,-0.2713,-0.272,-0.2751,-0.2758,-0.2759,-0.2762,-0.2812,0.0,-0.2837,0.0,0.0,0.0,0.0,0.0,-0.3024,-0.3039,-0.3048,0.0,-0.3052,0.0,-0.3052,-0.3052,-0.3052,0.0,-0.3065,-0.3071,-0.3071,-0.3101,-0.3123,-0.3137,-0.3171,-0.3194,-0.3206,-0.3223,-0.323,-0.323,-0.3243,-0.326,-0.3276,-0.329,-0.3313,-0.3341,0.0,-0.3348,-0.336,-0.336,-0.3369,-0.338,-0.3366,-0.3377,-0.3399,-0.3385,-0.3389,-0.3399,0.0,0.0,0.0,0.0,0.0,0.0,0.0,0.0,0.0,-0.1993,0.0,0.0,0.0,0.0,0.0,0.0,0.0,0.0,0.0,0.0,-0.2178,-0.2232,-0.2187,-0.2198,-0.2277,-0.2234,-0.2274,-0.2399,-0.233,-0.2334,-0.2405,-0.2331,-0.2282,-0.2256,-0.2256,-0.2259,-0.2263,-0.2259,-0.2349,-0.2487,-0.2382,-0.242,-0.2536,0.0,-0.2472,-0.2478,-0.2504,-0.2495,-0.2474,-0.2508,-0.25,-0.248,-0.2511,-0.2578,-0.2647,-0.2647,-0.2687,-0.2727,-0.2705,-0.2698,-0.2706,-0.2736,-0.2744,-0.2751,-0.2782,-0.2787,-0.2777,-0.2755,-0.2792,-0.2821,-0.2795,-0.2861,-0.2931,-0.2957,0.0,-0.3052,-0.3052,-0.3074,-0.3082,-0.3055,-0.3052,-0.3052,-0.3052,-0.3055,-0.3058,-0.3058,-0.3091,-0.3106,-0.3097,-0.313,-0.3163,-0.3193,-0.3194,-0.3205,-0.323,-0.323,-0.3232,-0.3236,-0.3264,-0.328,-0.3288,-0.3315,-0.3344,-0.3373,0.0,0.0,-0.3412,-0.3416,-0.3431,-0.3449,-0.3431,-0.3453,-0.3493,-0.3471,-0.348,-0.3499,0.0,0.0,0.0,0.0,0.0,0.0,0.0,-0.2011,-0.203,-0.2079,-0.2074,-0.2074,0.0,0.0,0.0,0.0,0.0,0.0,0.0,0.0,0.0,-0.217,-0.2184,-0.22,-0.2215,-0.2255,-0.2275,-0.2277,-0.2309,-0.2322,-0.2313,-0.2322,-0.2323,-0.2318,-0.2318,-0.2331,-0.2353,-0.2328,-0.235,-0.2399,-0.2379,-0.2401,-0.2448,-0.2463,0.0,0.0,-0.2512,-0.2495,-0.2477,-0.2533,-0.2532,-0.2512,-0.2542,-0.2596,-0.2647,-0.2647,-0.2672,-0.2705,-0.2725,-0.2729,-0.2737,-0.2767,-0.2776,-0.2784,-0.2814,-0.2801,-0.2789,-0.2808,-0.2821,-0.2827,-0.2822,-0.2894,-0.2956,-0.2961,-0.3013,-0.3052,-0.3052,-0.3056,-0.3058,0.0,-0.3052,-0.3052,-0.3052,0.0,0.0,0.0,0.0,0.0,-0.31,-0.315,-0.3194,-0.3223,-0.3223,-0.3225,-0.323,-0.323,-0.3243,-0.3268,-0.3273,-0.3302,-0.3351,-0.3356,-0.3375,-0.3404,0.0,0.0,-0.3414,-0.344,-0.3438,-0.3425,-0.3469,-0.3478,-0.3467,-0.3487,-0.3499,-0.3502,0.0,0.0,0.0,0.0,0.0,0.0,0.0,-0.2056,-0.2087,-0.2148,-0.2144,-0.2135,-0.2133,-0.2146,-0.2155,0.0,0.0,0.0,0.0,0.0,0.0,-0.2155,-0.2169,-0.2184,-0.22,-0.2229,-0.2259,-0.229,0.0,-0.2311,-0.2312,-0.2311,-0.2303,-0.2288,-0.2288,-0.2304,-0.2331,-0.23,-0.2323,-0.2378,-0.2378,-0.2406,-0.245,-0.2481,0.0,0.0,-0.2514,-0.2504,-0.2499,-0.2545,-0.256,-0.2564,-0.2596,-0.2624,-0.265,-0.2665,-0.2682,-0.2699,-0.2729,-0.2737,-0.2748,-0.2796,-0.2807,-0.2811,-0.2825,-0.2818,-0.2801,-0.2785,-0.2793,-0.28,-0.2784,-0.2855,-0.2921,-0.2935,-0.2988,-0.3035,-0.305,-0.3052,-0.3052,-0.3052,-0.3052,-0.3058,0.0,0.0,0.0,0.0,0.0,0.0,-0.3146,-0.3186,-0.3216,-0.323,-0.323,-0.3238,-0.3254,-0.3254,-0.3269,-0.3299,-0.3315,-0.3339,-0.3367,-0.3382,-0.3397,-0.3412,0.0,0.0,-0.3412,-0.3427,-0.3444,-0.346,-0.3474,-0.3499,-0.3527,-0.3524,-0.3534,-0.3544,0.0,0.0,0.0,0.0,0.0,0.0,0.0,-0.2099,-0.2143,-0.221,-0.2214,-0.22,-0.2177,-0.2169,-0.2162,0.0,0.0,0.0,0.0,0.0,0.0,0.0,0.0,-0.2169,-0.2199,0.0,0.0,0.0,-0.2301,0.0,0.0,0.0,0.0,0.0,-0.2255,-0.2268,-0.2289,-0.2259,-0.2293,0.0,0.0,-0.2414,-0.2473,0.0,0.0,0.0,0.0,-0.2514,-0.2519,-0.2556,-0.2583,-0.2608,-0.2645,-0.2657,-0.2662,-0.2692,-0.2702,-0.2709,-0.2739,-0.2752,-0.277,-0.2825,-0.2838,-0.2837,-0.283,-0.2823,-0.2803,-0.2748,-0.2757,-0.2769,-0.2751,-0.2816,-0.2885,-0.292,-0.2971,-0.3017,-0.3048,-0.3052,-0.3052,-0.3052,-0.3058,0.0,-0.3095,0.0,0.0,0.0,0.0,0.0,0.0,-0.3219,-0.323,-0.323,-0.323,-0.3245,-0.3276,-0.3276,-0.3294,-0.333,-0.3355,-0.337,-0.3377,-0.3401,-0.3412,-0.3412,0.0,0.0,0.0,-0.3419,-0.345,-0.3491,-0.348,-0.352,-0.358,-0.3562,-0.3569,-0.3587,0.0,0.0,0.0,0.0,0.0,0.0,0.0,-0.2131,-0.2183,-0.2271,-0.2259,-0.224,-0.2237,-0.2213,-0.2185,0.0,0.0,0.0,0.0,0.0,0.0,0.0,0.0,0.0,0.0,0.0,0.0,-0.2294,0.0,0.0,0.0,0.0,0.0,0.0,0.0,-0.2289,-0.2289,-0.2259,0.0,0.0,0.0,0.0,0.0,0.0,0.0,0.0,0.0,-0.2514,-0.2522,-0.2579,-0.26,-0.2612,-0.2671,-0.2688,-0.2694,-0.2725,-0.2733,-0.274,-0.277,-0.2799,-0.2829,-0.2861,-0.287,-0.2863,-0.2834,-0.2807,-0.2778,-0.2744,-0.274,-0.275,-0.2774,-0.2831,-0.2893,-0.2947,-0.2986,-0.3017,-0.3048,-0.3052,-0.3052,-0.3052,0.0,0.0,-0.3097,0.0,0.0,0.0,0.0,0.0,0.0,-0.3228,-0.323,-0.323,-0.323,-0.3245,-0.3276,-0.3276,-0.3305,-0.3362,-0.3365,-0.3381,-0.3408,-0.3411,-0.3412,-0.3412,0.0,0.0,0.0,-0.3441,-0.3456,-0.3467,-0.3516,-0.354,-0.3551,-0.3576,-0.3587,-0.3589,0.0,0.0,0.0,0.0,0.0,0.0,-0.2154,-0.2174,-0.2214,-0.2304,-0.229,-0.2273,-0.2273,-0.2262,-0.2228,-0.2161,0.0,0.0,0.0,0.0,0.0,0.0,0.0,0.0,0.0,0.0,-0.2278,-0.229,0.0,0.0,0.0,0.0,0.0,0.0,0.0,-0.2274,-0.2289,-0.2259,0.0,0.0,0.0,0.0,0.0,0.0,0.0,0.0,0.0,0.0,-0.2571,-0.2594,-0.2626,-0.2661,-0.2684,-0.2692,-0.2695,-0.2707,-0.2736,-0.2767,-0.278,-0.2806,-0.2836,-0.2867,-0.2874,-0.2861,-0.2812,-0.2792,-0.2769,-0.2721,-0.271,-0.272,-0.275,-0.2791,-0.2845,-0.2921,-0.296,-0.2996,-0.3046,-0.3067,-0.308,-0.308,-0.3107,0.0,0.0,0.0,0.0,0.0,0.0,0.0,0.0,-0.323,-0.323,-0.323,-0.3247,-0.3272,-0.3302,-0.3321,-0.3352,-0.3393,-0.3393,-0.34,-0.3412,-0.3412,-0.3412,-0.3412,0.0,0.0,0.0,-0.3425,-0.3441,-0.3461,-0.3502,-0.3531,-0.3549,-0.358,-0.3589,-0.3589,0.0,0.0,0.0,0.0,0.0,-0.2127,-0.2178,-0.2202,-0.2238,-0.2311,-0.2303,-0.2294,-0.2303,-0.2288,-0.2255,-0.22,-0.2178,0.0,0.0,0.0,0.0,0.0,0.0,0.0,0.0,0.0,-0.2304,-0.233,-0.2341,0.0,0.0,0.0,0.0,0.0,0.0,0.0,0.0,0.0,0.0,0.0,0.0,0.0,0.0,0.0,0.0,0.0,0.0,0.0,0.0,0.0,0.0,-0.268,-0.269,-0.2699,-0.271,-0.2728,-0.2757,-0.2787,-0.2806,-0.2826,-0.2846,-0.2868,-0.2874,-0.2857,-0.2797,-0.2784,-0.2769,-0.2717,-0.2699,-0.2707,-0.2755,-0.2774,-0.2815,-0.2913,-0.2947,-0.2983,-0.3043,-0.3078,-0.3097,-0.3097,0.0,0.0,0.0,0.0,0.0,0.0,0.0,0.0,0.0,-0.3243,-0.3243,-0.3243,-0.3265,-0.3295,-0.3335,-0.3355,-0.3382,-0.3412,-0.3412,-0.3412,-0.3412,-0.3412,-0.3412,0.0,0.0,0.0,0.0,-0.3425,-0.3449,-0.3486,-0.3506,-0.3534,-0.3562,-0.3583,-0.3365,-0.3141,0.0,0.0,0.0,0.0,0.0,0.0,-0.215,-0.2206,-0.2256,-0.2288,-0.2292,-0.2301,-0.233,-0.2281,-0.2258,-0.2288,-0.2234,0.0,0.0,0.0,0.0,0.0,0.0,0.0,0.0,0.0,-0.2334,-0.2423,-0.2393,-0.2393,-0.2421,-0.2391,-0.2361,-0.2331,0.0,0.0,0.0,0.0,0.0,0.0,0.0,0.0,-0.2514,0.0,0.0,0.0,0.0,0.0,0.0,0.0,0.0,0.0,0.0,-0.2713,-0.275,-0.281,-0.2806,-0.2796,-0.2856,-0.2874,-0.2874,-0.2874,-0.2874,-0.2857,-0.2797,-0.2784,-0.2774,-0.2744,-0.2713,-0.272,-0.2811,-0.2803,-0.2822,-0.2942,-0.2961,-0.2983,-0.3043,-0.3078,-0.3097,0.0,0.0,-0.3187,0.0,0.0,0.0,0.0,0.0,0.0,0.0,0.0,-0.3276,-0.3276,-0.3276,-0.3305,-0.3366,-0.3366,-0.3382,-0.3412,-0.3412,-0.3412,-0.3412,-0.3412,0.0,0.0,0.0,0.0,0.0,-0.3457,-0.3491,-0.3326,-0.3326,-0.3565,-0.3594,-0.3594,-0.2919,-0.1796,0.0,0.0,0.0,0.0,0.0,0.0,0.0,-0.2184,-0.2202,-0.2253,-0.2241,-0.224,-0.227,-0.2275,-0.2273,-0.226,-0.2243,0.0,0.0,0.0,0.0,0.0,0.0,0.0,0.0,0.0,-0.2334,-0.2361,-0.2352,-0.2363,-0.2391,-0.2342,-0.2323,-0.2331,-0.2282,0.0,0.0,0.0,0.0,0.0,0.0,-0.2514,-0.2514,0.0,0.0,0.0,0.0,0.0,0.0,0.0,0.0,0.0,0.0,0.0,0.0,-0.278,-0.2821,-0.2845,-0.2844,-0.2872,-0.2898,-0.2879,-0.2874,-0.2857,-0.2797,-0.2784,-0.2769,-0.2717,-0.2716,-0.2739,-0.2788,-0.2807,-0.2853,-0.2973,-0.2992,-0.3021,-0.3103,-0.3141,-0.316,-0.316,-0.3176,-0.3189,0.0,0.0,0.0,0.0,0.0,0.0,0.0,0.0,-0.3307,-0.3307,-0.3326,-0.3347,-0.3366,-0.3386,-0.3403,-0.3412,-0.3412,-0.3412,-0.3412,-0.3412,0.0,0.0,0.0,0.0,0.0,-0.2174,-0.2187,-0.2199,-0.2212,-0.2222,-0.245,-0.3361,-0.3369,-0.2694,0.0,0.0,0.0,0.0,0.0,0.0,0.0,-0.2177,-0.2181,-0.2207,-0.2204,-0.2211,-0.2241,-0.2262,-0.2275,-0.2278,-0.2278,0.0,0.0,0.0,0.0,0.0,0.0,0.0,0.0,-0.2323,-0.2343,-0.2367,-0.2367,-0.2376,-0.2394,-0.2358,-0.2338,-0.2331,-0.2307,-0.2309,0.0,0.0,0.0,0.0,-0.2507,-0.2514,-0.2514,0.0,0.0,0.0,0.0,0.0,0.0,0.0,0.0,0.0,0.0,0.0,0.0,0.0,-0.2801,-0.2841,-0.2845,-0.2872,-0.2896,-0.2879,-0.2866,-0.2844,-0.2795,-0.2774,-0.2755,-0.2717,-0.2716,-0.2737,-0.2791,-0.2807,-0.2846,-0.2956,-0.2981,-0.3013,-0.3082,-0.3138,-0.3179,-0.3201,0.0,0.0,0.0,0.0,0.0,0.0,0.0,0.0,0.0,0.0,-0.3343,-0.3355,-0.3363,-0.3371,-0.3384,-0.3403,-0.3412,-0.3412,-0.3412,-0.3412,-0.3412,0.0,0.0,0.0,0.0,0.0,0.0,-0.1317,-0.1102,-0.1105,-0.1112,-0.1114,-0.1115,-0.2017,-0.2245,-0.2021,0.0,0.0,0.0,0.0,0.0,0.0,0.0,-0.2178,-0.2187,-0.2158,-0.2178,-0.2207,-0.2236,-0.2243,-0.2267,-0.2322,0.0,0.0,0.0,0.0,0.0,0.0,0.0,0.0,0.0,-0.2335,-0.2363,-0.2417,-0.242,-0.242,-0.242,-0.2418,-0.239,-0.2339,-0.2363,-0.2358,0.0,0.0,0.0,0.0,-0.2514,-0.2514,0.0,0.0,0.0,0.0,0.0,0.0,0.0,0.0,0.0,0.0,0.0,0.0,0.0,0.0,0.0,0.0,0.0,-0.2867,-0.287,-0.2868,-0.2846,-0.2818,-0.2787,-0.2758,0.0,-0.2735,-0.2714,-0.2722,-0.2812,-0.2806,-0.2816,-0.2911,-0.2947,-0.2977,-0.3014,-0.3095,-0.317,0.0,-0.3205,0.0,0.0,0.0,0.0,0.0,0.0,0.0,0.0,0.0,0.0,-0.3411,-0.3384,-0.3384,-0.3411,-0.3412,-0.3412,-0.3412,-0.3412,-0.3412,-0.3202,0.0,0.0,0.0,0.0,0.0,0.0,-0.0888,0.0,0.0,0.0,0.0,0.0,0.0,0.0,0.0,0.0,0.0,0.0,0.0,0.0,0.0,0.0,0.0,0.0,0.0,-0.2161,-0.2168,-0.2176,-0.2218,-0.2251,0.0,0.0,0.0,0.0,0.0,0.0,0.0,0.0,0.0,0.0,-0.2356,-0.2363,-0.2354,-0.2378,-0.2388,-0.2388,-0.2365,-0.2371,-0.2399,-0.2338,-0.2333,0.0,0.0,0.0,0.0,-0.2514,-0.2514,0.0,0.0,0.0,0.0,-0.2522,-0.2557,0.0,0.0,0.0,0.0,0.0,0.0,0.0,0.0,-0.2742,-0.2781,-0.2773,0.0,-0.2834,-0.2811,-0.2799,-0.2787,0.0,-0.2743,-0.2731,-0.2707,-0.2716,-0.2748,-0.2816,-0.2822,-0.2863,-0.2998,-0.3007,-0.3031,-0.3131,-0.3183,-0.3224,-0.3261,-0.32,0.0,0.0,0.0,0.0,0.0,0.0,0.0,0.0,0.0,0.0,-0.3411,-0.3405,-0.3404,-0.3412,-0.3412,-0.3412,-0.3412,-0.3412,-0.2995,-0.2153,0.0,0.0,0.0,0.0,0.0,-0.0666,-0.0223,0.0,0.0,0.0,0.0,0.0,0.0,0.0,0.0,0.0,0.0,0.0,0.0,0.0,0.0,0.0,0.0,0.0,0.0,0.0,-0.215,0.0,0.0,0.0,0.0,0.0,0.0,0.0,0.0,0.0,0.0,0.0,0.0,-0.2333,-0.2349,-0.2356,-0.2353,-0.2371,-0.2386,-0.2398,-0.2368,-0.2371,-0.2401,-0.2352,-0.2364,0.0,0.0,0.0,-0.2514,-0.2514,0.0,0.0,0.0,0.0,0.0,-0.2514,-0.2552,0.0,-0.2601,-0.2642,-0.2692,0.0,0.0,0.0,0.0,-0.2725,-0.2755,-0.2725,-0.2782,-0.2842,-0.2811,-0.2793,-0.2778,-0.2762,-0.2737,-0.2713,-0.2697,-0.2706,-0.2736,-0.2796,-0.2819,-0.2864,-0.2972,-0.2999,-0.305,-0.3171,-0.3224,-0.3257,-0.3273,0.0,0.0,0.0,0.0,0.0,0.0,0.0,0.0,0.0,0.0,0.0,0.0,-0.3412,-0.3412,-0.3412,-0.3412,-0.3198,-0.2558,-0.3212,-0.3011,-0.2376,0.0,0.0,0.0,0.0,0.0,0.0,0.0,0.0,0.0,0.0,0.0,0.0,0.0,0.0,0.0,0.0,0.0,0.0,0.0,0.0,0.0,0.0,0.0,0.0,0.0,0.0,0.0,0.0,0.0,0.0,0.0,0.0,0.0,0.0,0.0,0.0,0.0,0.0,-0.202,-0.2187,-0.2192,-0.235,-0.2372,-0.2386,-0.2403,-0.2423,-0.2406,-0.2391,-0.2379,-0.2393,-0.242,0.0,0.0,0.0,-0.2514,-0.2514,0.0,0.0,0.0,0.0,0.0,0.0,0.0,0.0,-0.2596,-0.2635,-0.2686,-0.2686,0.0,0.0,0.0,0.0,0.0,-0.2713,-0.2792,-0.2868,-0.2819,-0.2792,-0.2776,-0.277,-0.2729,-0.2692,-0.2692,-0.2697,-0.272,-0.2785,-0.2822,-0.2864,-0.2932,-0.2995,-0.307,-0.3174,-0.3235,-0.327,-0.3275,0.0,0.0,0.0,0.0,0.0,0.0,0.0,0.0,0.0,0.0,0.0,0.0,-0.3412,-0.3412,-0.3412,-0.3412,-0.2985,-0.1919,-0.2582,-0.281,-0.2815,-0.0874,0.0,0.0,0.0,0.0,0.0,0.0,0.0,0.0,0.0,0.0,0.0,0.0,0.0,0.0,0.0,0.0,0.0,0.0,0.0,0.0,0.0,0.0,0.0,0.0,0.0,0.0,0.0,0.0,0.0,0.0,0.0,0.0,0.0,0.0,0.0,0.0,0.0,0.0,-0.1313,-0.1916,-0.2361,-0.2342,-0.2418,-0.2444,-0.2425,-0.2472,-0.2453,-0.2382,-0.2459,-0.2455,-0.2397,-0.2474,0.0,-0.2514,-0.2514,0.0,0.0,0.0,0.0,0.0,0.0,0.0,0.0,-0.2566,-0.2605,-0.2654,-0.2654,0.0,0.0,0.0,0.0,0.0,-0.277,-0.2838,-0.2878,-0.2746,-0.2729,-0.2737,-0.2713,-0.2699,-0.2692,-0.2692,-0.2713,-0.2758,-0.2844,-0.2883,-0.2939,-0.3051,-0.312,-0.3167,0.0,0.0,-0.3246,0.0,0.0,0.0,0.0,0.0,0.0,0.0,0.0,0.0,0.0,0.0,0.0,0.0,0.0,-0.3412,-0.3412,-0.3412,-0.3412,-0.3199,-0.1291,-0.0434,-0.0437,-0.022,0.0,0.0,0.0,0.0,0.0,0.0,0.0,0.0,0.0,0.0,0.0,0.0,0.0,0.0,0.0,0.0,0.0,0.0,0.0,0.0,0.0,0.0,0.0,0.0,0.0,0.0,0.0,0.0,0.0,0.0,0.0,0.0,0.0,0.0,0.0,0.0,0.0,0.0,-0.0578,-0.0884,-0.1339,-0.1638,-0.1689,-0.1714,-0.1872,-0.2336,-0.245,-0.238,-0.2423,-0.2427,-0.2406,-0.2465,-0.2499,-0.2514,0.0,0.0,0.0,0.0,0.0,0.0,0.0,0.0,0.0,0.0,-0.2598,-0.2647,-0.2647,0.0,0.0,0.0,0.0,0.0,-0.2739,-0.2788,-0.2827,-0.2759,-0.2788,-0.283,-0.2816,-0.2801,-0.2791,-0.2791,-0.2801,-0.2829,-0.2886,-0.292,-0.2975,-0.3081,-0.3149,-0.3194,0.0,0.0,0.0,0.0,0.0,0.0,0.0,0.0,0.0,0.0,0.0,0.0,0.0,0.0,0.0,0.0,0.0,0.0,-0.3412,-0.2142,-0.1503,-0.1503,-0.0433,0.0,0.0,0.0,0.0,0.0,0.0,0.0,0.0,0.0,0.0,0.0,0.0,0.0,0.0,0.0,0.0,0.0,0.0,0.0,0.0,0.0,0.0,0.0,0.0,0.0,0.0,0.0,0.0,0.0,0.0,0.0,0.0,0.0,0.0,0.0,0.0,0.0,0.0,0.0,0.0,0.0,0.0,0.0,-0.0301,-0.0916,-0.0942,-0.0959,-0.0967,-0.1884,-0.2141,-0.209,-0.209,-0.2102,-0.2274,-0.2457,-0.2487,-0.2514,0.0,0.0,0.0,0.0,0.0,0.0,0.0,0.0,0.0,0.0,0.0,0.0,0.0,0.0,0.0,-0.2692,-0.2714,-0.2735,-0.2718,-0.2752,-0.2796,-0.2803,-0.284,-0.2881,-0.2901,-0.2879,-0.2857,-0.2871,-0.2879,-0.2894,-0.2931,-0.298,-0.304,-0.3116,-0.3168,0.0,0.0,0.0,0.0,0.0,0.0,0.0,0.0,0.0,0.0,0.0,0.0,0.0,0.0,0.0,0.0,0.0,0.0,0.0,-0.2567,-0.0863,0.0,0.0,0.0,0.0,0.0,0.0,0.0,0.0,0.0,0.0,0.0,0.0,0.0,0.0,0.0,0.0,0.0,0.0,0.0,0.0,0.0,0.0,0.0,0.0,0.0,0.0,0.0,0.0,0.0,0.0,0.0,0.0,0.0,0.0,0.0,0.0,0.0,0.0,0.0,0.0,0.0,0.0,0.0,0.0,0.0,0.0,-0.0,-0.0157,-0.0162,-0.0165,-0.0165,-0.0957,-0.1394,-0.1361,-0.1361,-0.1361,-0.1364,-0.2148,-0.2487,-0.2514,-0.2514,0.0,0.0,0.0,0.0,0.0,0.0,0.0,0.0,0.0,0.0,0.0,0.0,0.0,-0.2692,-0.2692,-0.2714,-0.2743,-0.277,-0.28,-0.2831,-0.286,-0.2808,-0.2773,-0.2857,-0.2831,-0.2806,-0.2863,-0.2894,-0.2931,-0.299,-0.3095,-0.3183,-0.3219,-0.3227,0.0,0.0,0.0,0.0,0.0,0.0,0.0,0.0,0.0,0.0,0.0,0.0,0.0,0.0,0.0,0.0,0.0,0.0,0.0,-0.0216,-0.0,0.0,0.0,0.0,0.0,0.0,0.0,0.0,0.0,0.0,0.0,0.0,0.0,0.0,0.0,0.0,0.0,0.0,0.0,0.0,0.0,0.0,0.0,0.0,0.0,0.0,0.0,0.0,0.0,0.0,0.0,0.0,0.0,0.0,0.0,0.0,0.0,0.0,0.0,0.0,0.0,0.0,0.0,0.0,0.0,0.0,0.0,0.0,0.0,0.0,0.0,-0.0,-0.0316,-0.046,-0.0449,-0.0446,-0.0446,-0.045,-0.0758,-0.1228,-0.1865,-0.235,-0.2514,0.0,0.0,0.0,0.0,0.0,0.0,0.0,0.0,-0.2563,-0.2604,-0.2617,-0.2654,-0.2692,-0.2692,-0.2701,-0.2712,-0.2724,-0.2763,-0.2807,-0.2838,-0.2657,-0.2664,-0.2912,-0.2926,-0.2939,-0.3001,-0.3006,-0.3013,-0.3055,-0.31,-0.3148,-0.3197,-0.2604,0.0,0.0,0.0,0.0,0.0,0.0,0.0,0.0,0.0,0.0,0.0,0.0,0.0,0.0,0.0,0.0,0.0,0.0,0.0,0.0,0.0,0.0,0.0,0.0,0.0,0.0,0.0,0.0,0.0,0.0,0.0,0.0,0.0,0.0,0.0,0.0,0.0,0.0,0.0,0.0,0.0,0.0,0.0,0.0,0.0,0.0,0.0,0.0,0.0,0.0,0.0,0.0,0.0,0.0,0.0,0.0,0.0,0.0,0.0,0.0,0.0,0.0,0.0,0.0,0.0,0.0,0.0,0.0,0.0,0.0,0.0,0.0,0.0,0.0,0.0,0.0,0.0,0.0,0.0,-0.0305,-0.0926,-0.1564,-0.1886,0.0,0.0,0.0,0.0,0.0,0.0,0.0,0.0,-0.2555,-0.2592,-0.2613,-0.2482,-0.2178,-0.2186,-0.2203,-0.2221,-0.2213,-0.2241,-0.2279,-0.2303,-0.2316,-0.2338,-0.2394,-0.2793,-0.301,-0.307,-0.3082,-0.3086,-0.3108,-0.3127,0.0,0.0,0.0,0.0,0.0,0.0,0.0,0.0,0.0,0.0,0.0,0.0,0.0,0.0,0.0,0.0,0.0,0.0,0.0,0.0,0.0,0.0,0.0,0.0,0.0,0.0,0.0,0.0,0.0,0.0,0.0,0.0,0.0,0.0,0.0,0.0,0.0,0.0,0.0,0.0,0.0,0.0,0.0,0.0,0.0,0.0,0.0,0.0,0.0,0.0,0.0,0.0,0.0,0.0,0.0,0.0,0.0,0.0,0.0,0.0,0.0,0.0,0.0,0.0,0.0,0.0,0.0,0.0,0.0,0.0,0.0,0.0,0.0,0.0,0.0,0.0,0.0,0.0,0.0,0.0,0.0,0.0,0.0,0.0,0.0,-0.0471,-0.1414,0.0,0.0,0.0,0.0,0.0,0.0,0.0,-0.2559,-0.257,-0.2631,-0.1988,-0.1328,-0.1342,-0.1206,-0.1234,-0.122,-0.1227,-0.124,-0.1253,-0.1247,-0.1249,-0.1288,-0.2039,-0.2983,-0.3041,-0.3101,-0.3142,-0.3144,-0.3193,0.0,0.0,0.0,0.0,0.0,0.0,0.0,0.0,0.0,0.0,0.0,0.0,0.0,0.0,0.0,0.0,0.0,0.0,0.0,0.0,0.0,0.0,0.0,0.0,0.0,0.0,0.0,0.0,0.0,0.0,0.0,0.0,0.0,0.0,0.0,0.0,0.0,0.0,0.0,0.0,0.0,0.0,0.0,0.0,0.0,0.0,0.0,0.0,0.0,0.0,0.0,0.0,0.0,0.0,0.0,0.0,0.0,0.0,0.0,0.0,0.0,0.0,0.0,0.0,0.0,0.0,0.0,0.0,0.0,0.0,0.0,0.0,0.0,0.0,0.0,0.0,0.0,0.0,0.0,0.0,0.0,0.0,0.0,0.0,0.0,-0.0158,-0.0472,0.0,0.0,0.0,0.0,0.0,0.0,0.0,0.0,0.0,-0.2442,-0.2482,-0.2012,-0.0841,-0.0341,-0.0345,-0.0341,-0.0349,-0.0536,-0.1067,-0.1275,-0.1308,-0.131,-0.1693,-0.1902,-0.1939,-0.1956,-0.1968,-0.1981,-0.2591,0.0,0.0,0.0,0.0,0.0,0.0,0.0,0.0,0.0,0.0,0.0,0.0,0.0,0.0,0.0,0.0,0.0,0.0,0.0,0.0,0.0,0.0,0.0,0.0,0.0,0.0,0.0,0.0,0.0,0.0,0.0,0.0,0.0,0.0,0.0,0.0,0.0,0.0,0.0,0.0,0.0,0.0,0.0,0.0,0.0,0.0,0.0,0.0,0.0,0.0,0.0,0.0,0.0,0.0,0.0,0.0,0.0,0.0,0.0,0.0,0.0,0.0,0.0,0.0,0.0,0.0,0.0,0.0,0.0,0.0,0.0,0.0,0.0,0.0,0.0,0.0,0.0,0.0,0.0,0.0,0.0,0.0,0.0,0.0,0.0,0.0,0.0,0.0,0.0,0.0,0.0,0.0,0.0,0.0,0.0,0.0,-0.1288,-0.1632,-0.1492,-0.0339,0.0,0.0,0.0,0.0,-0.0184,-0.0731,-0.0742,-0.0756,-0.0764,-0.0766,-0.0771,-0.0979,-0.0985,-0.0989,-0.0995,-0.1399,0.0,0.0,0.0,0.0,0.0,0.0,0.0,0.0,0.0,0.0,0.0,0.0,0.0,0.0,0.0,0.0,0.0,0.0,0.0,0.0,0.0,0.0,0.0,0.0,0.0,0.0,0.0,0.0,0.0,0.0,0.0,0.0,0.0,0.0,0.0,0.0,0.0,0.0,0.0,0.0,0.0,0.0,0.0,0.0,0.0,0.0,0.0,0.0,0.0,0.0,0.0,0.0,0.0,0.0,0.0,0.0,0.0,0.0,0.0,0.0,0.0,0.0,0.0,0.0,0.0,0.0,0.0,0.0,0.0,0.0,0.0,0.0,0.0,0.0,0.0,0.0,0.0,0.0,0.0,0.0,0.0,0.0,0.0,0.0,0.0,0.0,0.0,0.0,0.0,0.0,0.0,0.0,0.0,0.0,0.0,0.0,0.0,0.0,0.0,0.0,0.0,0.0,0.0,0.0,0.0,0.0,0.0,0.0,0.0,0.0,0.0,0.0,0.0,0.0,0.0,0.0,0.0,0.0,0.0,0.0,0.0,0.0,0.0,0.0,0.0,0.0,0.0,0.0,0.0,0.0,0.0,0.0,0.0,0.0,0.0,0.0,0.0,0.0,0.0,0.0,0.0,0.0,0.0,0.0,0.0,0.0,0.0,0.0,0.0,0.0,0.0,0.0,0.0,0.0,0.0,0.0,0.0,0.0,0.0,0.0,0.0,0.0,0.0,0.0,0.0,0.0,0.0,0.0,0.0,0.0,0.0,0.0,0.0,0.0,0.0,0.0,0.0,0.0,0.0,0.0,0.0,0.0,0.0,0.0,0.0,0.0,0.0,0.0,0.0,0.0,0.0,0.0,0.0,0.0,0.0,0.0,0.0,0.0,0.0,0.0,0.0,0.0,0.0,0.0,0.0,0.0,0.0,0.0,0.0,0.0,0.0,0.0,0.0,0.0,0.0,0.0,0.0,0.0,0.0,0.0,0.0,0.0,0.0,0.0,0.0,0.0,0.0,0.0,0.0,0.0,0.0,0.0,0.0,0.0,0.0,0.0,0.0,0.0,0.0,0.0,0.0,0.0,0.0,0.0,0.0,0.0,0.0,0.0,0.0,0.0,0.0,0.0,0.0,0.0,0.0,0.0,0.0,0.0,0.0,0.0,0.0,0.0,0.0,0.0,0.0,0.0,0.0,0.0,0.0,0.0,0.0,0.0,0.0,0.0,0.0,0.0,0.0,0.0,0.0,0.0,0.0,0.0,0.0,0.0,0.0,0.0,0.0,0.0,0.0,0.0,0.0,0.0,0.0,0.0,0.0,0.0,0.0,0.0,0.0,0.0,0.0,0.0,0.0,0.0,0.0,0.0,0.0,0.0,0.0,0.0,0.0,0.0,0.0,0.0,0.0,0.0,0.0,0.0,0.0,0.0,0.0,0.0,0.0,0.0,0.0,0.0,0.0,0.0,0.0,0.0,0.0,0.0,0.0,0.0,0.0,0.0,0.0,0.0,0.0,0.0,0.0,0.0,0.0,0.0,0.0,0.0,0.0,0.0,0.0,0.0,0.0,0.0,0.0,0.0,0.0,0.0,0.0,0.0,0.0,0.0,0.0,0.0,0.0,0.0,0.0,0.0,0.0,0.0,0.0,0.0,0.0,0.0,0.0,0.0,0.0,0.0,0.0,0.0,0.0,0.0,0.0,0.0,0.0,0.0,0.0,0.0,0.0,0.0,0.0,0.0,0.0,0.0,0.0,0.0,0.0,0.0,0.0,0.0,0.0,0.0,0.0,0.0,0.0,0.0,0.0,0.0,0.0,0.0,0.0,0.0,0.0,0.0,0.0,0.0,0.0,0.0,0.0,0.0,0.0,0.0,0.0,0.0,0.0,0.0,0.0,0.0,0.0,0.0,0.0,0.0,0.0,0.0,0.0,0.0,0.0,0.0,0.0,0.0,0.0,0.0,0.0,0.0,0.0,0.0,0.0,0.0,0.0,0.0,0.0,0.0,0.0,0.0,0.0,0.0,0.0,0.0,0.0,0.0,0.0,0.0,0.0,0.0,0.0,0.0,0.0,0.0,0.0,0.0,0.0,0.0,0.0,0.0,0.0,0.0,0.0,0.0,0.0,0.0,0.0,0.0,0.0,0.0,0.0,0.0,0.0,0.0,0.0,0.0,0.0,0.0,0.0,0.0,0.0,0.0,0.0,0.0,0.0,0.0,0.0,0.0,0.0,0.0,0.0,0.0,0.0,0.0,0.0,0.0,0.0,0.0,0.0,0.0,0.0,0.0,0.0,0.0,0.0,0.0,0.0,0.0,0.0,0.0,0.0,0.0,0.0,0.0,0.0,0.0,0.0,0.0,0.0,0.0,0.0,0.0,0.0,0.0,0.0,0.0,0.0,0.0,0.0,0.0,0.0,0.0,0.0,0.0,0.0,0.0,0.0,0.0,0.0,0.0,0.0,0.0,0.0,0.0,0.0,0.0,0.0,0.0,0.0,0.0,0.0,0.0,0.0,0.0,0.0,0.0,0.0,0.0,0.0,0.0,0.0,0.0,0.0,0.0,0.0,0.0,0.0,0.0,0.0,0.0,0.0,0.0,0.0,0.0,0.0,0.0,0.0,0.0,0.0,0.0,0.0,0.0,0.0,0.0,0.0,0.0,0.0,0.0,0.0,0.0,0.0,0.0,0.0,0.0,0.0,0.0,0.0,0.0,0.0,0.0,0.0,0.0,0.0,0.0,0.0,0.0,0.0,0.0,0.0,0.0,0.0,0.0,0.0,0.0,0.0,0.0,0.0,0.0,0.0,0.0,0.0,0.0,0.0,0.0,0.0,0.0,0.0,0.0,0.0,0.0,0.0,0.0,0.0,0.0,0.0,0.0,0.0,0.0,0.0,0.0,0.0,0.0,0.0,0.0,0.0,0.0,0.0,0.0,0.0,0.0,0.0,0.0,0.0,0.0,0.0,0.0,0.0,0.0,0.0,0.0,0.0,0.0,0.0,0.0,0.0,0.0,0.0,0.0,0.0,0.0,0.0,0.0,0.0,0.0,0.0,0.0,0.0,0.0,0.0,0.0,0.0,0.0,0.0,0.0,0.0,0.0,0.0,0.0,0.0,0.0,0.0,0.0,0.0,0.0,0.0,0.0,0.0,0.0,0.0,0.0,0.0,0.0,0.0,0.0,0.0,0.0,0.0,0.0,0.0,0.0,0.0,0.0,0.0,0.0,0.0,0.0,0.0,0.0,0.0,0.0,0.0,0.0,0.0,0.0,0.0,0.0,0.0,0.0,0.0,0.0,0.0,0.0,0.0,0.0,0.0,0.0,0.0,0.0,0.0,0.0,0.0,0.0,0.0,0.0,0.0,0.0,0.0,0.0,0.0,0.0,0.0,0.0,0.0,0.0,0.0,0.0,0.0,0.0,0.0,0.0,0.0,0.0,0.0,0.0,0.0,0.0,0.0,0.0,0.0,0.0,0.0,0.0,0.0,0.0,0.0,0.0,0.0,0.0,0.0,0.0,0.0,0.0,0.0,0.0,0.0,0.0,0.0,0.0,0.0,0.0,0.0,0.0,0.0,0.0,0.0,0.0,0.0,0.0,0.0,0.0,0.0,0.0,0.0,0.0,0.0,0.0,0.0,0.0,0.0,0.0,0.0,0.0,0.0,0.0,0.0,0.0,0.0,0.0,0.0,0.0,0.0,0.0,0.0,0.0,0.0,0.0,0.0,0.0,0.0,0.0,0.0,0.0,0.0,0.0,0.0,0.0,0.0,0.0,0.0,0.0,0.0,0.0,0.0,0.0,0.0,0.0,0.0,0.0,0.0,0.0,0.0,0.0,0.0,0.0,0.0,0.0,0.0,0.0,0.0,0.0,0.0,0.0,0.0,0.0,0.0,0.0,0.0,0.0,0.0,0.0,0.0,0.0,0.0,0.0,0.0,0.0,0.0,0.0,0.0,0.0,0.0,0.0,0.0,0.0,0.0,0.0,0.0,0.0,0.0,0.0,0.0,0.0,0.0,0.0,0.0,0.0,0.0,0.0,0.0,0.0,0.0,0.0,0.0,0.0,0.0,0.0,0.0,0.0,0.0,0.0,0.0,0.0,0.0,0.0,0.0,0.0,0.0,0.0,0.0,0.0,0.0,0.0,0.0,0.0,0.0,0.0,0.0,0.0,0.0,0.0,0.0,0.0,0.0,0.0,0.0,0.0,0.0,0.0,0.0,0.0,0.0,0.0,0.0,0.0,0.0,0.0,0.0,0.0,0.0,0.0,0.0,0.0,0.0,0.0,0.0,0.0,0.0,0.0,0.0,0.0,0.0,0.0,0.0,0.0,0.0,0.0,0.0,0.0,0.0,0.0,0.0,0.0,0.0,0.0,0.0,0.0,0.0,0.0,0.0,0.0,0.0,0.0,0.0,0.0,0.0,0.0,0.0,0.0,0.0,0.0,0.0,0.0,0.0,0.0,0.0,0.0,0.0,0.0,0.0,0.0,0.0,0.0,0.0,0.0,0.0,0.0,0.0,0.0,0.0,0.0,0.0,0.0,0.0,0.0,0.0,0.0,0.0,0.0,0.0,0.0,0.0,0.0,0.0,0.0,0.0,0.0,0.0,0.0,0.0,0.0,0.0,0.0,0.0,0.0,0.0,0.0,0.0,0.0,0.0,0.0,0.0,0.0,0.0,0.0,0.0,0.0,0.0,0.0,0.0,0.0,0.0,0.0,0.0,0.0,0.0,0.0,0.0,0.0,0.0,0.0,0.0,0.0,0.0,0.0,0.0,0.0,0.0,0.0,0.0,0.0,0.0,0.0,0.0,0.0,0.0,0.0,0.0,0.0,0.0,0.0,0.0,0.0,0.0,0.0,0.0,0.0,0.0,0.0,0.0,0.0,0.0,0.0,0.0,0.0,0.0,0.0,0.0,0.0,0.0,0.0,0.0,0.0,0.0,0.0,0.0,0.0,0.0,0.0,0.0,0.0,0.0,0.0,0.0,0.0,0.0,0.0,0.0,0.0,0.0,0.0,0.0,0.0,0.0,0.0,0.0,0.0,0.0,0.0,0.0,0.0,0.0,0.0,0.0,0.0,0.0,0.0,0.0,0.0,0.0,0.0,0.0,0.0,0.0,0.0,0.0,0.0,0.0,0.0,0.0,0.0,0.0,0.0,0.0,0.0,0.0,0.0,0.0,0.0,0.0,0.0,0.0,0.0,0.0,0.0,0.0,0.0,0.0,0.0,0.0,0.0,0.0,0.0,0.0,0.0,0.0,0.0,0.0,0.0,0.0,0.0,0.0,0.0,0.0,0.0,0.0,0.0,0.0,0.0,0.0,0.0,0.0,0.0,0.0,0.0,0.0,0.0,0.0,0.0,0.0,0.0,0.0,0.0,0.0,0.0,0.0,0.0,0.0,0.0,0.0,0.0,0.0,0.0,0.0,0.0,0.0,0.0,0.0,0.0,0.0,0.0,0.0,0.0,0.0,0.0,0.0,0.0,0.0,0.0,0.0,0.0,0.0,0.0,0.0,0.0,0.0,0.0,0.0,0.0,0.0,0.0,0.0,0.0,0.0,0.0,0.0,0.0,0.0,0.0,0.0,0.0,0.0,0.0,0.0,0.0,0.0,0.0,0.0,0.0,0.0,0.0,0.0,0.0,0.0,0.0,0.0,0.0,0.0,0.0,0.0,0.0,0.0,0.0,0.0,0.0,0.0,0.0,0.0,0.0,0.0,0.0,0.0,0.0,0.0,0.0,0.0,0.0,0.0,0.0,0.0,0.0,0.0,0.0,0.0,0.0,0.0,0.0,0.0,0.0,0.0,0.0,0.0,0.0,0.0,0.0,0.0,0.0,0.0,0.0,0.0,0.0,0.0,0.0,0.0,0.0,0.0,0.0,0.0,0.0,0.0,0.0,0.0,0.0,0.0,0.0,0.0,0.0,0.0,0.0,0.0,0.0,0.0,0.0,0.0,0.0,0.0,0.0,0.0,0.0,0.0,0.0,0.0,0.0,0.0,0.0,0.0,0.0,0.0,0.0,0.0,0.0,0.0,0.0,0.0,0.0,0.0,0.0,0.0,0.0,0.0,0.0,0.0,0.0,0.0,0.0,0.0,0.0,0.0,0.0,0.0,0.0,0.0,0.0,0.0,0.0,0.0,0.0,0.0,0.0,0.0,0.0,0.0,0.0,0.0,0.0,0.0,0.0,0.0,0.0,0.0,0.0,0.0,0.0,0.0,0.0,0.0,0.0,0.0,0.0,0.0,0.0,0.0,0.0,0.0,0.0,0.0,0.0,0.0,0.0,0.0,0.0,0.0,0.0,0.0,0.0,0.0,0.0,0.0,0.0,0.0,0.0,0.0,0.0,0.0,0.0,0.0,0.0,0.0,0.0,0.0,0.0,0.0,0.0,0.0,0.0,0.0,0.0,0.0,0.0,0.0,0.0,0.0,0.0,0.0,0.0,0.0,0.0,0.0,0.0,0.0,0.0,0.0,0.0,0.0,0.0,0.0,0.0,0.0,0.0,0.0,0.0,0.0,0.0,0.0,0.0,0.0,0.0,0.0,0.3879,0.5282,0.0,0.0,0.0,0.0,0.0,0.0,0.0,0.0,0.0,0.0,0.0,0.0,0.0,0.0,0.0,0.0,0.0,0.0,0.0,0.0,0.0,0.0,0.0,0.0,0.0,0.0,0.0,0.0,0.0,0.0,0.0,0.0,0.0,0.0,0.0,0.0,0.0,0.0,0.0,0.0,0.0,0.0,0.0,0.0,0.0,0.0,0.0,0.0,0.0,0.0,0.0,0.0,0.0,0.0,0.0,0.0,0.0,0.0,0.0,0.0,0.0,0.0,0.0,0.0,0.0,0.0,0.0,0.0,0.0,0.0,0.0,0.0,0.0,0.0,0.0,0.0,0.0,0.0,0.0,0.0,0.0,0.0,0.0,0.0,0.0,0.0,0.0,0.0,0.0,0.0,0.0,0.0,0.0,0.0,0.0,0.0,0.0,0.0,0.0,0.0,0.0,0.0,0.0,0.0,0.0,0.0,0.0,0.0,0.0917,0.0,0.1275,0.1367,0.0866,0.0,0.0,1.2466,0.0,0.4112,0.0751,0.0,0.0,0.0,0.0,0.0,0.0,0.0,0.0,0.0,0.0,0.0,0.0,0.0,0.0,0.0,0.0,0.0,0.0,0.0,0.0,0.0,0.0,0.0,0.0,0.0,0.0,0.0,0.0,0.0,0.0,0.0,0.0,0.0,0.0,0.0,0.0,0.0,0.0,0.0,0.0,0.0,0.0,0.0,0.0,0.0,0.0,0.0,0.0,0.0,0.0,0.0,0.0,0.0,0.0,0.0,0.0,0.0,0.0,0.0,0.0,0.0,0.0,0.0,0.0,0.0,0.0,0.0,0.0,0.0,0.0,0.0,0.0,0.0,0.0,0.0,0.0,0.0,0.0,0.0,0.0,0.0,0.0,0.0,0.0,0.0,0.0,0.0,0.0,0.0,0.0,0.0,0.0,0.0,0.0,0.0,0.0,0.0,0.0,0.0,0.0,0.0,0.0,0.0,0.0,0.0305,0.0,0.0,0.8685,0.9574,0.0,0.0899,0.904,1.2334,1.2245,1.093,0.5871,0.0,0.0,0.0,0.0,0.0,0.0,0.0,0.0,0.0,0.0,0.0,0.0,0.0,0.0,0.0,0.0,0.0,0.0,0.0,0.0,0.0,0.0,0.0,0.0,0.0,0.0,0.0,0.0,0.0,0.0,0.0,0.0,0.0,0.0,0.0,0.0,0.0,0.0,0.0,0.0,0.0,0.0,0.0,0.0,0.0,0.0,0.0,0.0,0.0,0.0,0.0,0.0,0.0,0.0,0.0,0.0,0.0,0.0,0.0,0.0,0.0,0.0,0.0,0.0,0.0,0.0,0.0,0.0,0.0,0.0,0.0,0.0,0.0,0.0,0.0,0.0,0.0,0.0,0.0,0.0,0.0,0.0,0.0,0.0,0.0,0.0,0.0,0.0,0.0,0.0,0.0,0.0,0.0,0.0,0.0,0.0,0.0,0.0,0.0,0.0,0.0,0.0,0.3527,0.4946,0.5187,0.0,0.8993,1.0655,1.1207,0.0,0.6314,0.8531,0.931,0.9501,1.1849,0.7166,0.0,0.0,0.0,0.0,0.0,0.0,0.0,0.0,0.0,0.0,0.0,0.0,0.0,0.0,0.0,0.0,0.0,0.0,0.0,0.0,0.0,0.0,0.0,0.0,0.0,0.0,0.0,0.0,0.0,0.0,0.0,0.0,0.0,0.0,0.0,0.0,0.0,0.0,0.0,0.0,0.0,0.0,0.0,0.0,0.0,0.0,0.0,0.0,0.0,0.0,0.0,0.0,0.0,0.0,0.0,0.0,0.0,0.0,0.0,0.0,0.0,0.0,0.0,0.0,0.0,0.0,0.0,0.0,0.0314,0.0,0.0,0.0,0.0,0.0,0.0,0.0,0.0,0.0,0.0,0.0,0.0,0.0,0.0,0.0,0.0,0.0,0.0,0.0,0.0,0.0,0.0,0.0,0.0,0.0,0.0,0.0,0.0,0.0,0.0,0.0,0.0,0.0,0.0,0.0,0.0,0.0,0.0,1.071,0.0,1.1044,1.0865,0.7907,0.6667,0.6719,0.9887,0.6212,0.0,0.0,0.0,0.0,0.0,0.0,0.0,0.0,0.0,0.0,0.0,0.0,0.0,0.0,0.0,0.0,0.0,0.0,0.0,0.0,0.0,0.0,0.0,0.0,0.0,0.0,0.0,0.0,0.0,0.0,0.0,0.0,0.0,0.0,0.0,0.0,0.0,0.0,0.0,0.0,0.0,0.0,0.0,0.0,0.0,0.0,0.0,0.0,0.0,0.0,0.0,0.0,0.0,0.0,0.0,0.0,0.0,0.0,0.0,0.0,0.0,0.0,0.0,0.0,0.0,0.0,0.0,0.0,0.1096,0.0,0.0,0.0,0.0,0.0,0.0,0.0,0.0,0.0,0.0,0.0,0.0,0.0,0.0,0.0,0.0,0.0,0.0,0.0,0.0,0.0,0.0,0.0,0.0,0.0,0.0,0.0,0.0,0.0,0.0,0.0,0.3104,0.8588,0.3376,0.0,0.0,0.0,1.0058,0.0,1.1336,1.0016,0.0,0.8054,0.7482,0.6409,0.6967,0.4023,0.0,0.0,0.0,0.0,0.0,0.0,0.0,0.0,0.0,0.0,0.0,0.0,0.0,0.0,0.0,0.0,0.0,0.0,0.0,0.0,0.0,0.0,0.0,0.0,0.0,0.0,0.0,0.0,0.0,0.0,0.0,0.0,0.0,0.0,0.0,0.0,0.0,0.0,0.0,0.0,0.0,0.0,0.0,0.0,0.0,0.0,0.0,0.0,0.0,0.0,0.0,0.0,0.0,0.0,0.0,0.0,0.0,0.0,0.0,0.0,0.0,0.0,0.0,0.0,0.0,0.0,0.0,0.0,0.1252,0.0,0.0,0.0,0.0,0.0,0.0,0.0,0.0,0.0,0.0,0.0,0.0,0.0,0.0,0.0,0.0,0.0,0.0,0.0,0.0,0.0,0.0,0.0,0.0,0.0,0.0,0.0,0.0,0.0,0.0154,0.4033,0.7393,1.0275,0.726,0.0,1.0387,0.0,0.0,0.0,0.0,0.0,0.0,1.0158,1.0308,1.0427,1.0245,0.9087,0.7232,0.0,0.2239,0.0,0.0,0.0,0.0,0.0,0.0,0.0,0.0,0.0,0.0,0.0,0.0,0.0,0.0,0.0,0.0,0.0,0.0,0.0,0.0,0.0,0.0,0.0,0.0,0.0,0.0,0.0,0.0,0.0,0.0,0.0,0.0,0.0,0.0,0.0,0.0,0.0,0.0,0.0,0.0,0.0,0.0,0.0,0.0,0.0,0.0,0.0,0.0,0.0,0.0,0.0,0.0,0.0,0.0,0.0,0.0,0.0,0.0,0.0,0.0,0.0,0.0,0.0,0.0,0.0,0.3753,0.2706,0.2097,0.0321,0.0,0.0,0.0,0.0,0.0,0.0,0.0,0.0,0.0,0.0,0.0,0.0,0.0,0.2814,0.0,0.0,0.0509,0.0,0.0,0.0,0.0,0.1437,0.1417,0.1412,0.14,0.1394,0.1548,0.6361,0.9361,1.0705,0.0,1.0381,1.0666,0.0,0.0,1.0672,1.1336,1.1667,1.1889,1.2004,1.2584,1.3183,1.3171,1.3252,1.2844,0.9678,0.6362,0.0,0.2267,0.0,0.0,0.0,0.0,0.0,0.0,0.0,0.0,0.0,0.0,0.0,0.0,0.0,0.0,0.0,0.0,0.0,0.0,0.0,0.0,0.0,0.0,0.0,0.0,0.0,0.0,0.0,0.0,0.0,0.0,0.0,0.0,0.0,0.0,0.0,0.0,0.0,0.0,0.0,0.0,0.0,0.0,0.0,0.0,0.0,0.0,0.0,0.0,0.0,0.0,0.0,0.0,0.0,0.0,0.0,0.0,0.0,0.0,0.0,0.0,0.0,0.0,0.0,0.9729,0.9682,0.7705,0.1133,0.0,0.0,0.0,0.0,0.0,0.0,0.0,0.0,0.0,0.0,0.0,0.0,0.0,1.0208,0.6088,0.0,0.1775,0.0,0.0,0.0,0.0,0.0,0.491,0.4857,0.4855,0.5011,0.517,0.517,0.7102,1.0594,1.0878,1.1134,1.1145,1.1432,1.1887,1.2477,1.2362,1.2661,1.314,0.0,1.2928,1.3249,1.3379,0.0,0.0,1.3194,1.3194,0.0,0.0,0.0,0.0,0.0,0.0,0.0,0.0,0.0,0.0,0.0,0.0,0.0,0.0,0.0,0.0,0.0,0.0,0.0,0.0,0.0,0.0,0.0,0.0,0.0,0.0,0.0,0.0,0.0,0.0,0.0,0.0,0.0,0.0,0.0,0.0,0.0,0.0,0.0,0.0,0.0,0.0,0.0,0.0,0.0,0.0,0.0,0.0,0.0,0.0,0.0,0.0,0.0,0.0,0.0,0.0,0.0,0.0,0.0,0.0,0.0,0.0,0.0,0.0,0.0,0.9987,0.9929,0.9337,0.7009,0.2934,0.0,0.0,0.0,0.0,0.0,0.0,0.0,0.0,0.0,0.3352,0.0,0.0,1.1673,1.0283,0.8469,0.0,0.0,0.0,1.0404,0.0,0.0,0.8322,0.8522,0.8549,0.8554,0.8682,0.8609,0.9307,1.065,1.0763,1.0993,0.0,0.0,0.0,0.0,0.0,1.2846,1.3232,0.0,0.0,1.3385,1.3591,1.3667,0.0,1.3879,1.3763,1.3417,1.2001,1.0487,0.8757,0.5653,0.4865,0.0,0.0,0.0,0.4006,0.0814,0.0,0.0,0.0,0.0,0.0,0.0,0.0,0.0,0.0,0.0,0.0,0.0,0.0,0.0,0.0,0.0,0.0,0.0,0.0,0.0,0.0,0.0,0.0,0.0,0.0,0.0,0.0,0.0,0.0,0.0,0.0,0.0,0.0,0.0,0.0,0.0,0.0,0.0,0.0,0.0,0.0,0.0,0.0,0.0,0.0,0.0,0.0,0.0,0.0,0.0,0.0,0.0,0.0,0.0,1.028,1.0174,0.9386,0.6886,0.279,0.0,0.0,0.0,0.0,0.0,0.0,0.0,0.393,0.0,0.6427,0.0,1.2319,1.2243,1.2184,1.2024,0.0,0.8496,1.0621,0.0,0.0,0.0,0.0,1.0601,1.049,1.0467,1.0536,1.0528,1.0578,1.065,1.054,1.0993,1.196,0.0,1.2229,0.0,0.0,1.3162,0.0,0.0,1.3433,0.0,0.0,1.3847,1.3863,1.3983,1.3879,1.3946,1.3923,1.4001,1.338,1.0528,0.9706,0.9694,0.9823,0.9668,0.0,0.5823,0.3702,0.0,0.0391,0.0,0.0,0.0,0.0,0.0,0.0,0.0,0.0,0.0,0.0,0.0,0.0,0.0,0.0,0.0,0.0,0.0,0.0,0.0,0.0,0.0,0.0,0.0,0.0,0.0,0.0,0.0,0.0,0.0,0.0,0.0,0.0,0.0,0.0,0.0,0.0,0.0,0.0,0.0,0.0,0.0,0.0,0.0,0.0,0.0,0.0,0.0,0.0,0.0,0.0,0.0,1.0594,0.0,0.0,0.0,0.0168,0.0,0.0,0.0,0.053,0.0,0.0542,0.3484,1.1283,1.2172,1.2281,1.2576,1.2498,0.0,1.2205,1.2389,0.0,0.0,1.2151,1.2074,1.2004,0.0,0.0,0.0,1.0574,1.0514,1.0732,1.0514,1.053,1.0748,1.0753,0.0,1.1868,1.221,1.277,1.3439,1.3558,1.3597,1.3591,1.3607,0.0,1.3308,1.3787,1.3961,1.3983,1.4108,1.4151,1.4124,1.401,1.3993,1.4037,1.4151,1.4195,1.4195,1.4293,1.4266,1.4394,1.4252,0.0,0.0,0.0,0.0,0.2819,0.0,0.0,0.0,0.0,0.0,0.0,0.0,0.0,0.0,0.0,0.0,0.0,0.0,0.0,0.0,0.0,0.0,0.0,0.0,0.0,0.0,0.0,0.0,0.0,0.0,0.0,0.0,0.0,0.0,0.0,0.0,0.0,0.0,0.0,0.0,0.0,0.0,0.0,0.0,0.0,0.0,0.0,0.0,0.0,0.0,0.0,0.0,0.0,0.0,1.0677,1.0672,1.0136,0.0,0.3517,0.0,0.0,0.0,0.0,0.0,0.9103,0.9777,1.2,1.2251,1.2272,1.2692,1.2725,0.0,0.0,0.0,0.0,1.2558,1.2091,1.196,1.2254,1.1498,0.0,1.1183,0.0,1.059,1.0737,1.077,1.0813,1.0878,1.0965,1.146,1.2221,1.2314,1.2819,1.3558,1.3591,1.3493,0.0,0.0,1.3586,1.3428,1.3819,1.4015,1.4108,1.4238,1.4276,1.4265,1.4238,1.4238,1.4249,1.4276,1.4292,1.4282,1.4254,1.4254,1.4404,1.4372,1.3338,1.2093,0.0,0.0,0.0,0.0,0.0,0.0,0.0,0.0,0.0,0.0,0.0,0.0,0.0,0.0,0.0,0.0,0.0,0.0,0.0,0.0,0.0,0.0,0.0,0.0,0.0,0.0,0.0,0.0,0.0,0.0,0.0,0.0,0.0,0.0,0.0,0.0,0.0,0.0,0.0,0.0,0.0,0.0,0.0,0.0,0.0,0.0,0.0,0.0,0.0,0.0,0.0,0.0,1.0865,0.0,0.0,1.1052,0.0,0.0,0.4797,0.0,0.0,1.2234,1.2328,0.0,1.2449,1.2553,1.2607,1.2808,1.2858,0.0,0.0,0.0,0.0,1.2623,1.246,1.246,1.2661,1.2102,0.0,1.1585,0.0,0.0,1.09,1.0965,1.0971,1.0927,1.1047,1.1422,1.1993,1.2853,1.3368,1.3878,1.4252,0.0,0.0,1.4619,1.4665,1.4613,1.4827,1.4512,1.4151,1.4276,1.432,1.432,1.432,1.432,1.432,1.432,1.4547,1.4536,1.432,1.4547,1.473,1.4393,1.4271,1.4106,1.4241,1.2035,0.9896,0.0,0.0,0.0,0.0,0.0,0.0,0.0,0.0,0.0,0.0,0.0,0.0,0.0,0.0,0.0,0.0,0.0,0.0,0.0,0.0,0.0,0.0,0.0,0.0,0.0,0.0,0.0,0.0,0.0,0.0,0.0,0.0,0.0,0.0,0.0,0.0,0.0,0.0,0.0,0.0,0.0,0.0,0.0,0.0,0.0,0.0,0.0,0.0,0.0,0.0,0.0,0.0,0.0,0.0,0.0,0.0,1.1641,0.0,1.2183,0.0,1.2802,1.2836,1.3222,1.3359,0.0,0.0,1.3046,1.2836,1.3018,1.304,1.283,1.3128,1.3294,1.3294,1.304,0.0,0.0,0.0,0.0,1.1052,1.1074,1.1031,1.0949,1.1052,1.1286,1.1842,1.3268,1.4013,0.0,1.5145,1.5503,1.5527,1.565,1.5778,1.5888,1.59,1.526,1.4393,1.4503,1.4547,1.4547,1.4547,1.4547,1.4547,1.4547,1.4986,1.5197,1.4758,1.4986,1.5197,1.4758,1.4465,1.4338,1.4576,1.452,1.426,1.4366,1.4136,1.376,0.0,0.0,0.0,0.0,0.0,0.0,0.0,0.0,0.0,0.0,0.0,0.0,0.0,0.0,0.0,0.0,0.0,0.0,0.0,0.0,0.0,0.0,0.0,0.0,0.0,0.0,0.0,0.0,0.0,0.0,0.0,0.0,0.0,0.0,0.0,0.0,0.0,0.0,0.0,0.0,0.0,0.0,0.0,0.0,0.0,0.0,0.0,0.0,0.0,0.0,0.0,1.2725,0.0,1.3682,1.2561,1.2213,1.2347,0.0,1.289,1.5001,1.591,1.4572,1.4812,0.0,0.0,0.0,0.0,1.4548,1.4614,1.465,1.465,1.4283,1.3638,0.0,0.0,0.0,1.0802,1.0905,1.0992,1.1074,1.109,1.1743,1.3153,1.388,0.0,1.5337,1.5509,1.5558,1.5662,1.5686,1.5778,1.59,1.601,1.5838,1.5832,1.5862,1.588,1.588,1.588,1.588,1.588,1.588,1.5862,1.5868,1.5862,1.5862,1.5868,1.5862,1.585,1.5832,1.5783,1.5693,1.5603,1.5579,1.5494,1.5153,1.4556,0.0,0.0,0.0,0.0,0.0,0.0,0.0,0.0,0.0,0.0,0.0,0.0,0.0,0.0,0.0,0.0,0.0,0.0,0.0,0.0,0.0,0.0,0.0,0.0,0.0,0.0,0.0,0.0,0.0,0.0,0.0,0.0,0.0,0.0,0.0,0.0,0.0,0.0,0.0,0.0,0.0,0.0,0.0,0.0,0.0,0.0,0.0,0.0,0.0,0.0,0.0,0.0,1.5296,0.0,1.4287,1.4205,1.4331,1.4464,1.5996,1.6707,1.6141,1.6154,1.5943,1.4892,1.4886,1.4855,1.4788,1.4916,0.0,1.4892,0.0,1.4271,1.3031,0.0,0.0,1.1014,1.1246,1.1446,1.1457,1.2067,1.2712,0.0,0.0,0.0,1.5817,1.6395,1.6543,1.6679,1.675,1.6821,1.6885,1.6956,1.6969,1.6982,1.6317,1.6089,1.6089,1.6089,1.6089,1.6089,1.6089,1.6317,1.6545,1.6096,1.6317,1.6545,1.6096,1.6089,1.6089,1.6089,1.6047,1.5998,1.5998,1.5888,1.5711,1.5235,1.4348,0.0,0.0,0.0,0.0,0.0,0.0,0.0,0.0,0.0,0.0,0.0,0.0,0.25,0.0208,0.0,0.0,0.0,0.0,0.0,0.0,0.0,0.0,0.0,0.0,0.0,0.0,0.0,0.0,0.0,0.0,0.0,0.0,0.0,0.0,0.0471,0.5655,0.4711,0.0,0.0,0.3296,0.7781,0.7781,0.6121,0.4236,0.0,1.4738,0.0,0.0,1.536,0.0,0.0,1.6252,1.6272,1.6239,1.6307,1.6192,1.6219,1.6749,1.7051,1.7078,1.7085,1.6453,1.539,1.539,1.534,1.5227,1.5434,1.5503,1.539,1.5597,1.5122,0.0,0.0,0.0,0.0,1.1969,1.2079,1.2068,0.0,0.0,0.0,0.0,1.6021,1.6341,1.711,1.7561,1.7704,1.7792,1.7846,1.786,1.786,1.786,1.786,1.676,1.6526,1.6526,1.6526,1.6526,1.6526,1.6526,1.676,1.6988,1.6533,1.676,1.6988,1.6533,1.6526,1.6526,1.6526,1.6526,1.6526,1.6526,1.6224,1.6063,1.5582,1.5193,0.0,0.0,0.0,0.0,0.0,0.0,0.0,0.0,0.0,0.0,0.0,0.0,0.6439,0.2899,0.1052,0.0,0.0,0.0,0.0,0.0,0.0,0.0,0.0,0.0,0.0,0.0,0.0,0.0,0.0,0.0,0.0,0.0,0.0,0.0,0.0707,1.0864,1.039,0.3061,0.2117,0.6352,1.3464,1.4654,1.2497,0.9641,0.0,0.0,0.0,0.0,0.0,0.0,0.0,1.6974,1.6886,1.6925,1.6918,1.6981,1.6913,1.6941,1.7003,1.6931,1.6944,1.6944,1.6728,1.6728,1.6721,1.6708,1.6735,1.6741,1.6728,1.6755,1.6254,0.0,0.0,0.0,0.0,1.2655,1.2612,0.0,0.0,0.0,0.0,1.5879,1.6736,1.7568,1.7609,1.7717,1.7826,1.7717,1.7758,1.786,1.786,1.786,1.786,1.786,1.7639,1.7639,1.7639,1.7639,1.7639,1.7639,1.786,1.786,1.786,1.786,1.786,1.786,1.7639,1.7639,1.7639,1.7639,1.7639,1.7639,1.7197,1.6659,1.5946,1.5851,1.5408,0.0,0.0,0.0,0.0,0.0,1.4723,1.4948,0.0,0.0,0.0,0.0,0.0,1.1788,0.4447,0.0,0.0,0.0,0.0,0.0,0.0,0.0,0.0,0.0,0.0,0.0,0.0,0.0,0.0,0.0,0.0,0.0,0.0,0.0,0.0707,1.0864,1.443,1.3234,0.8468,0.7281,0.8696,1.3435,1.4633,1.4388,0.0,0.0,0.0,0.0,0.0,0.0,0.0,1.7023,1.7078,1.7016,1.701,1.703,1.7092,1.7099,1.6917,1.6978,1.6978,1.6978,1.6978,1.6978,1.6937,1.6842,1.6931,1.6937,1.6842,1.6931,1.656,0.0,0.0,0.0,0.0,0.0,0.0,0.0,0.0,1.5757,1.6266,1.6802,1.7183,1.765,1.765,1.7792,1.7989,1.7935,1.8002,1.8145,1.8145,1.8145,1.8145,1.8145,1.8023,1.788,1.7968,1.8002,1.8023,1.8111,1.8145,1.8145,1.8145,1.8145,1.8111,1.8023,1.8002,1.7968,1.788,1.786,1.786,1.786,1.7639,1.7391,1.7046,1.6319,1.5888,0.0,0.0,0.0,0.0,0.0,0.0,1.5005,0.0,1.4282,0.0,0.0,1.3662,1.3264,0.9792,0.5441,0.0219,0.0,0.0,0.0,0.0,0.0,0.0,0.0,0.0,0.0,0.0,0.0,0.0236,0.6368,0.8973,0.8728,0.5886,0.4468,0.4938,1.201,1.5108,1.4879,1.2713,1.1988,1.2227,1.4363,1.5081,1.5064,1.5638,0.0,1.6764,0.0,1.6932,1.7037,1.6937,1.6978,1.6978,1.6978,1.6978,1.6978,1.6978,1.6978,1.6978,1.6978,1.6978,1.6978,1.6978,1.6978,1.6931,1.6822,1.6924,0.0,1.6822,1.6924,1.6668,1.624,1.5642,0.0,0.0,0.0,0.0,0.0,1.6313,1.6659,1.6815,1.729,1.7575,1.7717,1.7758,1.7935,1.8158,1.8158,1.8233,1.8321,1.8321,1.8321,1.8321,1.8321,1.8179,1.8023,1.8124,1.8158,1.8179,1.8287,1.8321,1.8321,1.8321,1.8321,1.8301,1.8179,1.8158,1.8124,1.8023,1.8002,1.8002,1.8002,1.8002,1.8002,1.7773,1.7157,1.669,1.7002,0.0,0.0,0.0,1.5475,0.0,1.4934,1.4763,1.4477,1.4559,1.4151,0.0,0.0,1.3482,0.0,0.0,0.0,0.0,0.0,0.0,0.0,0.0,0.0,0.0,0.0,0.3053,0.4479,0.4711,1.0154,1.3714,1.4895,1.131,0.9641,0.9879,1.365,1.5081,1.5092,1.5064,1.5053,1.5053,1.5053,1.5053,1.5037,1.7052,1.651,1.6393,1.6917,1.6971,1.6971,1.6978,1.6978,1.6978,1.6978,1.6978,1.6978,1.6978,1.6978,1.6978,1.6978,1.6978,1.6978,1.6978,1.6978,1.6978,0.0,0.0,1.6978,1.6978,1.6978,1.6978,1.6978,0.0,0.0,1.6286,1.5988,1.6008,1.6313,1.6612,1.6992,1.7419,1.7582,1.7717,1.788,1.8023,1.8179,1.8321,1.8321,1.8321,1.8321,1.8321,1.8321,1.8321,1.8321,1.8321,1.8321,1.8321,1.8321,1.8321,1.8321,1.8321,1.8321,1.8321,1.8321,1.8321,1.8321,1.8321,1.8321,1.8321,1.8321,1.8321,1.8321,1.8321,1.8088,1.7407,1.7854,1.7768,1.6367,0.0,0.0,0.0,0.0,0.0,1.5243,1.4226,1.3673,1.4265,0.0,0.0,0.0,0.0,0.0,0.0,0.0,0.0,0.0,0.0,0.0,0.0,0.0,0.0,0.0233,1.0125,1.4921,1.467,0.9886,1.0352,1.5108,1.4868,1.4868,1.4868,1.5075,1.5064,1.5064,1.5053,1.5037,1.5037,1.5037,1.5037,1.5037,1.7092,1.6761,1.6829,1.7037,1.6917,1.6978,1.6978,1.6978,1.6978,1.6978,1.6978,1.6978,1.6978,1.6978,1.6978,0.0,1.6978,1.6978,0.0,1.6978,1.6978,1.6978,1.6978,1.6978,1.6978,1.6978,1.6978,1.6978,0.0,0.0,0.0,1.6402,1.6578,1.7073,1.7277,1.7439,1.7595,1.7846,1.7982,1.8036,1.8179,1.8335,1.8464,1.8464,1.8531,1.862,1.862,1.862,1.862,1.862,1.862,1.862,1.862,1.8552,1.8477,1.8586,1.862,1.862,1.862,1.862,1.8599,1.8498,1.8464,1.8443,1.8335,1.8321,1.8321,1.8321,1.8321,1.8321,1.8088,1.7868,1.7634,1.7187,1.7066,0.0,0.0,0.0,1.5578,1.505,1.4635,1.4602,0.0,1.445,0.0,0.0,0.0,0.0,0.0,0.0,0.0,0.0,0.0,0.0,0.0,0.6772,1.0136,1.0114,0.9886,1.1784,1.4884,1.3426,1.3416,1.5081,1.5064,1.5064,1.5064,1.5053,1.5053,1.5053,1.5037,1.5037,1.5037,1.5037,1.5037,1.5037,1.7058,1.6917,1.6951,1.7065,1.6917,1.6978,1.6978,1.6978,1.7005,1.7271,1.7229,1.7026,1.7134,1.7093,0.0,1.6985,1.6978,0.0,1.6978,1.6978,1.6978,1.6978,1.6978,1.6978,1.6978,0.0,0.0,1.6978,1.6842,1.6849,1.6998,1.6965,1.7148,1.7514,1.7717,1.7806,1.7826,1.807,1.8213,1.8267,1.8355,1.8477,1.862,1.862,1.8674,1.8762,1.8762,1.8762,1.8762,1.8762,1.8762,1.8762,1.8762,1.8694,1.864,1.8728,1.8762,1.8762,1.8762,1.8762,1.8742,1.864,1.862,1.8599,1.8511,1.8477,1.8477,1.8477,1.8477,1.8477,1.8477,1.8255,1.8059,1.8145,1.7422,1.6974,1.6645,0.0,1.5606,0.0,0.0,0.0,0.0,1.4862,0.0,0.0,0.0,0.0,0.0,0.0,0.0,0.0227,0.0,0.0,0.5577,1.1754,1.4911,1.49,1.1775,1.1997,1.5092,1.5064,1.5053,1.5053,1.5037,1.5037,1.5037,1.5037,1.5037,1.5037,1.5037,1.5037,1.5037,1.5037,1.5037,1.5037,1.6951,1.6978,0.0,0.0,1.6978,0.0,1.6992,1.6992,1.7264,1.7847,1.7312,1.7114,1.7392,1.7297,1.7154,1.7026,0.0,0.0,0.0,1.7012,1.7012,1.7012,1.7012,0.0,1.7012,1.7012,1.7012,1.7012,1.7141,1.729,1.7439,1.7595,1.767,1.7684,1.7982,1.8111,1.8111,1.8267,1.8409,1.8531,1.8552,1.864,1.8762,1.8762,1.8762,1.8762,1.8762,1.8762,1.8762,1.8762,1.8762,1.8762,1.8762,1.8762,1.8762,1.8762,1.8762,1.8762,1.8762,1.8762,1.8762,1.8742,1.8742,1.8742,1.8762,1.8762,1.8762,1.8762,1.8762,1.8762,1.8762,1.8762,1.8762,1.8762,1.8179,1.7672,1.7807,1.6555,1.5647,0.0,0.0,0.0,0.0,1.4792,1.4752,0.0,0.0,0.0,0.0,0.0,0.6895,0.1159,0.0696,0.4897,1.443,1.4895,1.4884,1.5108,1.5081,1.5064,1.5064,1.5053,1.5037,1.5037,1.5037,1.5037,1.5037,1.5037,1.5037,1.5037,1.5037,1.5037,1.5037,1.5037,1.5037,1.5037,0.0,0.0,1.6978,1.6978,1.6978,1.7019,1.6909,1.6929,1.7195,1.7566,1.7559,1.7566,1.7412,1.7392,1.7358,1.7317,1.7317,1.7317,1.7317,1.7317,1.7317,1.7317,1.7317,1.7317,1.7317,1.7317,1.7317,1.7317,1.7351,1.7446,1.7595,1.7738,1.788,1.8002,1.8179,1.8267,1.8267,1.8423,1.8498,1.8545,1.8654,1.8728,1.8762,1.8762,1.8762,1.8762,1.8762,1.8762,1.8762,1.8762,1.8762,1.8762,1.8762,1.8762,1.8762,1.8762,1.8762,1.8762,1.8762,1.8762,1.8728,1.862,1.8586,1.862,1.8728,1.8762,1.8762,1.8762,1.8762,1.8762,1.8762,1.8762,1.8762,1.8762,1.8742,1.8251,1.7826,1.7562,1.6999,0.0,1.5864,1.5607,1.6193,1.5817,1.531,0.0,0.0,0.0,0.0,1.3364,1.241,1.1163,0.7384,0.6715,0.9179,1.2877,1.4994,1.5053,1.5053,1.5037,1.5037,1.5037,1.5037,1.5037,1.5037,1.5037,1.5037,1.5037,1.5037,1.5037,1.5037,1.5037,1.5037,1.5037,1.5037,1.5037,1.6978,1.6978,1.6998,1.7066,1.7073,1.6909,1.7056,1.7297,1.7358,1.7507,1.7689,1.7696,1.7609,1.7568,1.7555,1.7616,1.75,1.7419,1.7419,1.7419,1.7419,1.7419,1.7419,1.7419,1.7419,1.7419,1.7453,1.7521,1.7589,1.767,1.7758,1.7968,1.8077,1.8111,1.8321,1.8409,1.8423,1.8565,1.864,1.864,1.8728,1.8762,1.8762,1.8762,1.8762,1.8762,1.8762,1.8762,1.8762,1.8762,1.8762,1.8762,1.8762,1.8762,1.8762,1.8762,1.8762,1.8762,1.8762,1.8762,1.8742,1.8654,1.8586,1.8565,1.8728,1.8762,1.8762,1.8762,1.8762,1.8762,1.8762,1.8762,1.8762,1.8762,1.8708,1.8456,1.8284,1.8007,0.0,1.7248,1.6555,1.6537,1.7148,1.6458,1.6116,1.6279,0.0,0.0,1.4831,1.4718,1.4646,1.4595,1.201,1.0645,1.0696,1.3483,1.4923,1.5037,1.5037,1.5037,1.5037,1.5037,1.5037,1.5037,1.5037,1.5037,1.5037,1.5037,1.5037,1.5037,1.5037,1.5037,1.5037,1.5037,1.5037,1.5037,1.7046,1.7046,1.708,1.6989,1.7009,1.7063,1.721,1.7676,1.7954,1.7895,1.7568,1.7582,1.7826,1.7758,1.7738,1.7846,1.7636,1.7487,1.7487,1.7487,1.7487,1.7487,1.7487,1.7487,1.7487,1.7487,1.7548,1.7684,1.7826,1.7901,1.7901,1.8213,1.8287,1.8165,1.8443,1.8565,1.8565,1.8708,1.8762,1.8762,1.8762,1.8742,1.8728,1.8742,1.8742,1.8728,1.8762,1.8762,1.8762,1.8762,1.8762,1.8762,1.8762,1.8762,1.8762,1.8762,1.8762,1.8762,1.8762,1.8742,1.8728,1.8728,1.862,1.8565,1.8694,1.8742,1.8762,1.8762,1.8762,1.8762,1.8762,1.8762,1.8742,1.8674,1.8599,1.8586,1.8654,0.0,1.7922,1.8007,1.733,1.7311,1.7723,1.7179,1.7117,1.7556,1.6548,1.5823,0.0,1.5252,1.5044,1.4744,1.4814,1.4809,1.4711,1.4825,1.4939,1.5037,1.5037,1.5037,1.5037,1.5037,1.5021,1.501,1.501,1.4994,1.4983,1.4994,1.501,1.501,1.5021,1.5037,1.5037,1.5037,1.5037,1.5037,1.6915,1.6915,1.6922,1.6942,1.7385,1.7662,1.7813,1.7841,1.7895,1.7812,1.7812,1.7812,1.786,1.7846,1.7846,1.786,1.7826,1.7792,1.7792,1.7792,1.7792,1.7792,1.7792,1.7792,1.7792,1.7792,1.7812,1.7826,1.7989,1.8057,1.8057,1.8355,1.8477,1.8477,1.8654,1.8728,1.8728,1.8742,1.8762,1.8762,1.8762,1.8694,1.8586,1.8708,1.8674,1.8586,1.8708,1.8762,1.8762,1.8762,1.8762,1.8762,1.8762,1.8762,1.8762,1.8762,1.8762,1.8762,1.8762,1.8674,1.8565,1.8565,1.8552,1.8531,1.8565,1.8674,1.8762,1.8762,1.8762,1.8762,1.8762,1.8762,1.864,1.8253,1.8498,1.8606,1.8253,0.0,1.8456,1.8349,1.7876,1.7784,1.8001,1.7602,1.7382,1.7272,1.7123,1.7004,1.6658,1.6004,1.5549,1.5532,1.4978,1.47,1.4673,1.4896,1.5021,1.5037,1.5037,1.5037,1.5037,1.5037,1.4983,1.4885,1.4885,1.4825,1.4744,1.4841,1.4885,1.4896,1.4994,1.5037,1.5037,1.5037,1.5037,1.5037,1.7426,1.7426,1.7446,1.7528,1.7765,1.782,1.7964,1.7978,1.7792,1.786,1.786,1.786,1.786,1.786,1.786,1.786,1.786,1.786,1.786,1.786,1.786,1.786,1.786,1.786,1.786,1.786,1.786,1.786,1.8091,1.8179,1.8091,1.8477,1.8599,1.8531,1.8694,1.8762,1.8762,1.8762,1.8762,1.8762,1.8762,1.8674,1.8552,1.8708,1.8674,1.8552,1.8708,1.8762,1.8762,1.8762,1.8708,1.8654,1.8742,1.8708,1.8654,1.8742,1.8708,1.864,1.864,1.8464,1.8321,1.8389,1.8355,1.8321,1.8389,1.8477,1.8552,1.862,1.864,1.8654,1.8742,1.8762,1.8694,1.8477,1.862,0.0,1.8477,1.864,1.8742,1.8654,1.8436,1.8383,1.8464,1.8208,1.794,1.7874,1.7634,1.7238,1.7148,1.6694,1.627,1.6347,1.5224,1.4744,1.4869,1.4912,1.4967,1.5037,1.5037,1.501,1.4939,1.4939,1.4869,1.476,1.4825,1.4825,1.4787,1.4896,1.4956,1.4956,1.501,1.5037,1.5037,1.5037,1.5037,1.5037,1.7968,1.7968,1.8003,1.7909,1.793,1.7964,1.7846,1.786,1.786,1.786,1.786,1.786,1.786,1.786,1.786,1.786,1.786,1.786,1.786,1.786,1.786,1.786,1.786,1.786,1.786,1.786,1.786,1.786,1.8165,1.8267,1.8158,1.8565,1.8694,1.8586,1.8708,1.8762,1.8762,1.8762,1.8742,1.8708,1.8708,1.862,1.8498,1.8654,1.864,1.8552,1.8708,1.8742,1.8708,1.8742,1.8654,1.8552,1.8674,1.8654,1.8599,1.864,1.8552,1.8443,1.8511,1.8375,1.8213,1.8301,1.8233,1.8165,1.8247,1.8301,1.8355,1.8464,1.8477,1.8511,1.864,1.8654,1.864,1.8565,0.0,1.8694,1.862,1.8694,1.8762,1.8762,1.8762,1.8742,1.8708,1.8599,1.8531,1.8531,1.7973,1.7739,1.7889,1.7198,1.7005,1.6853,1.5734,1.5033,1.4994,1.4896,1.4912,1.5037,1.5037,1.4967,1.4858,1.4885,1.4814,1.4673,1.4798,1.4858,1.4869,1.4983,1.5053,1.5081,1.5081,1.5081,1.5081,1.5053,1.5037,1.5037,1.7826,1.7826,1.7826,1.7846,1.7846,1.7846,1.786,1.786,1.786,1.786,1.786,1.786,1.786,1.786,1.786,1.786,1.786,1.786,1.786,1.786,1.786,1.786,1.786,1.786,1.786,1.786,1.786,1.786,1.8165,1.8321,1.8301,1.862,1.8762,1.8742,1.8762,1.8762,1.8762,1.8762,1.8674,1.8552,1.8552,1.8464,1.8355,1.8498,1.8545,1.8552,1.8708,1.8674,1.8565,1.8708,1.8654,1.8531,1.8552,1.864,1.8694,1.8423,1.8247,1.8179,1.8464,1.8511,1.8477,1.8355,1.8321,1.8267,1.8145,1.8213,1.8321,1.8335,1.8335,1.8335,1.8355,1.8355,1.8267,1.7968,0.0,0.0,1.8179,1.8498,1.8762,1.8762,1.8762,1.8708,1.8565,1.8531,1.8531,1.8531,1.8511,1.8579,1.8742,1.8046,1.7511,1.6713,1.6004,1.5544,1.4869,1.4858,1.4912,1.5037,1.5037,1.4967,1.4858,1.4967,1.4896,1.4673,1.4798,1.4858,1.4869,1.4983,1.5108,1.5206,1.5206,1.5206,1.5189,1.5081,1.5037,1.5037,1.786,1.786,1.786,1.786,1.786,1.786,1.786,1.786,1.786,1.786,1.786,1.786,1.786,1.786,1.786,1.786,1.786,1.786,1.786,1.786,1.786,1.786,1.786,1.786,1.786,1.786,1.7914,1.8002,1.8213,1.8375,1.8464,1.8654,1.8762,1.8762,1.8762,1.8708,1.862,1.862,1.8531,1.8409,1.8409,1.8301,1.8199,1.8335,1.8335,1.8287,1.8531,1.8586,1.8552,1.8708,1.8654,1.8552,1.864,1.8586,1.8464,1.8355,1.8287,1.8287,1.8477,1.8321,1.8111,1.8057,1.8036,1.8023,1.7968,1.7989,1.8057,1.8158,1.8179,1.8213,1.8301,1.8321,1.8287,1.8158,0.0,1.8464,1.8267,1.8464,1.862,1.862,1.862,1.864,1.8674,1.8674,1.8674,1.8674,1.8674,1.8708,1.8762,1.8523,1.8026,1.7511,1.728,1.6549,1.5313,1.5248,1.5064,1.5037,1.5037,1.4967,1.4858,1.4896,1.4825,1.4673,1.4798,1.4896,1.4967,1.5021,1.5151,1.5304,1.5162,1.5151,1.5206,1.5081,1.5037,1.5037,1.786,1.786,1.786,1.786,1.786,1.786,1.786,1.786,1.786,1.786,1.786,1.786,1.786,1.786,1.786,1.786,1.786,1.786,1.786,1.786,1.786,1.786,1.786,1.786,1.786,1.786,1.7914,1.8023,1.8213,1.8375,1.8464,1.8674,1.8742,1.8694,1.8742,1.8674,1.8531,1.8531,1.8443,1.8321,1.8267,1.8179,1.8111,1.8213,1.8233,1.8247,1.8464,1.8531,1.8552,1.8708,1.8654,1.8552,1.8654,1.8477,1.8247,1.8301,1.8287,1.8267,1.8301,1.8124,1.7948,1.7989,1.7968,1.7914,1.788,1.7901,1.7968,1.8077,1.8124,1.8199,1.8301,1.8321,1.8335,1.8375,1.8464,1.8511,1.8464,1.8552,1.8599,1.8599,1.8599,1.864,1.8742,1.8762,1.8762,1.8762,1.8762,1.8762,1.8762,1.8762,1.8503,1.7993,1.8072,1.7361,1.63,1.5783,1.5375,1.5092,1.5092,1.5037,1.4912,1.4956,1.4896,1.4787,1.4869,1.4983,1.5092,1.5135,1.526,1.5434,1.5222,1.5206,1.5249,1.5092,1.5037,1.5037,1.786,1.786,1.786,1.786,1.786,1.786,1.786,1.786,1.786,1.786,1.786,1.786,1.786,1.786,1.786,1.786,1.786,1.786,1.786,1.786,1.786,1.786,1.786,1.786,1.786,1.786,1.786,1.786,1.8165,1.8321,1.8321,1.862,1.8674,1.8531,1.8694,1.8674,1.8531,1.8531,1.8443,1.8301,1.8145,1.8091,1.8091,1.8091,1.8267,1.8531,1.8531,1.8531,1.8552,1.8708,1.8654,1.8531,1.8531,1.8335,1.8124,1.8267,1.8213,1.8057,1.7901,1.7968,1.8124,1.8287,1.8199,1.8057,1.7901,1.7989,1.8091,1.8091,1.8213,1.8321,1.8321,1.8321,1.8375,1.8511,1.8531,1.8586,1.8742,1.8762,1.8762,1.8762,1.8762,1.8762,1.8762,1.8762,1.8762,1.8762,1.8762,1.8762,1.8762,1.8762,1.8694,1.8545,1.8131,1.7975,1.782,1.6657,1.5794,1.5222,1.5222,1.5162,1.5037,1.5162,1.5151,1.5037,1.5037,1.5108,1.5233,1.5347,1.5461,1.5559,1.5434,1.5391,1.5363,1.5124,1.5037,1.5037,1.786,1.786,1.786,1.786,1.786,1.786,1.786,1.786,1.786,1.786,1.786,1.786,1.786,1.786,1.786,1.786,1.786,1.786,1.786,1.786,1.786,1.786,1.786,1.786,1.786,1.786,1.7914,1.8023,1.8213,1.8321,1.8321,1.862,1.8674,1.8531,1.8694,1.862,1.8389,1.8389,1.8301,1.8158,1.8111,1.8158,1.8247,1.8247,1.8301,1.8389,1.8498,1.8531,1.8552,1.8708,1.8728,1.8654,1.8443,1.8389,1.8355,1.8077,1.8036,1.8077,1.8036,1.8057,1.8077,1.8023,1.7968,1.7914,1.788,1.7989,1.8091,1.8091,1.8213,1.8321,1.8321,1.8321,1.8335,1.8375,1.8464,1.8511,1.8464,1.8531,1.8599,1.8599,1.8599,1.864,1.8742,1.8762,1.8762,1.8762,1.8762,1.8816,1.8918,1.8918,1.8952,1.9006,1.8959,1.88,1.8278,1.6989,1.6213,1.5931,1.553,1.5276,1.5162,1.5293,1.532,1.5276,1.5206,1.5276,1.5461,1.532,1.5391,1.5559,1.5347,1.5276,1.5249,1.5092,1.5037,1.5037,1.786,1.786,1.786,1.786,1.786,1.786,1.786,1.786,1.786,1.786,1.786,1.786,1.786,1.786,1.786,1.786,1.786,1.786,1.786,1.786,1.7901,1.7948,1.7948,1.7948,1.7948,1.7901,1.7935,1.8091,1.8247,1.8321,1.8321,1.862,1.8674,1.8531,1.8694,1.862,1.8409,1.8409,1.8355,1.8267,1.8199,1.8233,1.8321,1.8321,1.8355,1.8409,1.8498,1.8565,1.864,1.8728,1.8762,1.8728,1.8552,1.8511,1.8464,1.8145,1.8111,1.8158,1.8036,1.8036,1.8057,1.7901,1.7914,1.7948,1.7948,1.8077,1.8199,1.8247,1.8389,1.8498,1.8498,1.8498,1.8498,1.8498,1.8565,1.8586,1.8511,1.8565,1.862,1.862,1.862,1.8654,1.8742,1.8762,1.8762,1.8762,1.8816,1.8884,1.8993,1.904,1.9115,1.9203,1.9291,1.9133,1.8953,1.7655,1.7097,1.6793,1.638,1.6135,1.6079,1.5907,1.5935,1.569,1.5336,1.5363,1.5488,1.5401,1.5418,1.5488,1.5347,1.526,1.5206,1.5081,1.5037,1.5037,1.786,1.786,1.786,1.786,1.786,1.786,1.786,1.786,1.786,1.786,1.786,1.786,1.786,1.786,1.786,1.788,1.7901,1.7901,1.788,1.7901,1.7968,1.8111,1.8111,1.8111,1.8124,1.7989,1.7968,1.8091,1.8247,1.8321,1.8301,1.862,1.8674,1.8531,1.8694,1.8674,1.8531,1.8531,1.8531,1.8511,1.8389,1.8355,1.8355,1.8355,1.8443,1.8552,1.8552,1.864,1.8762,1.8762,1.8762,1.8762,1.8742,1.8654,1.8511,1.8375,1.8335,1.8267,1.7968,1.7989,1.8057,1.7901,1.7968,1.8077,1.8077,1.8199,1.8335,1.8477,1.864,1.8742,1.8762,1.8762,1.8762,1.8762,1.8762,1.8762,1.8762,1.8762,1.8762,1.8762,1.8762,1.8762,1.8762,1.8762,1.8762,1.8782,1.8918,1.9006,1.9027,1.9149,1.9237,1.9237,1.9237,1.9305,1.9447,1.8966,1.823,1.7501,1.7519,1.7519,1.7501,1.6777,1.6548,1.6542,1.5935,1.5646,1.5674,1.5773,1.5745,1.5629,1.5629,1.5547,1.5431,1.5315,1.5276,1.5276,1.786,1.786,1.786,1.786,1.786,1.786,1.786,1.786,1.786,1.786,1.786,1.786,1.786,1.786,1.7914,1.8036,1.8145,1.8165,1.8057,1.8158,1.8233,1.8267,1.8267,1.8321,1.8423,1.8301,1.8179,1.8091,1.8355,1.8375,1.8145,1.8565,1.8674,1.8531,1.8694,1.8674,1.8531,1.8531,1.8531,1.8531,1.8498,1.8552,1.8674,1.8674,1.8694,1.8708,1.8708,1.8728,1.8762,1.8762,1.8762,1.8742,1.862,1.864,1.8654,1.8389,1.8389,1.8423,1.8124,1.8077,1.8057,1.7901,1.788,1.7914,1.7914,1.8036,1.8179,1.8335,1.8477,1.862,1.8742,1.8762,1.8762,1.8762,1.8762,1.8762,1.8762,1.8762,1.8762,1.8762,1.8762,1.8762,1.8762,1.8762,1.8816,1.8938,1.8972,1.9094,1.9325,1.9359,1.9434,1.9556,1.9556,1.9576,1.961,1.9603,1.9058,1.823,1.7847,1.7611,1.7501,1.7368,1.7411,1.7411,1.7266,1.7043,1.7132,1.7054,1.6947,1.6823,1.6823,1.6686,1.6472,1.6442,1.6436,1.6436,1.786,1.786,1.786,1.786,1.786,1.786,1.786,1.786,1.786,1.786,1.786,1.786,1.786,1.786,1.7935,1.8077,1.8158,1.8179,1.8091,1.8091,1.8124,1.8213,1.8213,1.8287,1.8423,1.8355,1.8287,1.8199,1.8287,1.8287,1.8213,1.8511,1.8599,1.8531,1.8694,1.8674,1.8531,1.8599,1.864,1.864,1.864,1.8694,1.8762,1.8762,1.8762,1.8762,1.8762,1.8762,1.8762,1.8762,1.8762,1.8742,1.8674,1.864,1.862,1.8464,1.8375,1.8287,1.8124,1.8036,1.7968,1.788,1.7914,1.7989,1.8057,1.8145,1.8267,1.8477,1.8586,1.8674,1.8742,1.8762,1.8762,1.8762,1.8762,1.8762,1.8762,1.8762,1.8762,1.8762,1.8762,1.8762,1.8762,1.883,1.8905,1.8993,1.9115,1.9271,1.9427,1.9501,1.9576,1.9664,1.9664,1.9664,1.9664,1.9664,1.9381,1.9058,1.8888,1.8639,1.8574,1.8408,1.819,1.819,1.7872,1.7642,1.7709,1.7629,1.7519,1.7391,1.733,1.7171,1.6994,1.6933,1.6945,1.7012,1.786,1.786,1.786,1.786,1.786,1.786,1.786,1.786,1.786,1.786,1.786,1.786,1.786,1.788,1.7948,1.8036,1.8111,1.8124,1.8091,1.8002,1.8002,1.8124,1.8124,1.8199,1.8321,1.8301,1.8287,1.8287,1.8199,1.8213,1.8321,1.8464,1.8552,1.8565,1.8654,1.864,1.8586,1.8674,1.8742,1.8762,1.8762,1.8762,1.8762,1.8762,1.8762,1.8762,1.8762,1.8762,1.8762,1.8762,1.8762,1.8762,1.8762,1.8654,1.8531,1.8531,1.8335,1.8124,1.8091,1.8002,1.7901,1.786,1.7948,1.8091,1.8287,1.8321,1.8389,1.8674,1.8728,1.8728,1.8762,1.8762,1.8762,1.8762,1.8762,1.8762,1.8762,1.8762,1.8762,1.8762,1.8762,1.8762,1.8762,1.8905,1.9006,1.9027,1.9271,1.9447,1.9468,1.959,1.9664,1.9664,1.9664,1.9664,1.9664,1.9664,1.9664,1.9664,1.9664,1.9664,1.9664,1.9177,1.8927,1.8921,1.8197,1.7947,1.7947,1.7947,1.7866,1.7736,1.7593,1.7463,1.7364,1.7234,1.7284,1.7432,1.786,1.786,1.786,1.786,1.786,1.786,1.786,1.786,1.786,1.786,1.786,1.786,1.786,1.7989,1.8023,1.7901,1.8145,1.8233,1.8091,1.8199,1.8267,1.8287,1.8287,1.8301,1.8321,1.8199,1.8124,1.8124,1.8355,1.8423,1.8321,1.8464,1.8599,1.8728,1.8477,1.8511,1.8728,1.8599,1.864,1.8762,1.8762,1.8762,1.8762,1.8762,1.8762,1.8762,1.8762,1.8762,1.8762,1.8762,1.8762,1.8762,1.8762,1.8654,1.8531,1.8531,1.8409,1.8267,1.8124,1.8077,1.8023,1.7901,1.788,1.7968,1.8247,1.8321,1.8375,1.8531,1.8565,1.8599,1.8742,1.8762,1.8762,1.8762,1.8762,1.8762,1.8762,1.8762,1.8762,1.8762,1.8762,1.8762,1.8762,1.8905,1.904,1.9169,1.9325,1.9481,1.9624,1.9644,1.9664,1.9664,1.9664,1.9664,1.9664,1.9664,1.9664,1.9664,1.9664,1.9664,1.9664,1.9657,1.9657,1.9657,1.9414,1.9408,1.9408,1.9408,1.932,1.918,1.9026,1.8959,1.8939,1.8905,1.9006,1.9113,1.786,1.786,1.786,1.786,1.786,1.786,1.786,1.786,1.786,1.786,1.786,1.786,1.786,1.8002,1.8057,1.8002,1.8111,1.8158,1.8091,1.8077,1.8057,1.8057,1.8057,1.8057,1.8057,1.8002,1.7968,1.7968,1.8091,1.8165,1.8199,1.8335,1.8409,1.8389,1.8518,1.8498,1.8389,1.8586,1.8654,1.864,1.8728,1.8708,1.864,1.864,1.8586,1.8531,1.8599,1.8694,1.8762,1.8762,1.8762,1.8762,1.8762,1.8599,1.8423,1.8511,1.8375,1.8199,1.8213,1.8213,1.8199,1.8124,1.8179,1.8267,1.8409,1.8498,1.8586,1.8654,1.8654,1.8674,1.8742,1.8762,1.8762,1.8762,1.8762,1.8762,1.8762,1.8762,1.8796,1.8884,1.8884,1.8918,1.9006,1.9149,1.9257,1.9325,1.9468,1.959,1.9664,1.9664,1.9664,1.9664,1.9664,1.9664,1.9664,1.9664,1.9664,1.9664,1.9664,1.9664,1.9664,1.9664,1.9664,1.9664,1.9664,1.9664,1.9664,1.9664,1.9624,1.9535,1.9393,1.9271,1.9217,1.9291,1.9379,1.9434]}]]